[[{"header":{"parameterUnit":"m.s-1","parameterCategory":1,"la1":31.0,"la2":29.5877,"lo1":-88.7671,"lo2":-86.6584,"dy":0.0162,"dx":0.0185,"nx":115,"ny":88,"refTime":"2026-04-16T12:00:00:Z","depth":0,"parameterNumber":2,"parameterNumberName":"U-component_of_WINDS"},"data":[0.0,0.0,0.0,0.0,0.0,0.0,0.0,0.0,0.0,0.0,0.0,0.0,0.0,0.0,0.0,0.0,0.0,0.0,0.0,0.0,0.0,0.0,0.0,0.0,0.0,0.0,0.0,0.0,0.0,0.0,0.0,0.0,0.0,0.0,0.0,0.0,0.0,0.0,0.0,0.0,0.0,0.0,0.0,0.0,0.0,0.0,0.0,0.0,0.0,0.0,0.0,0.0,0.0,0.0,0.0,0.0,0.0,0.0,0.0,0.0,0.0,0.0,0.0,0.0,0.0,0.0,0.0,0.0,0.0,0.0,0.0,0.0,0.0,0.0,0.0,0.0,0.0,0.0,0.0,0.0,0.0,0.0,0.0,0.0,0.0,0.0,0.0,0.0,0.0,0.0,0.0,0.0,0.0,0.0,0.0,0.0,0.0,0.0,0.0,0.0,0.0,0.0,0.0,0.0,0.0,0.0,0.0,0.0,0.0,0.0,0.0,0.0,0.0,0.0,0.0,0.0,0.0,0.0,0.0,0.0,0.0,0.0,0.0,0.0,0.0,0.0,0.0,0.0,0.0,0.0,0.0,0.0,0.0,0.0,0.0,0.0,0.0,0.0,0.0,0.0,0.0,0.0,0.0,0.0,0.0,0.0,0.0,0.0,0.0,0.0,0.0,0.0,0.0,0.0,0.0,0.0,0.0,0.0,0.0,0.0,0.0,0.0,0.0,0.0,0.0,0.0,0.0,0.0,0.0,0.0,0.0,0.0,0.0,0.0,0.0,0.0,0.0,0.0,0.0,0.0,0.0,0.0,0.0,0.0,0.0,0.0,0.0,0.0,0.0,0.0,0.0,0.0,0.0,0.0,0.0,0.0,0.0,0.0,0.0,0.0,0.0,0.0,0.0,0.0,0.0,0.0,0.0,0.0,0.0,0.0,0.0,0.0,0.0,0.0,0.0,0.0,0.0,0.0,0.0,0.0,0.0,0.0,0.0,0.0,0.0,0.0,0.0,0.0,0.0,0.0,0.0,0.0,0.0,0.0,0.0,0.0,0.0,0.0,0.0,0.0,0.0,0.0,0.0,0.0,0.0,0.0,0.0,0.0,0.0,0.0,0.0,0.0,0.0,0.0,0.0,0.0,0.0,0.0,0.0,0.0,0.0,0.0,0.0,0.0,0.0,0.0,0.0,0.0,0.0,0.0,0.0,0.0,0.0,0.0,0.0,0.0,0.0,0.0,0.0,0.0,0.0,0.0,0.0,0.0,0.0,0.0,0.0,0.0,0.0,0.0,0.0,0.0,0.0,0.0,0.0,0.0,0.0,0.0,0.0,0.0,0.0,0.0,0.0,0.0,0.0,0.0,0.0,0.0,0.0,0.0,0.0,0.0,0.0,0.0,0.0,0.0,0.0,0.0,0.0,0.0,0.0,0.0,0.0,0.0,0.0,0.0,0.0,0.0,0.0,0.0,0.0,0.0,0.0,0.0,0.0,0.0,0.0,0.0,0.0,0.0,0.0,0.0,0.0,0.0,0.0,0.0,0.0,0.0,0.0,0.0,0.0,0.0,0.0,0.0,0.0,0.0,0.0,0.0,0.0,0.0,0.0,0.0,0.0,0.0,0.0,0.0,0.0,0.0,0.0,0.0,0.0,0.0,0.0,0.0,0.0,0.0,0.0,0.0,0.0,0.0,0.0,0.0,0.0,0.0,0.0,0.0,0.0,0.0,0.0,0.0,0.0,0.0,0.0,0.0,0.0,0.0,0.0,0.0,0.0,0.0,0.0,0.0,0.0,0.0,0.0,0.0,0.0,0.0,0.0,0.0,0.0,0.0,0.0,0.0,0.0,0.0,0.0,0.0,0.0,0.0,0.0,0.0,0.0,0.0,0.0,0.0,0.0,0.0,0.0,0.0,0.0,0.0,0.0,0.0,0.0,0.0,0.0,0.0,0.0,0.0,0.0,0.0,0.0,0.0,0.0,0.0,0.0,0.0,0.0,0.0,0.0,0.0,0.0,0.0,0.0,0.0,0.0,0.0,0.0,0.0,0.0,0.0,0.0,0.0,0.0,0.0,0.0,0.0,0.0,0.0,0.0,0.0,0.0,0.0,0.0,0.0,0.0,0.0,0.0,0.0,0.0,0.0,0.0,0.0,0.0,0.0,0.0,0.0,0.0,0.0,0.0,0.0,0.0,0.0,0.0,0.0,0.0,0.0,0.0,0.0,0.0,0.0,0.0,0.0,0.0,0.0,0.0,0.0,0.0,0.0,0.0,0.0,0.0,0.0,0.0,0.0,0.0,0.0,0.0,0.0,0.0,0.0,0.0,0.0,0.0,0.0,0.0,0.0,0.0,0.0,0.0,0.0,0.0,0.0,0.0,0.0,0.0,0.0,0.0,0.0,0.0,0.0,0.0,0.0,0.0,0.0,0.0,0.0,0.0,0.0,0.0,0.0,0.0,0.0,0.0,0.0,0.0,0.0,0.0,0.0,0.0,0.0,0.0,0.0,0.0,0.0,0.0,0.0,0.0,0.0,0.0,0.0,0.0,0.0,0.0,0.0,0.0,0.0,0.0,0.0,0.0,0.0,0.0,0.0,0.0,0.0,0.0,0.0,0.0,0.0,0.0,0.0,0.0,0.0,0.0,0.0,0.0,0.0,0.0,0.0,0.0,0.0,0.0,0.0,0.0,0.0,0.0,0.0,0.0,0.0,0.0,0.0,0.0,0.0,0.0,0.0,0.0,0.0,0.0,0.0,0.0,0.0,0.0,0.0,0.0,0.0,0.0,0.0,0.0,0.0,0.0,0.0,0.0,0.0,0.0,0.0,0.0,0.0,0.0,0.0,0.0,0.0,0.0,0.0,0.0,0.0,0.0,0.0,0.0,0.0,0.0,0.0,0.0,0.0,0.0,0.0,0.0,0.0,0.0,0.0,0.0,0.0,0.0,0.0,0.0,0.0,0.0,0.0,0.0,0.0,0.0,0.0,0.0,0.0,0.0,0.0,0.0,0.0,0.0,0.0,0.0,0.0,0.0,0.0,0.0,0.0,0.0,0.0,0.0,0.0,0.0,0.0,0.0,0.0,0.0,0.0,0.0,0.0,0.0,0.0,0.0,0.0,0.0,0.0,0.0,0.0,0.0,0.0,0.0,0.0,0.0,0.0,0.0,0.0,0.0,0.0,0.0,0.0,0.0,0.0,0.0,0.0,0.0,0.0,0.0,0.0,0.0,0.0,0.0,0.0,0.0,0.0,0.0,0.0,0.0,0.0,0.0,0.0,0.0,0.0,0.0,0.0,0.0,0.0,0.0,0.0,0.0,0.0,0.0,0.0,0.0,0.0,0.0,0.0,0.0,0.0,0.0,0.0,0.0,0.0,0.0,0.0,0.0,0.0,0.0,0.0,0.0,0.0,0.0,0.0,0.0,0.0,0.0,0.0,0.0,0.0,0.0,0.0,0.0,0.0,0.0,0.0,0.0,0.0,0.0,0.0,0.0,0.0,0.0,0.0,0.0,0.0,0.0,0.0,0.0,0.0,0.0,0.0,0.0,0.0,0.0,0.0,0.0,0.0,0.0,0.0,0.0,0.0,0.0,0.0,0.0,0.0,0.0,0.0,0.0,0.0,0.0,0.0,0.0,0.0,0.0,0.0,0.0,0.0,0.0,0.0,0.0,0.0,0.0,0.0,0.0,0.0,0.0,0.0,0.0,0.0,0.0,0.0,0.0,0.0,0.0,0.0,0.0,0.0,0.0,0.0,0.0,0.0,0.0,0.0,0.0,0.0,0.0,0.0,0.0,0.0,0.0,0.0,0.0,0.0,0.0,0.0,0.0,0.0,0.0,0.0,0.0,0.0,0.0,0.0,0.0,0.0,0.0,0.0,0.0,0.0,0.0,0.0,0.0,0.0,0.0,0.0,0.0,0.0,0.0,0.0,0.0,0.0,0.0,0.0,0.0,0.0,0.0,0.0,0.0,0.0,0.0,0.0,0.0,0.0,0.0,0.0,0.0,0.0,0.0,0.0,0.0,0.0,0.0,0.0,0.0,0.0,0.0,0.0,0.0,0.0,0.0,0.0,0.0,0.0,0.0,0.0,0.0,0.0,0.0,0.0,0.0,0.0,0.0,0.0,0.0,0.0,0.0,0.0,0.0,0.0,0.0,0.0,0.0,0.0,0.0,0.0,0.0,0.0,0.0,0.0,0.0,0.0,0.0,0.0,0.0,0.0,0.0,0.0,0.0,0.0,0.0,0.0,0.0,0.0,0.0,0.0,0.0,0.0,0.0,0.0,-1.0947,0.0,0.0,0.0,0.0,0.0,0.0,0.0,0.0,0.0,0.0,0.0,0.0,0.0,0.0,0.0,0.0,0.0,0.0,0.0,0.0,0.0,0.0,0.0,0.0,0.0,0.0,0.0,0.0,0.0,0.0,0.0,0.0,0.0,0.0,0.0,0.0,0.0,0.0,0.0,0.0,0.0,0.0,0.0,0.0,0.0,0.0,0.0,0.0,0.0,0.0,0.0,0.0,0.0,0.0,0.0,0.0,0.0,0.0,0.0,0.0,0.0,0.0,0.0,0.0,0.0,0.0,0.0,0.0,0.0,0.0,0.0,0.0,0.0,0.0,0.0,0.0,0.0,0.0,0.0,0.0,0.0,0.0,0.0,0.0,0.0,0.0,0.0,0.0,0.0,0.0,0.0,0.0,0.0,0.0,0.0,0.0,0.0,0.0,0.0,0.0,0.0,0.0,0.0,0.0,0.0,0.0,0.0,0.0,0.0,0.0,-1.3948,-1.4037,-1.2811,-1.1967,-1.163,0.0,0.0,0.0,0.0,0.0,0.0,0.0,0.0,0.0,0.0,0.0,0.0,0.0,0.0,0.0,0.0,0.0,0.0,0.0,0.0,0.0,0.0,0.0,0.0,0.0,0.0,0.0,0.0,0.0,0.0,0.0,0.0,0.0,0.0,0.0,0.0,0.0,0.0,0.0,0.0,0.0,0.0,0.0,0.0,0.0,0.0,0.0,0.0,0.0,0.0,0.0,0.0,0.0,0.0,0.0,0.0,0.0,0.0,0.0,0.0,0.0,0.0,0.0,0.0,0.0,0.0,0.0,0.0,0.0,0.0,0.0,0.0,0.0,0.0,0.0,0.0,0.0,0.0,0.0,0.0,0.0,0.0,0.0,0.0,0.0,0.0,0.0,0.0,0.0,0.0,0.0,0.0,0.0,0.0,0.0,0.0,0.0,0.0,0.0,0.0,0.0,0.0,0.0,0.0,0.0,0.0,0.0,0.0,0.0,0.0,0.0,0.0,-1.3427,-1.2598,-1.2456,0.0,0.0,0.0,0.0,0.0,0.0,0.0,0.0,0.0,0.0,0.0,0.0,0.0,0.0,0.0,0.0,0.0,0.0,0.0,0.0,0.0,0.0,0.0,0.0,0.0,0.0,0.0,0.0,0.0,0.0,0.0,0.0,0.0,0.0,0.0,0.0,0.0,0.0,0.0,0.0,0.0,0.0,0.0,0.0,0.0,0.0,0.0,0.0,0.0,0.0,0.0,0.0,0.0,0.0,0.0,0.0,0.0,0.0,0.0,0.0,0.0,0.0,0.0,0.0,0.0,0.0,0.0,0.0,0.0,0.0,0.0,0.0,0.0,0.0,0.0,0.0,0.0,0.0,0.0,0.0,0.0,0.0,0.0,0.0,0.0,0.0,0.0,0.0,0.0,0.0,0.0,0.0,0.0,0.0,0.0,0.0,0.0,0.0,0.0,0.0,0.0,0.0,0.0,0.0,0.0,0.0,0.0,0.0,0.0,0.0,-1.4053,-1.5612,-1.4774,0.0,-1.3279,0.0,0.0,0.0,0.0,0.0,0.0,0.0,0.0,0.0,0.0,0.0,0.0,0.0,0.0,0.0,0.0,0.0,0.0,0.0,0.0,0.0,0.0,0.0,0.0,0.0,0.0,0.0,0.0,0.0,0.0,0.0,0.0,0.0,0.0,0.0,0.0,0.0,0.0,0.0,0.0,0.0,0.0,0.0,0.0,0.0,0.0,0.0,0.0,0.0,0.0,0.0,0.0,0.0,0.0,0.0,0.0,0.0,0.0,0.0,0.0,0.0,0.0,0.0,0.0,0.0,0.0,0.0,0.0,0.0,0.0,0.0,0.0,0.0,0.0,0.0,0.0,0.0,0.0,0.0,0.0,0.0,0.0,0.0,0.0,0.0,0.0,0.0,0.0,0.0,0.0,0.0,0.0,0.0,0.0,0.0,0.0,0.0,0.0,0.0,0.0,0.0,0.0,0.0,0.0,0.0,0.0,0.0,0.0,0.0,0.0,-1.4081,-1.5717,-1.4474,-1.3634,0.0,0.0,0.0,0.0,0.0,0.0,0.0,0.0,0.0,0.0,0.0,0.0,0.0,0.0,0.0,0.0,0.0,0.0,0.0,0.0,0.0,0.0,0.0,0.0,0.0,0.0,0.0,0.0,0.0,0.0,0.0,0.0,0.0,0.0,0.0,0.0,0.0,0.0,0.0,0.0,0.0,0.0,0.0,0.0,0.0,0.0,0.0,0.0,0.0,0.0,0.0,0.0,0.0,0.0,0.0,0.0,0.0,0.0,0.0,0.0,0.0,0.0,0.0,0.0,0.0,0.0,0.0,0.0,0.0,0.0,0.0,0.0,0.0,0.0,0.0,0.0,0.0,0.0,0.0,0.0,0.0,0.0,0.0,0.0,0.0,0.0,0.0,0.0,0.0,0.0,0.0,0.0,0.0,0.0,0.0,0.0,0.0,0.0,0.0,0.0,0.0,0.0,0.0,0.0,0.0,0.0,0.0,0.0,0.0,0.0,-1.3414,0.0,-1.5527,-1.4578,-1.3676,-1.2993,0.0,0.0,0.0,0.0,0.0,0.0,0.0,0.0,0.0,0.0,0.0,0.0,0.0,0.0,0.0,0.0,0.0,0.0,0.0,0.0,0.0,0.0,0.0,0.0,0.0,0.0,0.0,0.0,0.0,0.0,0.0,0.0,0.0,0.0,0.0,0.0,0.0,0.0,0.0,0.0,0.0,0.0,0.0,0.0,0.0,0.0,0.0,0.0,0.0,0.0,0.0,0.0,0.0,0.0,0.0,0.0,0.0,0.0,0.0,0.0,0.0,0.0,0.0,0.0,0.0,0.0,0.0,0.0,0.0,0.0,0.0,0.0,0.0,0.0,0.0,0.0,0.0,0.0,0.0,0.0,0.0,0.0,0.0,0.0,0.0,0.0,0.0,0.0,0.0,0.0,0.0,0.0,0.0,0.0,0.0,0.0,0.0,0.0,0.0,0.0,0.0,0.0,0.0,0.0,0.0,0.0,0.0,0.0,0.0,-1.3679,-1.407,-1.5674,-1.5625,-1.4505,0.0,0.0,0.0,0.0,0.0,0.0,0.0,0.0,0.0,0.0,0.0,0.0,0.0,0.0,0.0,0.0,0.0,0.0,0.0,0.0,0.0,0.0,0.0,0.0,0.0,0.0,0.0,0.0,0.0,0.0,0.0,0.0,0.0,0.0,0.0,0.0,0.0,0.0,0.0,0.0,0.0,0.0,0.0,0.0,0.0,0.0,0.0,0.0,0.0,0.0,0.0,0.0,0.0,0.0,0.0,0.0,0.0,0.0,0.0,0.0,0.0,0.0,0.0,0.0,0.0,0.0,0.0,0.0,0.0,0.0,0.0,0.0,0.0,0.0,0.0,0.0,0.0,0.0,0.0,0.0,0.0,0.0,0.0,0.0,0.0,0.0,0.0,0.0,0.0,0.0,0.0,0.0,0.0,0.0,0.0,0.0,0.0,0.0,0.0,0.0,0.0,0.0,0.0,0.0,0.0,0.0,0.0,0.0,0.0,-1.2122,-1.2908,-1.4566,-1.7032,-1.4762,-1.3453,0.0,0.0,0.0,0.0,0.0,0.0,0.0,0.0,0.0,0.0,0.0,0.0,0.0,0.0,0.0,0.0,0.0,0.0,0.0,0.0,0.0,0.0,0.0,0.0,0.0,0.0,0.0,0.0,0.0,0.0,0.0,0.0,0.0,0.0,0.0,0.0,0.0,0.0,0.0,0.0,0.0,0.0,0.0,0.0,0.0,0.0,0.0,0.0,0.0,0.0,0.0,0.0,0.0,0.0,0.0,0.0,0.0,0.0,0.0,0.0,0.0,0.0,0.0,0.0,0.0,0.0,0.0,0.0,0.0,0.0,0.0,0.0,0.0,0.0,0.0,0.0,0.0,0.0,0.0,0.0,0.0,0.0,0.0,0.0,0.0,0.0,0.0,0.0,0.0,0.0,0.0,0.0,0.0,0.0,0.0,0.0,0.0,0.0,0.0,0.0,0.0,0.0,0.0,0.0,0.0,0.0,0.0,0.0,0.0,-1.2049,0.0,-1.5398,0.0,-1.4444,-1.3007,0.0,0.0,0.0,0.0,0.0,0.0,0.0,0.0,0.0,0.0,0.0,0.0,0.0,0.0,0.0,0.0,0.0,0.0,0.0,0.0,0.0,0.0,0.0,0.0,0.0,0.0,0.0,0.0,0.0,0.0,0.0,0.0,0.0,0.0,0.0,0.0,0.0,0.0,0.0,0.0,0.0,0.0,0.0,0.0,0.0,0.0,0.0,0.0,0.0,0.0,0.0,0.0,0.0,0.0,0.0,0.0,0.0,0.0,0.0,0.0,0.0,0.0,0.0,0.0,0.0,0.0,0.0,0.0,0.0,0.0,0.0,0.0,0.0,0.0,0.0,0.0,0.0,0.0,0.0,0.0,0.0,0.0,0.0,0.0,0.0,0.0,0.0,0.0,0.0,0.0,0.0,0.0,0.0,0.0,0.0,0.0,0.0,0.0,0.0,0.0,0.0,0.0,0.0,0.0,0.0,0.0,0.0,0.0,-1.2122,-1.4378,-1.5955,-1.6468,-1.5766,-1.4903,-1.3369,0.0,0.0,0.0,0.0,0.0,0.0,0.0,0.0,0.0,0.0,0.0,0.0,0.0,0.0,0.0,0.0,0.0,0.0,0.0,0.0,0.0,0.0,0.0,0.0,0.0,0.0,0.0,0.0,0.0,0.0,0.0,0.0,0.0,0.0,0.0,0.0,0.0,0.0,0.0,0.0,0.0,0.0,0.0,0.0,0.0,0.0,0.0,0.0,0.0,0.0,0.0,0.0,0.0,0.0,0.0,0.0,0.0,0.0,0.0,0.0,0.0,0.0,0.0,0.0,0.0,0.0,0.0,0.0,0.0,0.0,0.0,0.0,0.0,0.0,0.0,0.0,0.0,0.0,0.0,0.0,0.0,0.0,0.0,0.0,0.0,0.0,0.0,0.0,0.0,0.0,0.0,0.0,0.0,0.0,0.0,0.0,0.0,0.0,0.0,0.0,0.0,0.0,0.0,0.0,0.0,0.0,0.0,0.0,0.0,-1.4506,-1.5545,-1.6757,-1.8012,-1.5239,-1.4114,0.0,0.0,0.0,0.0,0.0,0.0,0.0,0.0,0.0,0.0,0.0,0.0,0.0,0.0,0.0,0.0,0.0,0.0,0.0,0.0,0.0,0.0,0.0,0.0,0.0,0.0,0.0,0.0,0.0,0.0,0.0,0.0,0.0,0.0,0.0,0.0,0.0,0.0,0.0,0.0,0.0,0.0,0.0,0.0,0.0,0.0,0.0,0.0,0.0,0.0,0.0,0.0,0.0,0.0,0.0,0.0,0.0,0.0,0.0,0.0,0.0,0.0,0.0,0.0,0.0,0.0,0.0,0.0,0.0,0.0,0.0,0.0,0.0,0.0,0.0,0.0,0.0,0.0,0.0,0.0,0.0,0.0,0.0,0.0,0.0,0.0,0.0,0.0,0.0,0.0,0.0,0.0,0.0,0.0,0.0,0.0,0.0,0.0,0.0,0.0,0.0,0.0,0.0,0.0,0.0,0.0,0.0,0.0,0.0,-1.6805,-1.7546,-1.8397,-1.926,-1.6261,-1.5062,-1.5881,0.0,0.0,0.0,0.0,0.0,0.0,0.0,0.0,0.0,0.0,0.0,0.0,0.0,0.0,0.0,0.0,0.0,0.0,0.0,0.0,0.0,0.0,0.0,0.0,0.0,0.0,0.0,0.0,0.0,0.0,0.0,0.0,0.0,0.0,0.0,0.0,0.0,0.0,0.0,0.0,0.0,0.0,0.0,0.0,0.0,0.0,0.0,0.0,0.0,0.0,0.0,0.0,0.0,0.0,0.0,0.0,0.0,0.0,0.0,0.0,0.0,0.0,0.0,0.0,0.0,0.0,0.0,0.0,0.0,0.0,0.0,0.0,0.0,0.0,0.0,0.0,0.0,0.0,0.0,0.0,0.0,0.0,0.0,0.0,0.0,0.0,0.0,0.0,0.0,0.0,0.0,0.0,0.0,0.0,0.0,0.0,0.0,0.0,0.0,0.0,0.0,0.0,0.0,0.0,0.0,0.0,0.0,0.0,-2.0639,-2.1584,-2.1243,-1.9591,-1.7961,-1.634,0.0,0.0,0.0,0.0,0.0,0.0,0.0,0.0,0.0,0.0,0.0,0.0,0.0,0.0,0.0,0.0,0.0,0.0,0.0,0.0,0.0,0.0,0.0,0.0,0.0,0.0,0.0,0.0,0.0,0.0,0.0,0.0,0.0,0.0,0.0,0.0,0.0,0.0,0.0,0.0,0.0,0.0,0.0,0.0,0.0,0.0,0.0,0.0,0.0,0.0,0.0,0.0,0.0,0.0,0.0,0.0,0.0,0.0,0.0,0.0,0.0,0.0,0.0,0.0,0.0,0.0,0.0,0.0,0.0,0.0,0.0,0.0,0.0,0.0,0.0,0.0,0.0,0.0,0.0,0.0,0.0,0.0,0.0,0.0,0.0,0.0,0.0,0.0,0.0,0.0,0.0,0.0,0.0,0.0,0.0,0.0,0.0,0.0,0.0,0.0,0.0,0.0,0.0,0.0,0.0,0.0,0.0,0.0,0.0,-2.2345,-2.4308,-2.43,-2.2116,-2.0419,-1.8797,0.0,0.0,0.0,0.0,0.0,0.0,0.0,0.0,0.0,0.0,0.0,0.0,0.0,0.0,0.0,0.0,0.0,0.0,0.0,0.0,0.0,0.0,0.0,0.0,0.0,0.0,0.0,0.0,0.0,0.0,0.0,0.0,0.0,0.0,0.0,0.0,0.0,0.0,0.0,0.0,0.0,0.0,0.0,0.0,0.0,0.0,0.0,0.0,0.0,0.0,0.0,0.0,0.0,0.0,0.0,0.0,0.0,0.0,0.0,0.0,0.0,0.0,0.0,0.0,0.0,0.0,0.0,0.0,0.0,0.0,0.0,0.0,0.0,0.0,0.0,0.0,0.0,0.0,0.0,0.0,0.0,0.0,0.0,0.0,0.0,0.0,0.0,0.0,0.0,0.0,0.0,0.0,0.0,0.0,0.0,0.0,0.0,0.0,0.0,0.0,0.0,0.0,0.0,0.0,0.0,0.0,0.0,0.0,-2.2024,-2.3969,-2.6043,-2.6282,-2.4547,-2.2602,-2.0629,0.0,0.0,0.0,0.0,0.0,0.0,0.0,0.0,0.0,0.0,0.0,0.0,0.0,0.0,0.0,0.0,0.0,0.0,0.0,0.0,0.0,0.0,0.0,0.0,0.0,0.0,0.0,0.0,0.0,0.0,0.0,0.0,0.0,0.0,0.0,0.0,0.0,0.0,0.0,0.0,0.0,0.0,0.0,0.0,0.0,0.0,0.0,0.0,0.0,0.0,0.0,0.0,0.0,0.0,0.0,0.0,0.0,0.0,0.0,0.0,0.0,0.0,0.0,0.0,0.0,0.0,0.0,0.0,0.0,0.0,0.0,0.0,0.0,0.0,0.0,0.0,0.0,0.0,0.0,0.0,0.0,0.0,0.0,0.0,0.0,0.0,0.0,0.0,0.0,0.0,0.0,0.0,0.0,0.0,0.0,0.0,0.0,0.0,0.0,0.0,0.0,0.0,0.0,0.0,0.0,0.0,0.0,0.0,-2.3006,-2.5307,-2.7013,-2.7497,-2.6693,-2.4483,-2.2042,0.0,0.0,0.0,0.0,0.0,0.0,0.0,0.0,0.0,0.0,0.0,0.0,0.0,0.0,0.0,0.0,0.0,0.0,0.0,0.0,0.0,0.0,0.0,0.0,0.0,0.0,0.0,0.0,0.0,0.0,0.0,0.0,0.0,0.0,0.0,0.0,0.0,0.0,0.0,0.0,0.0,0.0,0.0,0.0,0.0,0.0,0.0,0.0,0.0,0.0,0.0,0.0,0.0,0.0,0.0,0.0,0.0,0.0,0.0,0.0,0.0,0.0,0.0,0.0,0.0,0.0,0.0,0.0,0.0,0.0,0.0,0.0,0.0,0.0,0.0,0.0,0.0,0.0,0.0,0.0,0.0,0.0,0.0,0.0,0.0,0.0,0.0,0.0,0.0,0.0,0.0,0.0,0.0,0.0,0.0,0.0,0.0,0.0,0.0,0.0,0.0,0.0,0.0,0.0,0.0,0.0,0.0,0.0,-2.3228,-2.5049,-2.7276,-2.8141,-2.7567,-2.5815,-2.3437,0.0,0.0,0.0,0.0,0.0,0.0,0.0,0.0,0.0,0.0,0.0,0.0,0.0,0.0,0.0,0.0,0.0,0.0,0.0,0.0,0.0,0.0,0.0,0.0,0.0,0.0,0.0,0.0,0.0,0.0,0.0,0.0,0.0,0.0,0.0,0.0,0.0,0.0,0.0,0.0,0.0,0.0,0.0,0.0,0.0,0.0,0.0,0.0,-0.6222,0.0,0.0,0.0,0.0,0.0,0.0,0.0,0.0,0.0,0.0,0.0,0.0,0.0,0.0,0.0,0.0,0.0,0.0,0.0,0.0,0.0,0.0,0.0,0.0,0.0,0.0,0.0,0.0,0.0,0.0,0.0,0.0,0.0,0.0,0.0,0.0,0.0,0.0,0.0,0.0,0.0,0.0,0.0,0.0,0.0,0.0,0.0,0.0,0.0,0.0,0.0,0.0,0.0,0.0,0.0,0.0,0.0,0.0,0.0,-2.448,-2.6113,-2.7864,-2.865,-2.8326,-2.6814,-2.463,0.0,0.0,0.0,0.0,0.0,0.0,0.0,0.0,0.0,0.0,0.0,0.0,0.0,0.0,0.0,0.0,0.0,0.0,0.0,0.0,0.0,0.0,0.0,0.0,0.0,0.0,0.0,0.0,0.0,0.0,0.0,0.0,0.0,0.0,0.0,0.0,0.0,0.0,0.0,0.0,0.0,0.0,0.0,0.0,0.0,0.0,0.0,0.0,0.0,0.0,0.0,0.0,0.0,0.0,0.0,0.0,0.0,0.0,0.0,0.0,0.0,0.0,0.0,0.0,0.0,0.0,0.0,0.0,0.0,0.0,0.0,0.0,0.0,0.0,0.0,0.0,0.0,0.0,0.0,0.0,0.0,0.0,0.0,0.0,0.0,0.0,0.0,0.0,0.0,0.0,0.0,0.0,0.0,0.0,0.0,0.0,0.0,0.0,0.0,0.0,0.0,0.0,0.0,0.0,0.0,0.0,0.0,-2.2963,-2.5608,-2.7327,-2.8402,-2.894,-2.8987,-2.7446,-2.5529,-2.3244,0.0,0.0,0.0,0.0,0.0,0.0,0.0,0.0,0.0,0.0,0.0,0.0,0.0,0.0,0.0,0.0,0.0,0.0,0.0,0.0,0.0,0.0,0.0,0.0,0.0,0.0,0.0,0.0,0.0,0.0,0.0,0.0,0.0,0.0,0.0,0.0,0.0,0.0,-0.5941,-0.7997,0.0,0.0,0.0,0.0,0.0,0.0,0.0,0.0,-0.8068,0.0,0.0,0.0,0.0,0.0,0.0,0.0,0.0,0.0,0.0,0.0,0.0,0.0,0.0,0.0,0.0,0.0,0.0,0.0,0.0,0.0,0.0,0.0,0.0,0.0,0.0,0.0,0.0,0.0,0.0,0.0,0.0,0.0,0.0,0.0,0.0,0.0,0.0,0.0,0.0,0.0,0.0,0.0,0.0,0.0,0.0,0.0,0.0,0.0,0.0,0.0,0.0,0.0,0.0,0.0,0.0,-2.1927,-2.3088,-2.4864,-2.7338,-2.8221,-2.8779,-2.8938,-2.7427,-2.5776,-2.4006,0.0,0.0,0.0,0.0,0.0,0.0,0.0,0.0,0.0,0.0,0.0,0.0,0.0,0.0,0.0,0.0,0.0,0.0,0.0,0.0,0.0,0.0,0.0,0.0,0.0,0.0,0.0,0.0,0.0,0.0,0.0,0.0,0.0,0.0,0.0,0.0,0.0,0.0,0.0,-0.9991,-1.1355,0.0,0.0,0.0,0.0,0.0,0.0,0.0,0.0,-0.8378,0.0,0.0,0.0,0.0,0.0,0.0,0.0,0.0,0.0,0.0,0.0,0.0,0.0,0.0,0.0,0.0,0.0,0.0,0.0,0.0,0.0,0.0,0.0,0.0,0.0,0.0,0.0,0.0,0.0,0.0,0.0,0.0,0.0,0.0,0.0,0.0,0.0,0.0,0.0,0.0,0.0,0.0,0.0,0.0,0.0,0.0,0.0,0.0,0.0,0.0,0.0,0.0,0.0,0.0,0.0,-2.1596,-2.3635,-2.5586,-2.7491,-2.8232,-2.8669,-2.8743,-2.6969,-2.5419,0.0,0.0,0.0,0.0,0.0,0.0,0.0,0.0,0.0,0.0,0.0,0.0,0.0,0.0,0.0,0.0,0.0,0.0,0.0,0.0,0.0,0.0,0.0,0.0,0.0,0.0,0.0,0.0,0.0,0.0,0.0,0.0,0.0,0.0,0.0,0.0,0.0,0.0,0.0,0.0,-1.1419,-1.2175,-1.186,0.0,0.0,0.0,0.0,0.0,0.0,-0.9646,-0.9044,0.0,0.0,0.0,0.0,0.0,0.0,0.0,0.0,0.0,0.0,0.0,0.0,0.0,0.0,0.0,0.0,0.0,0.0,0.0,0.0,0.0,0.0,0.0,0.0,0.0,0.0,0.0,0.0,0.0,0.0,0.0,0.0,0.0,0.0,0.0,0.0,0.0,0.0,0.0,0.0,0.0,0.0,0.0,0.0,0.0,0.0,0.0,0.0,0.0,0.0,0.0,0.0,0.0,0.0,0.0,-2.1326,-2.4188,-2.642,-2.7897,-2.8417,-2.8682,-2.8645,-2.6699,-2.5191,0.0,0.0,0.0,0.0,0.0,0.0,0.0,0.0,0.0,0.0,0.0,0.0,0.0,0.0,0.0,0.0,0.0,0.0,0.0,0.0,0.0,0.0,0.0,0.0,0.0,0.0,0.0,0.0,0.0,0.0,0.0,0.0,0.0,0.0,0.0,0.0,0.0,0.0,0.0,0.0,0.0,-1.3015,-1.3159,-1.2931,0.0,0.0,0.0,0.0,-1.1601,-1.119,0.0,0.0,0.0,0.0,0.0,0.0,0.0,0.0,0.0,0.0,0.0,0.0,0.0,0.0,0.0,0.0,0.0,0.0,0.0,0.0,0.0,0.0,0.0,0.0,0.0,0.0,0.0,0.0,0.0,0.0,0.0,0.0,0.0,0.0,0.0,0.0,0.0,0.0,0.0,0.0,0.0,0.0,0.0,0.0,0.0,0.0,0.0,0.0,0.0,0.0,0.0,0.0,0.0,0.0,0.0,0.0,-2.2602,-2.4361,-2.6361,-2.8712,-2.8905,-2.894,-2.8922,-2.7325,-2.575,0.0,0.0,0.0,0.0,0.0,0.0,0.0,0.0,0.0,0.0,0.0,0.0,0.0,0.0,0.0,0.0,0.0,0.0,0.0,0.0,0.0,0.0,0.0,0.0,0.0,0.0,0.0,0.0,0.0,0.0,0.0,0.0,0.0,0.0,0.0,0.0,0.0,0.0,0.0,0.0,0.0,-1.4539,-1.2684,-1.3472,-1.3988,0.0,0.0,-1.3861,-1.3235,-1.3616,0.0,0.0,0.0,0.0,0.0,0.0,0.0,0.0,0.0,0.0,0.0,0.0,0.0,0.0,0.0,0.0,0.0,0.0,0.0,0.0,0.0,0.0,0.0,0.0,0.0,0.0,0.0,0.0,0.0,0.0,0.0,0.0,0.0,0.0,0.0,0.0,0.0,0.0,0.0,0.0,0.0,0.0,0.0,0.0,0.0,0.0,0.0,0.0,0.0,0.0,0.0,0.0,0.0,0.0,0.0,-1.8848,-2.2616,-2.4671,-2.659,-2.8417,-2.8676,-2.8767,-2.8785,-2.6922,-2.5144,0.0,0.0,0.0,0.0,0.0,0.0,0.0,0.0,0.0,0.0,0.0,0.0,0.0,0.0,0.0,0.0,0.0,0.0,0.0,0.0,0.0,0.0,0.0,0.0,0.0,0.0,0.0,0.0,0.0,0.0,0.0,0.0,0.0,0.0,0.0,0.0,0.0,0.0,0.0,0.0,0.0,0.0,-1.4599,-1.4903,0.0,0.0,0.0,-1.502,-1.4691,0.0,0.0,0.0,0.0,0.0,0.0,0.0,0.0,0.0,0.0,0.0,0.0,0.0,0.0,0.0,0.0,0.0,0.0,0.0,0.0,0.0,0.0,0.0,0.0,0.0,0.0,0.0,0.0,0.0,0.0,0.0,0.0,0.0,0.0,0.0,0.0,0.0,0.0,0.0,0.0,0.0,0.0,0.0,0.0,0.0,0.0,0.0,0.0,0.0,0.0,0.0,0.0,0.0,0.0,0.0,0.0,0.0,-2.2805,-2.5085,-2.691,-2.8275,-2.8558,-2.8688,-2.8652,-2.6545,0.0,0.0,0.0,0.0,0.0,0.0,0.0,0.0,0.0,0.0,0.0,0.0,0.0,0.0,0.0,0.0,0.0,0.0,0.0,0.0,0.0,0.0,0.0,0.0,0.0,0.0,0.0,-0.4494,0.0,0.0,0.0,0.0,0.0,0.0,0.0,0.0,0.0,0.0,0.0,0.0,0.0,0.0,-1.5071,-1.5849,-1.59,-1.5967,0.0,0.0,-1.6086,-1.591,-1.5561,-1.4706,0.0,0.0,0.0,0.0,0.0,0.0,0.0,0.0,0.0,0.0,0.0,0.0,0.0,0.0,0.0,0.0,0.0,0.0,0.0,0.0,0.0,0.0,0.0,0.0,0.0,0.0,0.0,0.0,0.0,0.0,0.0,0.0,0.0,0.0,0.0,0.0,0.0,0.0,0.0,0.0,0.0,0.0,0.0,0.0,0.0,0.0,0.0,0.0,0.0,0.0,0.0,0.0,0.0,0.0,0.0,-2.3694,-2.5617,-2.7339,-2.8867,-2.8952,-2.8982,-2.8927,-2.6649,-2.4658,0.0,0.0,0.0,0.0,0.0,0.0,0.0,0.0,0.0,0.0,0.0,0.0,0.0,0.0,0.0,0.0,0.0,0.0,0.0,0.0,0.0,0.0,0.0,0.0,0.0,0.0,0.0,0.0,0.0,0.0,0.0,0.0,0.0,0.0,0.0,0.0,0.0,0.0,0.0,0.0,0.0,-1.5419,-1.5063,-1.5927,-1.6553,0.0,0.0,-1.7422,-1.6739,-1.7151,-1.661,-1.3777,0.0,0.0,0.0,0.0,0.0,0.0,0.0,0.0,0.0,0.0,0.0,0.0,0.0,0.0,0.0,0.0,0.0,0.0,0.0,0.0,0.0,0.0,0.0,0.0,0.0,0.0,0.0,0.0,0.0,0.0,0.0,0.0,0.0,0.0,0.0,0.0,0.0,0.0,0.0,0.0,0.0,0.0,0.0,0.0,0.0,0.0,0.0,0.0,0.0,0.0,0.0,0.0,0.0,-1.9261,-2.4001,-2.5727,-2.7372,-2.8913,-2.8987,-2.8987,-2.8987,-2.7134,-2.5162,0.0,0.0,0.0,0.0,0.0,0.0,0.0,0.0,0.0,0.0,0.0,0.0,0.0,0.0,0.0,0.0,0.0,0.0,0.0,0.0,0.0,0.0,0.0,0.0,0.0,0.0,0.0,0.0,-0.5849,-0.5681,-0.5236,0.0,0.0,0.0,0.0,0.0,0.0,0.0,0.0,0.0,0.0,-1.6384,-1.6644,-1.7084,0.0,0.0,-1.7546,-1.771,-1.7422,-1.7236,-1.6434,-1.4394,-1.3709,0.0,0.0,0.0,0.0,0.0,0.0,0.0,0.0,0.0,0.0,0.0,0.0,0.0,0.0,0.0,0.0,0.0,0.0,0.0,0.0,0.0,0.0,0.0,0.0,0.0,0.0,0.0,0.0,0.0,0.0,0.0,0.0,0.0,0.0,0.0,0.0,0.0,0.0,0.0,0.0,0.0,0.0,0.0,0.0,0.0,0.0,0.0,0.0,0.0,0.0,0.0,0.0,-1.9491,-2.3969,-2.5735,-2.7372,-2.8968,-2.8987,-2.8987,-2.895,-2.72,-2.5236,0.0,0.0,0.0,0.0,0.0,0.0,0.0,0.0,0.0,0.0,0.0,0.0,0.0,0.0,0.0,0.0,0.0,0.0,0.0,0.0,0.0,0.0,0.0,0.0,0.0,0.0,0.0,0.0,-0.6502,-0.6163,-0.5664,0.0,0.0,0.0,0.0,0.0,0.0,0.0,0.0,0.0,0.0,-1.6959,-1.7681,-1.7789,-1.7912,-1.82,-1.7997,-1.7884,-1.8087,-1.7687,-1.6857,-1.5409,0.0,0.0,0.0,0.0,0.0,0.0,0.0,0.0,0.0,0.0,0.0,0.0,0.0,0.0,0.0,0.0,0.0,0.0,0.0,0.0,0.0,0.0,0.0,0.0,0.0,0.0,0.0,-1.571,0.0,0.0,-1.4579,0.0,0.0,0.0,0.0,0.0,0.0,0.0,0.0,0.0,0.0,0.0,0.0,0.0,0.0,0.0,0.0,0.0,0.0,0.0,0.0,0.0,0.0,-1.9914,-2.3577,-2.5637,-2.7391,-2.8932,-2.8987,-2.8987,-2.895,-2.6704,-2.4677,-2.3024,0.0,0.0,0.0,0.0,0.0,0.0,0.0,0.0,0.0,0.0,0.0,0.0,0.0,0.0,0.0,0.0,0.0,0.0,0.0,0.0,0.0,0.0,0.0,0.0,0.0,0.0,-0.6783,-0.6061,-0.5664,0.0,0.0,0.0,0.0,0.0,0.0,0.0,0.0,0.0,0.0,-1.6214,-1.6976,-1.7698,-1.7805,-1.82,-1.9109,-1.8454,-1.8082,-1.8775,-1.8843,-1.8364,0.0,0.0,0.0,0.0,0.0,0.0,0.0,0.0,0.0,0.0,0.0,0.0,0.0,0.0,0.0,0.0,0.0,0.0,0.0,0.0,0.0,0.0,0.0,0.0,0.0,0.0,0.0,-1.9667,-1.8915,0.0,0.0,0.0,0.0,0.0,0.0,0.0,0.0,0.0,0.0,0.0,-2.3401,-2.4456,0.0,0.0,0.0,0.0,0.0,0.0,0.0,0.0,0.0,0.0,0.0,0.0,-2.0768,-2.4422,-2.641,-2.7915,-2.8968,-2.8987,-2.8987,-2.8987,-2.7695,-2.5485,-2.2299,0.0,0.0,0.0,0.0,0.0,0.0,0.0,0.0,0.0,0.0,0.0,0.0,0.0,0.0,0.0,0.0,0.0,0.0,0.0,0.0,0.0,0.0,0.0,0.0,0.0,-0.7747,0.0,0.0,0.0,0.0,0.0,0.0,0.0,0.0,0.0,0.0,0.0,-1.4665,-1.6147,-1.7382,-1.8234,-1.8504,-1.8949,-1.9376,0.0,0.0,0.0,0.0,0.0,0.0,0.0,0.0,0.0,0.0,0.0,0.0,0.0,0.0,-1.3704,-1.0662,-0.9149,-0.8462,-0.8862,0.0,0.0,0.0,0.0,0.0,0.0,0.0,0.0,0.0,0.0,0.0,0.0,0.0,0.0,-2.3144,0.0,-2.2309,0.0,0.0,0.0,0.0,0.0,0.0,0.0,0.0,-2.5401,-2.6429,-2.6686,-2.7732,-2.7658,0.0,-2.641,-2.4208,0.0,0.0,0.0,0.0,0.0,0.0,0.0,0.0,-2.1771,-2.4954,-2.6863,-2.8191,-2.895,-2.8987,-2.8987,-2.8968,-2.7677,-2.5613,-2.273,-2.0556,-1.8629,0.0,0.0,0.0,0.0,0.0,0.0,0.0,0.0,0.0,0.0,0.0,0.0,0.0,0.0,0.0,0.0,0.0,0.0,0.0,0.0,0.0,0.0,0.0,-0.871,0.0,0.0,0.0,0.0,0.0,0.0,0.0,0.0,0.0,-1.376,-1.4868,-1.6092,-1.7287,-1.8504,-1.9287,-1.9299,0.0,0.0,0.0,0.0,0.0,0.0,0.0,-1.9537,-1.9223,-1.8959,-1.8551,-1.7917,-1.7818,-1.7656,-1.7112,0.0,0.0,-1.266,-1.1142,-1.0484,-1.0887,-1.1306,-1.1715,-1.2108,-1.2729,-1.3193,0.0,0.0,0.0,0.0,0.0,0.0,0.0,0.0,-2.6869,-2.684,0.0,-2.5962,0.0,0.0,0.0,0.0,0.0,-2.442,0.0,0.0,-2.92,-2.9886,-2.9244,-2.9299,-2.9225,-2.9189,-2.9904,-2.8998,-2.6484,-2.1969,0.0,0.0,0.0,0.0,0.0,0.0,-2.2978,-2.5223,-2.6984,-2.8227,-2.9023,-2.9012,-2.8987,-2.895,-2.6704,-2.5099,-2.4226,-2.2657,-2.1023,-1.9352,-1.6954,0.0,0.0,0.0,0.0,0.0,0.0,0.0,0.0,0.0,0.0,0.0,0.0,0.0,0.0,0.0,0.0,0.0,0.0,0.0,0.0,-0.9624,0.0,0.0,0.0,0.0,0.0,0.0,0.0,0.0,0.0,0.0,-1.4808,-1.6498,-1.8115,-1.8826,0.0,0.0,0.0,0.0,-2.0369,-2.1123,-2.0572,-2.0369,-2.1123,-2.1107,-2.0753,-2.0088,0.0,0.0,-1.8628,-1.8828,-1.8912,-1.8049,-1.7866,-1.7405,-1.6062,-1.5149,-1.4688,-1.4691,-1.4631,-1.4781,-1.4827,-1.5095,-1.5589,-3.3421,0.0,0.0,0.0,0.0,-2.9934,-3.0797,-3.2546,-3.199,-3.1421,-3.084,-3.0026,0.0,0.0,0.0,0.0,0.0,0.0,-2.9005,-3.0913,-3.2192,-3.2931,-3.3303,-3.3922,-3.3587,-3.2449,-3.2651,-3.1531,-2.9182,-2.7787,-2.4924,-2.0794,0.0,0.0,0.0,0.0,-2.486,-2.7446,-2.8308,-2.9053,-2.9831,-2.9299,-2.8987,-2.8987,-2.7226,-2.5878,-2.5081,-2.3511,-2.162,-1.9407,-1.8064,0.0,0.0,0.0,0.0,0.0,0.0,0.0,0.0,0.0,0.0,0.0,0.0,0.0,0.0,0.0,0.0,0.0,0.0,0.0,-1.0412,-1.1211,-1.1478,0.0,0.0,0.0,0.0,0.0,0.0,0.0,0.0,0.0,-1.7523,-1.8183,-1.8848,0.0,0.0,-2.0839,-2.0856,-2.1299,-2.1721,-2.1955,-2.1789,0.0,-2.1955,-2.1502,-2.1194,-2.1371,-2.1464,-2.1334,-2.0846,-2.0346,-1.9894,-1.9609,-1.8986,-1.8299,-1.7698,-1.6628,-1.5868,-1.5569,-1.5514,-1.5514,-1.5544,-1.5694,-1.5829,-3.8982,-3.5624,-3.4541,-3.4234,-3.4504,-3.4009,-3.4816,-3.6417,-3.5605,-3.5165,-3.4949,-3.3825,-3.2339,-3.0577,-2.9145,0.0,0.0,0.0,-3.1849,-3.3573,-3.4412,-3.5055,-3.5536,-3.6064,-3.5771,-3.4816,-3.4798,-3.3697,-3.1641,-3.1641,-2.942,-2.5217,0.0,0.0,-2.5142,-2.5468,-2.6805,-2.9132,-2.9716,-3.0032,-3.0173,-2.9409,-2.8987,-2.895,-2.7427,-2.6374,-2.5878,-2.4337,-2.263,-2.0849,-1.9656,-1.8108,0.0,0.0,0.0,0.0,0.0,0.0,0.0,0.0,0.0,0.0,0.0,-1.0858,0.0,0.0,0.0,0.0,-1.0057,-1.1358,-1.2803,-1.3354,0.0,0.0,0.0,0.0,0.0,0.0,0.0,-1.6779,-1.7839,-1.8821,-1.9701,-2.0073,-2.0314,-2.045,-2.1143,-2.1647,-2.1634,0.0,-2.2784,-2.2885,-2.3054,-2.3057,-2.2741,-2.2319,-2.204,-2.1967,-2.1899,-2.1825,-2.1796,-2.1282,-2.09,-2.0821,-2.0407,-1.9894,-1.9561,-1.8699,-1.7726,-1.6774,-1.6533,-1.6563,-1.6563,-1.6563,-1.6488,-4.3846,-4.2176,-3.8505,-3.7345,-3.786,-3.7823,-3.8212,-3.8817,-3.8102,-3.8208,-3.8781,-3.7276,-3.6064,-3.5059,-3.2816,0.0,-3.3023,-3.377,-3.4527,-3.5334,-3.6138,-3.6486,-3.6486,-3.6505,-3.6468,-3.6395,-3.6395,-3.5569,-3.4045,-3.399,-3.2834,-3.0577,-2.8308,-2.7813,-2.8987,-2.8356,-2.8778,-3.0375,-3.1035,-3.1011,-3.021,-2.9464,-2.9042,-2.8877,-2.7409,-2.6565,-2.6465,-2.4942,-2.3749,-2.2896,-2.1428,-1.9869,-1.8199,0.0,0.0,0.0,0.0,0.0,0.0,0.0,0.0,0.0,0.0,0.0,0.0,0.0,0.0,0.0,-1.2584,0.0,-1.5487,-1.5656,0.0,0.0,0.0,-1.5815,-1.5933,-1.7157,-1.8256,-1.8995,0.0,0.0,-2.136,-2.1955,-2.2158,-2.1546,-2.1989,-2.2364,-2.2313,-2.297,-2.3594,-2.3851,-2.4222,-2.4208,-2.3491,-2.3242,-2.2845,-2.2059,-2.1882,-2.1853,-2.1827,-2.1781,-2.1781,-2.1733,-2.1781,-2.1628,-2.134,-2.0863,-2.0236,-1.8256,-1.7805,-1.7742,-1.7728,-1.7654,-1.7429,-4.4471,-4.4049,-4.3112,-4.2121,-4.1111,-4.0506,-4.0343,-4.0508,-4.0322,-4.0359,-4.0453,-3.9478,-3.8248,-3.6835,-3.5661,-3.5583,-3.6354,-3.6538,-3.7037,-3.7793,-3.8028,-3.812,-3.8138,-3.8138,-3.7808,-3.7235,-3.7235,-3.6703,-3.5734,-3.5716,-3.5073,-3.3867,-3.2669,-3.1366,-2.9971,-2.9732,-3.043,-3.1995,-3.1604,-3.1017,-3.0228,-3.0008,-2.9347,-2.8099,-2.7126,-2.63,-2.5686,-2.4135,-2.2923,-2.2134,-2.1702,-2.0747,-1.9077,-1.6952,0.0,0.0,0.0,0.0,0.0,0.0,0.0,0.0,0.0,-1.3425,-1.1331,0.0,-1.308,0.0,-1.499,-1.5835,-1.5639,-1.6096,0.0,0.0,-1.7185,-1.7715,-1.8819,-1.927,-1.979,-2.0564,-2.0987,-2.163,-2.2747,-2.3021,-2.3274,-2.3644,-2.3359,-2.2936,-2.2446,-2.3427,-2.4375,-2.4687,-2.4602,-2.4302,-2.4022,-2.3457,-2.2825,-2.203,-2.1855,-2.1811,-2.1796,-2.1781,-2.1781,-2.1781,-2.1781,-2.1661,-2.1356,-2.123,-2.0814,-1.9811,-1.8995,-1.8446,-1.8463,-1.8072,-1.7669,-4.5755,-4.57,-4.5002,-4.4397,-4.3864,-4.3424,-4.3021,-4.2673,-4.2323,-4.1957,-4.1572,-4.0799,-3.9937,-3.9074,-3.8634,-3.867,-3.9056,-3.8707,-3.8814,-3.9203,-3.8872,-3.8707,-3.8707,-3.8707,-3.8469,-3.8043,-3.8043,-3.7621,-3.6868,-3.6835,-3.6413,-3.5573,-3.4747,-3.3665,-3.2344,-3.1629,-3.1898,-3.3109,-3.2339,-3.1549,-3.076,-3.0375,-2.9439,-2.786,-2.7016,-2.641,-2.5944,-2.4392,-2.3327,-2.2868,-2.2198,-2.139,-2.0435,-1.8519,-1.7146,0.0,0.0,0.0,0.0,0.0,0.0,0.0,0.0,0.0,0.0,0.0,-1.4985,-1.5896,-1.6722,-1.7287,-1.754,-1.8245,-1.8719,-1.878,-1.9406,-1.9997,-2.05,-2.0826,-2.1316,-2.2087,-2.2189,-2.2612,-2.3729,-2.3883,-2.4017,-2.444,-2.444,-2.4189,-2.374,-2.438,-2.5107,-2.5581,-2.5497,-2.5162,-2.4762,-2.3729,-2.2849,-2.2465,-2.2086,-2.1825,-2.1796,-2.1781,-2.1781,-2.1781,-2.1781,-2.1753,-2.154,-2.1262,-2.0942,-2.05,-1.976,-1.9204,-1.9136,-1.8852,-1.8538,-4.715,-4.704,-4.5608,-4.5351,-4.592,-4.6122,-4.5645,-4.4672,-4.4085,-4.3351,-4.2561,-4.1645,-4.1242,-4.1242,-4.1132,-4.1113,-4.1058,-4.0377,-4.0008,-3.9861,-3.9166,-3.8817,-3.8707,-3.8707,-3.8707,-3.8707,-3.8707,-3.834,-3.7658,-3.7658,-3.7239,-3.6431,-3.5587,-3.5114,-3.4949,-3.35,-3.3109,-3.377,-3.3096,-3.232,-3.1415,-3.0723,-2.9494,-2.7732,-2.7071,-2.6602,-2.6272,-2.4942,-2.4135,-2.4006,-2.2822,-2.2051,-2.1923,-1.9913,-1.8812,0.0,-1.7009,0.0,0.0,0.0,0.0,0.0,0.0,0.0,0.0,-1.6157,-1.6952,-1.7862,-1.8205,-1.8814,-1.99,-2.072,-2.0957,-2.039,-2.1366,-2.1972,-2.1664,-2.2141,-2.2767,-2.346,-2.3528,-2.3814,-2.4525,-2.4643,-2.466,-2.4866,-2.5339,-2.5511,-2.5312,-2.5446,-2.5799,-2.6315,-2.6433,-2.5998,-2.528,-2.413,-2.33,-2.3116,-2.255,-2.2036,-2.1995,-2.1864,-2.1781,-2.1781,-2.1781,-2.1797,-2.1781,-2.1324,-2.0942,-2.086,-2.0362,-1.9899,-1.9776,-1.9725,-1.9569,-4.7505,-4.747,-4.6893,-4.636,-4.6012,-4.7278,-4.6654,-4.4745,-4.5223,-4.5002,-4.4158,-4.2727,-4.2066,-4.2029,-4.1389,-4.1113,-4.1077,-4.093,-4.0524,-3.9882,-3.9735,-3.9331,-3.8707,-3.8707,-3.8707,-3.8707,-3.8707,-3.8634,-3.8469,-3.8469,-3.8065,-3.7272,-3.645,-3.5701,-3.4986,0.0,0.0,0.0,-3.3642,-3.2871,-3.147,-3.1268,-2.9769,-2.6998,-2.7328,0.0,-2.4777,-2.4355,-2.3896,-2.3263,-2.3566,0.0,0.0,0.0,0.0,0.0,0.0,0.0,0.0,0.0,0.0,0.0,-1.8155,-1.7926,-1.7545,-1.9137,-1.9772,-1.8843,-2.0352,-2.1045,-2.0086,-2.072,-2.1363,-2.182,-2.1414,-2.1786,-2.356,-2.3661,-2.3729,-2.422,-2.4288,-2.4575,-2.5253,-2.5406,-2.5593,-2.605,-2.6303,-2.632,-2.6081,-2.6201,-2.6352,-2.6276,-2.6257,-2.5991,-2.5261,-2.4862,-2.4381,-2.3917,-2.3204,-2.2757,-2.2658,-2.2193,-2.1829,-2.1814,-2.1781,-2.1781,-2.1781,-2.1708,-2.1463,-2.1246,-2.1071,-2.0812,-2.0241,-2.0104,-2.0074,-4.8429,0.0,-4.7822,-4.7348,0.0,-4.7271,-4.6666,-4.5595,-4.6213,-4.581,-4.4636,-4.3846,-4.3277,-4.2873,-4.2451,-4.2286,-4.2249,-4.1866,-4.1479,-4.1056,-4.0283,-3.968,-3.9276,-3.8891,-3.8707,-3.8707,-3.8707,-3.8707,-3.8707,-3.8707,-3.8487,-3.8083,-3.729,-3.6468,-3.561,-3.4412,-3.3807,-3.3807,-3.3807,-3.3201,-3.2045,-3.1604,-3.0246,-2.7904,-2.7402,0.0,0.0,0.0,0.0,0.0,0.0,0.0,0.0,0.0,0.0,-2.1347,-2.0543,-1.9773,-1.9054,-1.924,-1.9681,-2.0337,-2.0951,-2.0811,-1.9675,-2.023,-2.0602,-2.0619,-2.1651,-2.2127,-2.1769,-2.2375,-2.2967,-2.3291,-2.2716,-2.2917,-2.4203,-2.4492,-2.4628,-2.4966,-2.5033,-2.5321,-2.6048,-2.615,-2.6235,-2.6539,-2.6623,-2.652,-2.6348,-2.6383,-2.6365,-2.6221,-2.6185,-2.607,-2.5689,-2.5309,-2.5027,-2.4547,-2.3934,-2.3503,-2.3437,-2.294,-2.2492,-2.2376,-2.2077,-2.1797,-2.1766,-2.1661,-2.1495,-2.1324,-2.1167,-2.1039,-2.0746,-2.0614,-2.0413,-4.9375,-4.9318,-4.8615,-4.8243,-4.8025,-4.7258,-4.6799,-4.6624,0.0,0.0,0.0,-4.4764,-4.4268,-4.3497,-4.3479,-4.3479,-4.346,-4.28,-4.2433,-4.2231,-4.0928,-4.0175,-3.9879,-3.9221,-3.8836,-3.8707,-3.8707,-3.8707,-3.8707,-3.8707,-3.8707,-3.8634,-3.7881,-3.7033,-3.6028,-3.4559,-3.3807,-3.3807,-3.3807,-3.3403,-3.2601,-3.1806,-3.0632,-2.9042,-2.7721,-2.6895,-2.6602,-2.5456,-2.5071,-2.5558,-2.4483,-2.4098,-2.4575,-2.4125,-2.3814,-2.3761,-2.393,-2.3475,-2.2223,-2.2813,-2.2919,-2.2125,-2.307,-2.3039,-2.1525,-2.1042,-2.1316,-2.2584,-2.2699,-2.2936,-2.356,-2.4118,-2.4558,-2.466,-2.4321,-2.4254,-2.4829,-2.5203,-2.5559,-2.5761,-2.5795,-2.5998,-2.6573,-2.6657,-2.6657,-2.6606,-2.6589,-2.652,-2.6329,-2.6294,-2.6259,-2.6203,-2.6185,-2.6169,-2.6103,-2.5739,-2.5342,-2.5292,-2.4696,-2.4216,-2.4116,-2.3768,-2.337,-2.3123,-2.2394,-2.1945,-2.1932,-2.1716,-2.1402,-2.1387,-2.1183,-2.1071,-2.1293,-2.1166,-2.0861,-4.973,-4.9702,-4.9292,-4.8735,-4.8134,-4.8671,-4.8333,-4.7386,-4.6468,-4.5938,-4.57,-4.5002,-4.4268,-4.3479,-4.3479,-4.3479,-4.3479,-4.3369,-4.2947,-4.2304,-4.2066,-4.1222,-3.9918,-3.9787,-3.935,-3.8744,-3.8707,-3.8707,-3.8707,-3.8707,-3.8707,-3.8597,-3.7896,-3.6743,-3.5243,-3.4266,-3.3807,-3.3807,-3.3807,-3.3403,-3.2601,-3.1806,-3.0632,-2.9097,-2.8785,-2.7996,-2.6649,-2.7016,-2.7016,-2.6484,-2.6869,-2.6869,-2.6319,-2.6759,-2.6518,-2.5246,-2.5014,-2.4703,-2.4201,-2.4141,-2.4156,-2.4247,-2.4368,-2.3786,-2.2344,-2.3221,-2.3966,-2.4186,-2.4135,-2.422,-2.4338,-2.4474,-2.4846,-2.5338,-2.5187,-2.5372,-2.6184,-2.637,-2.6454,-2.6488,-2.6539,-2.6522,-2.6657,-2.6708,-2.6657,-2.6571,-2.652,-2.645,-2.6292,-2.6221,-2.6221,-2.6203,-2.6185,-2.6185,-2.6187,-2.6154,-2.597,-2.6036,-2.5407,-2.4944,-2.4944,-2.4448,-2.4,-2.3851,-2.2857,-2.2261,-2.2609,-2.218,-2.1856,-2.1759,-2.1667,-2.1648,-2.1676,-2.1631,-2.1494,-5.0063,-5.0051,-4.9916,-4.9635,-4.9237,-4.8564,-4.787,-4.714,-4.6003,-4.5418,-4.5204,-4.4838,-4.425,-4.3516,-4.3479,-4.3479,-4.3479,-4.3479,-4.3296,-4.2928,-4.2488,-4.1919,-4.1148,-4.0322,-3.9698,-3.9331,-3.8909,-3.8707,-3.8707,-3.8707,-3.8707,-3.8634,-3.7915,-3.6905,-3.572,-3.4876,-3.4229,-3.3825,-3.3807,-3.3623,-3.3225,-3.2467,-3.1494,-3.0338,-2.9482,-2.8455,-2.7291,-2.72,-2.6979,-2.662,-2.6961,-2.6979,-2.6649,-2.6961,-2.6742,-2.5903,-2.5725,-2.5585,-2.5326,-2.5216,-2.5116,-2.4988,-2.5316,-2.5118,-2.4186,-2.4323,-2.4491,-2.4525,-2.4846,-2.5101,-2.5118,-2.5439,-2.5828,-2.6167,-2.6082,-2.6201,-2.659,-2.6708,-2.6708,-2.6708,-2.6708,-2.6708,-2.6708,-2.6708,-2.6657,-2.6555,-2.6468,-2.6364,-2.6259,-2.6258,-2.6258,-2.6241,-2.6241,-2.6276,-2.6258,-2.6221,-2.6203,-2.6185,-2.5938,-2.5723,-2.5689,-2.5341,-2.5044,-2.4646,-2.3868,-2.3454,-2.3553,-2.2907,-2.2493,-2.2376,-2.2028,-2.1847,-2.1781,-2.1781,-2.1678,-5.0302,-5.0302,-5.0302,-5.0302,-5.0145,-4.8509,-4.7509,-4.6925,-4.5889,-4.5095,-4.4657,-4.4687,-4.425,-4.3516,-4.3479,-4.3479,-4.3479,-4.3479,-4.3479,-4.3441,-4.2855,-4.2488,-4.2213,-4.1001,-4.0249,-3.9882,-3.9258,-3.8891,-3.8726,-3.8707,-3.8707,-3.8615,-3.7896,-3.7088,-3.6317,-3.5445,-3.4619,-3.3862,-3.3807,-3.3807,-3.377,-3.3018,-3.2284,-3.1623,-3.0106,-2.8987,-2.8356,-2.7585,-2.7134,-2.7134,-2.7134,-2.7145,-2.7145,-2.7134,-2.705,-2.6868,-2.6834,-2.6723,-2.6524,-2.6437,-2.6228,-2.5879,-2.6338,-2.6467,-2.5986,-2.5463,-2.5077,-2.5082,-2.5541,-2.5845,-2.5896,-2.6302,-2.6708,-2.6708,-2.6708,-2.6657,-2.6691,-2.6708,-2.6708,-2.6708,-2.6708,-2.6708,-2.6708,-2.6708,-2.6674,-2.6589,-2.6452,-2.6348,-2.633,-2.6348,-2.6382,-2.6365,-2.6365,-2.6364,-2.6347,-2.6277,-2.6222,-2.6221,-2.6203,-2.6137,-2.6119,-2.6152,-2.5987,-2.5391,-2.4928,-2.4547,-2.4216,-2.3653,-2.3139,-2.2891,-2.2427,-2.2046,-2.1831,-2.1797,-2.1738,-5.0302,-5.0302,-5.0302,-5.0302,-5.0187,-4.9305,-4.8324,-4.7321,-4.6398,-4.5396,-4.4574,-4.4633,-4.4249,-4.3552,-4.3496,-4.3497,-4.3533,-4.3497,-4.3497,-4.3533,-4.3423,-4.3002,-4.2359,-4.2121,-4.1313,-4.0065,-3.979,-3.935,-3.8726,-3.8707,-3.8707,-3.8615,-3.7915,-3.7107,-3.6285,-3.5463,-3.4619,-3.3825,-3.3807,-3.3807,-3.3752,-3.3018,-3.2564,-3.2472,-3.0944,-3.0051,-2.9879,-2.9207,-2.8767,-2.8785,-2.873,-2.8737,-2.8748,-2.8748,-2.8737,-2.8714,-2.8695,-2.8638,-2.8323,-2.8079,-2.7803,-2.7773,-2.7685,-2.7537,-2.7132,-2.7006,-2.6798,-2.6553,-2.6538,-2.6522,-2.659,-2.6657,-2.6708,-2.6708,-2.6708,-2.6708,-2.6708,-2.6708,-2.6708,-2.6708,-2.6708,-2.6708,-2.6708,-2.6708,-2.6691,-2.6724,-2.6671,-2.6652,-2.6703,-2.6637,-2.6655,-2.6605,-2.6537,-2.6485,-2.6468,-2.6365,-2.6312,-2.6294,-2.6257,-2.6239,-2.6239,-2.6221,-2.6137,-2.5958,-2.5375,-2.4928,-2.4845,-2.4398,-2.3702,-2.3321,-2.2957,-2.2626,-2.2029,-2.1864,-2.1867,-5.0302,-5.0302,-5.0302,-5.0302,-5.0187,-4.9454,-4.8842,-4.8272,-4.6764,-4.5811,-4.5321,-4.4637,-4.4112,-4.3781,-4.3582,-4.3754,-4.4158,-4.3717,-4.3772,-4.414,-4.3736,-4.3313,-4.3002,-4.2488,-4.1699,-4.0616,-4.0139,-3.9478,-3.8836,-3.8707,-3.8707,-3.8689,-3.8358,-3.7569,-3.6376,-3.5954,-3.5114,-3.3862,-3.3807,-3.3807,-3.377,-3.3476,-3.3091,-3.2583,-3.194,-3.1133,-3.0283,-2.9867,-2.95,-2.9042,-2.8987,-2.8987,-2.8987,-2.8987,-2.8987,-2.8987,-2.8987,-2.8959,-2.8858,-2.87,-2.852,-2.825,-2.8183,-2.7992,-2.7651,-2.7535,-2.7428,-2.7289,-2.6956,-2.6708,-2.6725,-2.6708,-2.6708,-2.6708,-2.6708,-2.6708,-2.6708,-2.6725,-2.6708,-2.6708,-2.6708,-2.6725,-2.6708,-2.6708,-2.6877,-2.7112,-2.7227,-2.7327,-2.7714,-2.7513,-2.728,-2.7231,-2.6944,-2.664,-2.6555,-2.6502,-2.6434,-2.6416,-2.6381,-2.638,-2.6363,-2.6345,-2.6329,-2.6379,-2.5876,-2.5592,-2.5794,-2.5194,-2.4514,-2.4083,-2.3719,-2.3437,-2.3139,-2.2742,-2.251,-5.0302,-5.0302,-5.0302,-5.0302,-5.0245,-4.9691,-4.9308,-4.8934,-4.7531,-4.6649,-4.6106,-4.4979,-4.4329,-4.4064,-4.3681,-4.3938,-4.4507,-4.3846,-4.3938,-4.4544,-4.3864,-4.3479,-4.3424,-4.2945,-4.2213,-4.146,-4.0855,-4.0047,-3.9129,-3.8762,-3.8707,-3.8707,-3.8707,-3.801,-3.6743,-3.6431,-3.5587,-3.4247,-3.3935,-3.3807,-3.3807,-3.3807,-3.3513,-3.2968,-3.2693,-3.2032,-3.0913,-3.043,-2.9922,-2.9372,-2.9133,-2.8987,-2.8987,-2.8987,-2.8987,-2.8987,-2.8987,-2.8987,-2.8987,-2.8987,-2.8893,-2.859,-2.8484,-2.8398,-2.829,-2.8187,-2.8209,-2.8353,-2.793,-2.7637,-2.7164,-2.7334,-2.7437,-2.7351,-2.7215,-2.7148,-2.7334,-2.7402,-2.7554,-2.7368,-2.7469,-2.7334,-2.7317,-2.7402,-2.7604,-2.799,-2.8074,-2.8174,-2.8645,-2.8377,-2.8075,-2.8077,-2.7486,-2.6945,-2.6691,-2.6572,-2.6537,-2.652,-2.6502,-2.6485,-2.6485,-2.6434,-2.6416,-2.6398,-2.631,-2.6225,-2.6127,-2.5677,-2.5243,-2.5011,-2.4564,-2.4067,-2.3802,-2.347,-2.3272,-5.0302,-5.0302,-5.0302,-5.0302,-5.0283,-5.0225,-4.9786,-4.9156,-4.8934,-4.8006,-4.6565,-4.5846,-4.5153,-4.4332,-4.3795,-4.3955,-4.4562,-4.392,-4.4011,-4.4654,-4.3938,-4.3515,-4.3479,-4.3442,-4.3002,-4.2194,-4.2029,-4.124,-3.9808,-3.9056,-3.8707,-3.8707,-3.8707,-3.8285,-3.7401,-3.6648,-3.5862,-3.4894,-3.4174,-3.3807,-3.3807,-3.3807,-3.377,-3.3642,-3.3005,-3.2564,-3.2271,-3.1017,-3.021,-3.0143,-2.9482,-2.9078,-2.9042,-2.906,-2.9097,-2.906,-2.906,-2.9042,-2.906,-2.906,-2.9037,-2.8977,-2.8913,-2.8989,-2.9391,-2.9311,-2.9425,-2.9916,-2.982,-2.9403,-2.8589,-2.8816,-2.9059,-2.8814,-2.8419,-2.8403,-2.8792,-2.9066,-2.9299,-2.8944,-2.8706,-2.862,-2.8773,-2.8908,-2.8807,-2.889,-2.8924,-2.9025,-2.9127,-2.9042,-2.8941,-2.8789,-2.8281,-2.7519,-2.6894,-2.664,-2.6606,-2.6589,-2.6555,-2.652,-2.6468,-2.6451,-2.6468,-2.6451,-2.6399,-2.6364,-2.6295,-2.6093,-2.5757,-2.5375,-2.4812,-2.4398,-2.4547,-2.4149,-2.3951,-5.0799,-5.0302,-5.0302,-5.0302,-5.0302,-5.0302,-5.013,-4.9824,-4.932,-4.843,-4.7304,-4.636,-4.5378,-4.4369,-4.3999,-4.4418,-4.5351,-4.4635,-4.469,-4.5314,-4.4635,-4.3993,-4.3516,-4.3479,-4.3057,-4.2396,-4.2286,-4.146,-3.9955,-3.9093,-3.8707,-3.8707,-3.8707,-3.8303,-3.7511,-3.6707,-3.5862,-3.5023,-3.4211,-3.3807,-3.3807,-3.3807,-3.3807,-3.3788,-3.3532,-3.3115,-3.2601,-3.2032,-3.1494,-3.098,-3.0687,-3.054,-3.0522,-3.054,-3.0283,-2.9898,-3.0265,-3.032,-2.9861,-2.9769,-2.9769,-2.9757,-2.9667,-2.9898,-3.0412,-3.05,-3.0504,-3.069,-3.0932,-3.0763,-3.0494,-3.0143,-2.984,-2.9708,-2.9553,-2.9519,-2.9607,-2.9644,-2.9488,-2.9315,-2.9156,-2.8993,-2.9132,-2.8993,-2.9196,-2.96,-2.9685,-2.9907,-3.0211,-3.004,-2.9702,-2.96,-2.9076,-2.8467,-2.8264,-2.7215,-2.6674,-2.6657,-2.664,-2.664,-2.6623,-2.6606,-2.6606,-2.6572,-2.6521,-2.6417,-2.6365,-2.6242,-2.599,-2.5838,-2.5259,-2.5143,-2.5424,-2.4961,-2.4746,-5.0856,-5.034,-5.0302,-5.0302,-5.0302,-5.0302,-5.0302,-5.0225,-4.9729,-4.9003,-4.8098,-4.7022,-4.5885,-4.4848,-4.4318,-4.466,-4.5546,-4.4982,-4.5131,-4.5773,-4.5076,-4.4415,-4.392,-4.3608,-4.3204,-4.269,-4.2396,-4.1589,-4.0341,-3.9478,-3.8982,-3.8726,-3.8707,-3.845,-3.7841,-3.7088,-3.6266,-3.5408,-3.4601,-3.4082,-3.3862,-3.3807,-3.3807,-3.3807,-3.3807,-3.3568,-3.2999,-3.2729,-3.2362,-3.1843,-3.1549,-3.1403,-3.1403,-3.1403,-3.1164,-3.0723,-3.1091,-3.1195,-3.0705,-3.0577,-3.0577,-3.0558,-3.0387,-3.0587,-3.1435,-3.1428,-3.147,-3.1735,-3.1989,-3.2181,-3.2061,-3.1566,-3.1078,-3.0901,-3.0901,-3.0917,-3.0821,-3.0573,-3.0472,-3.0456,-3.0335,-3.0141,-3.0053,-3.0106,-3.0309,-3.0622,-3.0619,-3.0836,-3.1026,-3.0818,-3.0503,-3.053,-2.9878,-2.9508,-2.9238,-2.8474,-2.7504,-2.7351,-2.6911,-2.6843,-2.6776,-2.6776,-2.6708,-2.6674,-2.659,-2.6486,-2.6382,-2.6293,-2.624,-2.6187,-2.6003,-2.5772,-2.5821,-2.5739,-2.549,-5.034,-5.0302,-5.0302,-5.0302,-5.0302,-5.0302,-5.0302,-5.0283,-5.0245,-4.971,-4.8846,-4.787,-4.677,-4.5683,-4.488,-4.4789,-4.5045,-4.4897,-4.5237,-4.5899,-4.522,-4.4816,-4.4615,-4.3989,-4.355,-4.3314,-4.2653,-4.1901,-4.1111,-4.0212,-3.9441,-3.8872,-3.8726,-3.867,-3.867,-3.7786,-3.7052,-3.6266,-3.5404,-3.4582,-3.3917,-3.3825,-3.3807,-3.3807,-3.3807,-3.377,-3.3733,-3.3041,-3.2693,-3.2559,-3.1935,-3.1439,-3.1531,-3.1568,-3.1458,-3.147,-3.147,-3.1452,-3.1433,-3.1397,-3.1403,-3.1366,-3.0888,-3.119,-3.2146,-3.2128,-3.2258,-3.2955,-3.3179,-3.3273,-3.324,-3.312,-3.2837,-3.2467,-3.2383,-3.2433,-3.2275,-3.2246,-3.2247,-3.2108,-3.1934,-3.2195,-3.2213,-3.1934,-3.1777,-3.1597,-3.1576,-3.1499,-3.1372,-3.1266,-3.1357,-3.1355,-3.0929,-3.0499,-3.0173,-2.9742,-2.8866,-2.8097,-2.7486,-2.7131,-2.7012,-2.6962,-2.6826,-2.6775,-2.6607,-2.6487,-2.6417,-2.6346,-2.6293,-2.624,-2.6222,-2.6203,-2.607,-2.597,-2.6036,-5.0302,-5.0302,-5.0302,-5.0302,-5.0302,-5.0302,-5.0302,-5.0302,-5.0302,-4.9843,-4.9125,-4.8724,-4.7623,-4.6234,-4.5653,-4.5211,-4.471,-4.5095,-4.5777,-4.6405,-4.6277,-4.576,-4.5136,-4.4788,-4.4249,-4.3475,-4.2671,-4.2194,-4.1717,-4.0561,-3.9735,-3.9478,-3.8964,-3.8726,-3.8652,-3.79,-3.7345,-3.7,-3.5701,-3.4857,-3.4582,-3.4069,-3.3825,-3.3807,-3.3807,-3.3807,-3.3788,-3.355,-3.344,-3.3403,-3.3183,-3.2797,-3.243,-3.2742,-3.2779,-3.2375,-3.2779,-3.2761,-3.2302,-3.2228,-3.2228,-3.2197,-3.2025,-3.2389,-3.3109,-3.3117,-3.3124,-3.3462,-3.3422,-3.3393,-3.3393,-3.3393,-3.3271,-3.3086,-3.3147,-3.3162,-3.3008,-3.2797,-3.2551,-3.2334,-3.2282,-3.2282,-3.2299,-3.2317,-3.23,-3.2179,-3.2127,-3.1985,-3.1768,-3.1786,-3.1877,-3.1808,-3.1565,-3.148,-3.1255,-3.0925,-3.0283,-2.942,-2.8647,-2.7862,-2.7606,-2.7383,-2.7215,-2.6876,-2.6707,-2.6521,-2.6452,-2.6382,-2.6329,-2.6276,-2.6239,-2.6221,-2.6203,-2.6185,-2.6185,-5.0608,-5.0321,-5.0302,-5.0302,-5.0302,-5.0302,-5.0302,-5.0302,-5.0302,-5.0015,-4.9557,-4.9213,-4.82,-4.6802,-4.6352,-4.5609,-4.4685,-4.5229,-4.5955,-4.6671,-4.6878,-4.6476,-4.5718,-4.5015,-4.4445,-4.3736,-4.3051,-4.258,-4.2231,-4.102,-4.0194,-3.9808,-3.9093,-3.8707,-3.867,-3.8193,-3.7841,-3.7382,-3.6468,-3.5628,-3.5041,-3.4509,-3.4119,-3.3862,-3.3807,-3.3807,-3.3807,-3.3807,-3.3807,-3.3807,-3.3807,-3.3532,-3.3128,-3.3495,-3.3568,-3.3293,-3.344,-3.355,-3.3096,-3.3054,-3.3054,-3.3041,-3.3041,-3.3198,-3.3602,-3.3661,-3.3623,-3.3506,-3.3466,-3.3422,-3.3408,-3.3393,-3.3393,-3.3393,-3.3378,-3.3393,-3.3364,-3.3178,-3.299,-3.2798,-3.275,-3.2718,-3.2718,-3.2718,-3.2653,-3.2553,-3.2485,-3.2317,-3.2109,-3.2109,-3.2144,-3.2179,-3.2109,-3.216,-3.2364,-3.2067,-3.165,-3.0853,-3.0007,-2.9162,-2.8562,-2.8301,-2.8076,-2.7367,-2.7012,-2.6623,-2.6503,-2.6451,-2.6399,-2.6329,-2.6323,-2.6221,-2.6185,-2.6185,-2.6185,-5.1085,-5.034,-5.0302,-5.0302,-5.0302,-5.0302,-5.0302,-5.0302,-5.0302,-5.0264,-5.0092,-4.9557,-4.8631,-4.7566,-4.6942,-4.6058,-4.5112,-4.5144,-4.5775,-4.6454,-4.6839,-4.6939,-4.6628,-4.52,-4.4312,-4.3945,-4.3627,-4.3108,-4.2488,-4.1607,-4.0781,-4.0029,-3.9313,-3.8744,-3.8707,-3.8673,-3.8285,-3.7749,-3.7474,-3.6597,-3.5334,-3.4972,-3.4656,-3.3972,-3.3862,-3.3807,-3.3807,-3.3807,-3.3807,-3.3807,-3.3807,-3.377,-3.377,-3.3788,-3.377,-3.3697,-3.377,-3.3788,-3.377,-3.3678,-3.3697,-3.3678,-3.366,-3.3762,-3.3694,-3.3703,-3.3633,-3.352,-3.3509,-3.3481,-3.3408,-3.3393,-3.3393,-3.3393,-3.3393,-3.3393,-3.3393,-3.3364,-3.3286,-3.3301,-3.3378,-3.3364,-3.3304,-3.3286,-3.3147,-3.2957,-3.2827,-3.2601,-3.2384,-3.2436,-3.252,-3.257,-3.262,-3.2685,-3.2829,-3.2743,-3.2362,-3.2053,-3.123,-3.0404,-2.942,-2.9018,-2.8666,-2.7957,-2.735,-2.6944,-2.6723,-2.6788,-2.6683,-2.6609,-2.6488,-2.6286,-2.6185,-2.6202,-2.6252,-5.1085,-5.0321,-5.0302,-5.0302,-5.0302,-5.0302,-5.0302,-5.0302,-5.0302,-5.0302,-5.0225,-5.0092,-4.9427,-4.8598,-4.7766,-4.6934,-4.6042,-4.5494,-4.5717,-4.6536,-4.7266,-4.7397,-4.7084,-4.589,-4.4771,-4.4095,-4.386,-4.3619,-4.3164,-4.2356,-4.1566,-4.0765,-3.9984,-3.9273,-3.8799,-3.8726,-3.8615,-3.8322,-3.7768,-3.7364,-3.6725,-3.5591,-3.4931,-3.4711,-3.4142,-3.3862,-3.3807,-3.3807,-3.3807,-3.3807,-3.3807,-3.3807,-3.3807,-3.3807,-3.3807,-3.3807,-3.3807,-3.3807,-3.3807,-3.3807,-3.3807,-3.3807,-3.3807,-3.3775,-3.3762,-3.3726,-3.3657,-3.3591,-3.3538,-3.3499,-3.3408,-3.3465,-3.3447,-3.3393,-3.3538,-3.3484,-3.3393,-3.3393,-3.3393,-3.3393,-3.3393,-3.3393,-3.3393,-3.3378,-3.3331,-3.3223,-3.3178,-3.3144,-3.2878,-3.2862,-3.3008,-3.3101,-3.3162,-3.3196,-3.3211,-3.3178,-3.3093,-3.3027,-3.239,-3.1597,-3.0474,-2.948,-2.9059,-2.8492,-2.7992,-2.7535,-2.7464,-2.7476,-2.725,-2.7057,-2.677,-2.6601,-2.6334,-2.6252,-2.6367,-5.141,-5.0302,-5.0302,-5.0302,-5.0302,-5.0302,-5.0302,-5.0302,-5.0302,-5.0302,-5.0302,-5.0302,-4.9652,-4.8544,-4.7998,-4.7111,-4.6023,-4.5536,-4.5564,-4.611,-4.7237,-4.7621,-4.7201,-4.6278,-4.5157,-4.4169,-4.3974,-4.3878,-4.3645,-4.295,-4.2366,-4.1842,-4.0707,-3.9837,-3.9416,-3.8863,-3.8707,-3.8615,-3.8193,-3.7878,-3.7419,-3.6578,-3.5936,-3.55,-3.4747,-3.4211,-3.388,-3.3807,-3.3807,-3.3807,-3.3807,-3.3807,-3.3807,-3.3807,-3.3807,-3.3807,-3.3807,-3.3807,-3.3807,-3.3807,-3.3807,-3.3807,-3.3807,-3.3807,-3.3807,-3.3766,-3.3712,-3.3643,-3.3605,-3.3716,-3.396,-3.4205,-3.4389,-3.4482,-3.4407,-3.4117,-3.3538,-3.3393,-3.3393,-3.3393,-3.3393,-3.3393,-3.3393,-3.3411,-3.3393,-3.3378,-3.3345,-3.3345,-3.3316,-3.3393,-3.3447,-3.3502,-3.3429,-3.3331,-3.3316,-3.3286,-3.3271,-3.3268,-3.3029,-3.2335,-3.1531,-3.0314,-2.9859,-2.9391,-2.8759,-2.8313,-2.8289,-2.8196,-2.7952,-2.7692,-2.7286,-2.7133,-2.7031,-2.6816,-2.6849,-5.1754,-5.0302,-5.0302,-5.0302,-5.0302,-5.0302,-5.0314,-5.0302,-5.0302,-5.0302,-5.0302,-5.0302,-4.95,-4.7941,-4.7903,-4.6948,-4.5507,-4.5411,-4.5575,-4.6207,-4.7184,-4.7815,-4.7692,-4.6784,-4.5585,-4.4496,-4.4051,-4.4094,-4.4013,-4.3434,-4.3175,-4.2701,-4.1325,-4.05,-4.0053,-3.9324,-3.8862,-3.8837,-3.8733,-3.8387,-3.7893,-3.7426,-3.6942,-3.634,-3.5334,-3.4619,-3.4137,-3.3899,-3.3807,-3.3807,-3.3807,-3.3807,-3.3807,-3.3807,-3.3807,-3.3807,-3.3807,-3.3807,-3.3807,-3.3807,-3.3807,-3.3807,-3.3807,-3.3807,-3.3807,-3.3793,-3.3821,-3.3973,-3.3826,-3.4217,-3.4745,-3.538,-3.5548,-3.5514,-3.5641,-3.5044,-3.4081,-3.3647,-3.3647,-3.3628,-3.3647,-3.3538,-3.3628,-3.3592,-3.361,-3.428,-3.419,-3.4226,-3.4099,-3.3954,-3.3882,-3.3755,-3.361,-3.3393,-3.3378,-3.3378,-3.3378,-3.3345,-3.316,-3.2737,-3.2423,-3.1549,-3.1011,-3.0437,-2.9778,-2.9371,-2.9211,-2.9013,-2.8655,-2.8443,-2.8118,-2.818,-2.8243,-2.7895,-2.7779,-5.1238,-5.0302,-5.0348,-5.0337,-5.0314,-5.0367,-5.0337,-5.0302,-5.0302,-5.0302,-5.0302,-5.0302,-4.971,-4.8716,-4.8028,-4.7207,-4.6118,-4.566,-4.5978,-4.7378,-4.7618,-4.8204,-4.8316,-4.7743,-4.6512,-4.5223,-4.4782,-4.4663,-4.4446,-4.424,-4.385,-4.3207,-4.2295,-4.1226,-4.0594,-3.9861,-3.9324,-3.9298,-3.9129,-3.8929,-3.858,-3.7937,-3.7485,-3.707,-3.5862,-3.5041,-3.4656,-3.4124,-3.3825,-3.3807,-3.3844,-3.3899,-3.3825,-3.3807,-3.3807,-3.3807,-3.3807,-3.3807,-3.3807,-3.3807,-3.3807,-3.3807,-3.3807,-3.3807,-3.3807,-3.3844,-3.411,-3.4458,-3.4664,-3.4958,-3.5557,-3.5722,-3.5946,-3.6003,-3.5983,-3.582,-3.5388,-3.5243,-3.515,-3.5062,-3.4682,-3.4588,-3.5113,-3.4588,-3.4679,-3.5113,-3.5206,-3.5243,-3.4953,-3.457,-3.4298,-3.4081,-3.3647,-3.3411,-3.3393,-3.3393,-3.3393,-3.3393,-3.3238,-3.3144,-3.2822,-3.2545,-3.1895,-3.1324,-3.0782,-3.0439,-3.0178,-2.9534,-2.9147,-2.9044,-2.8971,-2.8954,-2.8885,-2.8697,-2.8766,-5.1073,-5.0302,-5.0356,-5.0367,-5.0367,-5.039,-5.0371,-5.0337,-5.0337,-5.0344,-5.0302,-5.0302,-4.9633,-4.8506,-4.7971,-4.7169,-4.608,-4.5575,-4.6247,-4.7573,-4.7977,-4.8377,-4.8799,-4.8294,-4.7141,-4.5662,-4.5055,-4.4879,-4.4861,-4.4812,-4.4616,-4.4212,-4.3213,-4.2322,-4.1442,-4.0528,-3.9877,-3.9533,-3.9376,-3.9232,-3.8976,-3.8571,-3.7904,-3.7559,-3.6615,-3.6046,-3.5605,-3.5257,-3.5018,-3.489,-3.4564,-3.416,-3.3862,-3.3807,-3.3807,-3.3807,-3.3807,-3.3807,-3.3807,-3.3807,-3.3807,-3.3825,-3.3807,-3.3807,-3.3954,-3.41,-3.4495,-3.4907,-3.5286,-3.5743,-3.6375,-3.6862,-3.6886,-3.6924,-3.6906,-3.6924,-3.6798,-3.629,-3.5786,-3.5731,-3.5403,-3.5388,-3.5442,-3.5385,-3.5367,-3.5639,-3.5623,-3.5623,-3.5351,-3.4987,-3.4643,-3.4298,-3.3737,-3.3429,-3.3393,-3.3393,-3.3393,-3.3393,-3.3345,-3.3301,-3.319,-3.2939,-3.2681,-3.2103,-3.1551,-3.1352,-3.1028,-3.035,-2.9886,-2.9995,-2.9958,-2.9702,-2.9615,-2.9769,-2.9852,-5.0994,-5.0325,-5.0356,-5.0359,-5.0412,-5.0404,-5.0435,-5.0424,-5.0412,-5.0379,-5.0314,-5.0314,-4.9423,-4.8094,-4.7826,-4.6844,-4.5698,-4.5441,-4.6277,-4.7806,-4.7968,-4.8631,-4.9084,-4.8518,-4.7585,-4.6349,-4.5464,-4.5143,-4.5188,-4.5197,-4.512,-4.5111,-4.4209,-4.3133,-4.2333,-4.138,-4.0429,-3.9807,-3.9611,-3.9489,-3.9272,-3.9077,-3.8524,-3.7923,-3.7419,-3.7033,-3.6523,-3.6248,-3.6174,-3.6248,-3.5591,-3.4894,-3.4339,-3.3844,-3.3807,-3.3807,-3.3807,-3.3807,-3.3807,-3.3825,-3.3844,-3.3917,-3.4009,-3.4064,-3.4247,-3.4798,-3.5243,-3.5636,-3.6102,-3.6766,-3.7267,-3.764,-3.8008,-3.8082,-3.8154,-3.8209,-3.7957,-3.6942,-3.6472,-3.6309,-3.6236,-3.6164,-3.6236,-3.6236,-3.6164,-3.6109,-3.6112,-3.6075,-3.584,-3.5602,-3.5367,-3.4932,-3.4461,-3.3628,-3.3465,-3.3484,-3.3465,-3.3411,-3.3411,-3.3411,-3.3411,-3.3241,-3.299,-3.2765,-3.2363,-3.2109,-3.1807,-3.1277,-3.0999,-3.1061,-3.0781,-3.0369,-3.0503,-3.0878,-3.0774,-5.0602,-5.0478,-5.054,-5.0521,-5.05,-5.0532,-5.0521,-5.0478,-5.0424,-5.0382,-5.0359,-5.0287,-4.9308,-4.8124,-4.7788,-4.6844,-4.5564,-4.5383,-4.6219,-4.7661,-4.7977,-4.8668,-4.9593,-4.8672,-4.7873,-4.7357,-4.6215,-4.5429,-4.5419,-4.5429,-4.5381,-4.5208,-4.4526,-4.3643,-4.2792,-4.1827,-4.1011,-4.0294,-3.997,-3.9773,-3.9647,-3.9318,-3.8947,-3.8409,-3.7956,-3.7577,-3.7235,-3.667,-3.6285,-3.6266,-3.6156,-3.6009,-3.5587,-3.4633,-3.4064,-3.4027,-3.4064,-3.4137,-3.41,-3.3954,-3.4211,-3.4582,-3.4802,-3.4926,-3.522,-3.5734,-3.6215,-3.6787,-3.7387,-3.806,-3.8164,-3.8232,-3.8204,-3.8225,-3.8209,-3.8209,-3.8136,-3.7848,-3.7558,-3.7431,-3.716,-3.6922,-3.6997,-3.7051,-3.7015,-3.7069,-3.7196,-3.725,-3.7178,-3.6834,-3.6488,-3.5946,-3.5331,-3.4389,-3.3556,-3.3574,-3.3574,-3.3484,-3.3465,-3.3484,-3.3465,-3.3411,-3.3223,-3.2988,-3.2813,-3.2568,-3.2265,-3.1968,-3.1732,-3.1528,-3.1276,-3.0978,-3.1035,-3.1075,-3.0952,-5.05,-5.05,-5.0532,-5.0542,-5.0553,-5.0582,-5.0572,-5.05,-5.0468,-5.0424,-5.0233,-4.9855,-4.9003,-4.7952,-4.7283,-4.6405,-4.5564,-4.5297,-4.6075,-4.7122,-4.7754,-4.8511,-4.9695,-4.8544,-4.8133,-4.753,-4.6407,-4.5522,-4.5495,-4.5448,-4.5448,-4.5323,-4.4909,-4.4286,-4.3435,-4.2603,-4.1762,-4.1027,-4.0424,-4.0046,-3.9903,-3.9502,-3.9178,-3.8845,-3.8578,-3.8298,-3.8062,-3.7845,-3.7569,-3.7496,-3.7147,-3.696,-3.6574,-3.5936,-3.511,-3.5092,-3.5037,-3.5055,-3.5073,-3.5092,-3.5349,-3.5587,-3.5679,-3.5569,-3.5789,-3.6303,-3.7132,-3.7729,-3.7982,-3.8415,-3.83,-3.8307,-3.8241,-3.8209,-3.8209,-3.8209,-3.8209,-3.8209,-3.8209,-3.8209,-3.7883,-3.7665,-3.7846,-3.7883,-3.7883,-3.8028,-3.8191,-3.8209,-3.8209,-3.7738,-3.7158,-3.6614,-3.591,-3.5131,-3.4335,-3.428,-3.4048,-3.3849,-3.3668,-3.3701,-3.3538,-3.3484,-3.34,-3.3226,-3.3052,-3.291,-3.2699,-3.2401,-3.2196,-3.1967,-3.1658,-3.1413,-3.1315,-3.1235,-3.1114,-5.0542,-5.0542,-5.0542,-5.0563,-5.0613,-5.0632,-5.0584,-5.0562,-5.0521,-5.0468,-5.0233,-4.9495,-4.8651,-4.7704,-4.6748,-4.587,-4.5297,-4.5277,-4.595,-4.6976,-4.7608,-4.8373,-4.895,-4.8454,-4.7938,-4.7749,-4.6302,-4.5514,-4.5495,-4.5485,-4.5458,-4.54,-4.533,-4.4888,-4.4,-4.333,-4.2555,-4.1781,-4.096,-4.0395,-3.9941,-3.9693,-3.9464,-3.9192,-3.9142,-3.8937,-3.8726,-3.8554,-3.8505,-3.8377,-3.8083,-3.7749,-3.7658,-3.7129,-3.678,-3.6725,-3.6505,-3.6321,-3.6229,-3.6174,-3.6156,-3.6468,-3.6541,-3.6376,-3.656,-3.7276,-3.7958,-3.8413,-3.8462,-3.8399,-3.8336,-3.8274,-3.8225,-3.8209,-3.8209,-3.8209,-3.8209,-3.8209,-3.8209,-3.8209,-3.8209,-3.8209,-3.8172,-3.8172,-3.8064,-3.8064,-3.8209,-3.8209,-3.8172,-3.7883,-3.7375,-3.6959,-3.6381,-3.5783,-3.5313,-3.5258,-3.4935,-3.4555,-3.4301,-3.4175,-3.3882,-3.3574,-3.3439,-3.3316,-3.3316,-3.3178,-3.2986,-3.2811,-3.255,-3.2299,-3.2039,-3.1787,-3.1564,-3.143,-3.1312,-5.0673,-5.0663,-5.0673,-5.0692,-5.0692,-5.0692,-5.0673,-5.0663,-5.0603,-5.0542,-5.0391,-4.9466,-4.8531,-4.7485,-4.6118,-4.5449,-4.5316,-4.5383,-4.6073,-4.7263,-4.7737,-4.8627,-4.9701,-4.849,-4.8012,-4.768,-4.6254,-4.5573,-4.5495,-4.555,-4.5532,-4.5457,-4.5342,-4.5007,-4.4355,-4.3875,-4.3452,-4.2641,-4.1762,-4.0872,-4.0127,-3.9919,-3.9705,-3.9458,-3.9272,-3.9115,-3.8989,-3.887,-3.8753,-3.8689,-3.8615,-3.8542,-3.856,-3.8524,-3.8432,-3.801,-3.7257,-3.6303,-3.645,-3.6578,-3.6817,-3.7254,-3.7364,-3.7679,-3.79,-3.8102,-3.8472,-3.8618,-3.8544,-3.8446,-3.8385,-3.8322,-3.8257,-3.8225,-3.8209,-3.8209,-3.8209,-3.8209,-3.8209,-3.8209,-3.8209,-3.8209,-3.8209,-3.8209,-3.8209,-3.8209,-3.8209,-3.8209,-3.8172,-3.7919,-3.7738,-3.7357,-3.7104,-3.6526,-3.6182,-3.6146,-3.5783,-3.5315,-3.4971,-3.4663,-3.4208,-3.381,-3.3465,-3.3378,-3.3393,-3.3393,-3.3241,-3.3034,-3.2842,-3.265,-3.2418,-3.2074,-3.1732,-3.162,-3.1581,-5.0683,-5.0683,-5.0683,-5.0683,-5.0683,-5.0683,-5.0673,-5.0633,-5.0613,-5.0572,-5.0212,-4.9009,-4.7682,-4.6473,-4.5507,-4.5316,-4.5297,-4.5307,-4.5899,-4.7097,-4.7638,-4.846,-4.9075,-4.8493,-4.7943,-4.7546,-4.6446,-4.5562,-4.5532,-4.5513,-4.5495,-4.5448,-4.54,-4.5274,-4.4719,-4.4247,-4.3864,-4.3195,-4.2259,-4.1322,-4.0795,-4.0374,-3.9996,-3.9739,-3.9611,-3.9401,-3.9156,-3.9021,-3.8837,-3.875,-3.8707,-3.8707,-3.8707,-3.8689,-3.867,-3.8634,-3.812,-3.7734,-3.7698,-3.7624,-3.779,-3.7991,-3.8157,-3.8303,-3.8652,-3.8707,-3.8707,-3.8707,-3.8528,-3.8446,-3.8401,-3.8305,-3.8241,-3.8209,-3.8209,-3.8209,-3.8209,-3.8209,-3.8209,-3.8209,-3.8209,-3.8209,-3.8209,-3.8209,-3.8209,-3.8209,-3.8209,-3.8209,-3.8209,-3.8136,-3.7991,-3.7846,-3.7647,-3.7393,-3.7122,-3.6959,-3.6508,-3.6055,-3.5602,-3.5204,-3.4534,-3.4081,-3.3773,-3.3484,-3.3411,-3.3396,-3.3396,-3.3286,-3.3114,-3.2972,-3.2829,-3.2502,-3.2179,-3.2021,-3.1932,-5.0683,-5.0683,-5.0683,-5.0683,-5.0683,-5.0683,-5.0663,-5.0623,-5.0623,-5.0593,-5.008,-4.8724,-4.6987,-4.5635,-4.5367,-4.5329,-4.5328,-4.5328,-4.5804,-4.6557,-4.7398,-4.8288,-4.878,-4.8458,-4.8167,-4.7979,-4.6657,-4.585,-4.558,-4.5513,-4.5485,-4.5409,-4.5409,-4.535,-4.5156,-4.4753,-4.4293,-4.3796,-4.2851,-4.2039,-4.1437,-4.0893,-4.0424,-4.0103,-3.9903,-3.9717,-3.9363,-3.9129,-3.8964,-3.8866,-3.8719,-3.8707,-3.8707,-3.8707,-3.8707,-3.8689,-3.8469,-3.8487,-3.8469,-3.8487,-3.8689,-3.8707,-3.8707,-3.8615,-3.867,-3.8707,-3.8707,-3.8707,-3.8544,-3.8446,-3.8366,-3.8289,-3.8257,-3.8224,-3.8207,-3.8207,-3.8207,-3.8209,-3.8209,-3.8209,-3.8209,-3.8209,-3.8209,-3.8209,-3.8209,-3.8209,-3.8209,-3.8209,-3.8209,-3.8209,-3.8154,-3.8028,-3.7973,-3.7846,-3.7756,-3.7502,-3.7123,-3.6779,-3.6309,-3.5946,-3.5421,-3.4679,-3.4135,-3.3864,-3.3628,-3.3411,-3.3378,-3.3393,-3.3378,-3.3223,-3.3068,-3.2941,-3.2716,-3.2518,-3.2196,-5.0683,-5.0683,-5.0683,-5.0683,-5.0683,-5.0683,-5.0683,-5.0673,-5.0683,-5.0567,-5.0102,-4.8738,-4.703,-4.5745,-4.5371,-4.54,-4.5398,-4.5379,-4.5865,-4.6579,-4.7379,-4.8226,-4.8698,-4.8826,-4.8562,-4.8039,-4.6983,-4.6214,-4.576,-4.5589,-4.5505,-4.541,-4.539,-4.5389,-4.532,-4.5107,-4.4704,-4.4274,-4.3624,-4.2851,-4.2087,-4.1476,-4.1074,-4.0415,-4.0095,-3.9881,-3.9807,-3.9408,-3.9096,-3.9031,-3.8866,-3.8704,-3.8723,-3.8707,-3.8707,-3.8707,-3.8707,-3.8707,-3.8707,-3.8707,-3.8707,-3.8707,-3.8707,-3.8707,-3.8707,-3.8707,-3.8707,-3.8692,-3.8559,-3.8462,-3.8401,-3.8338,-3.829,-3.8257,-3.8241,-3.8257,-3.8241,-3.8209,-3.8209,-3.8209,-3.8209,-3.8209,-3.8209,-3.8209,-3.8209,-3.8209,-3.8209,-3.8209,-3.8209,-3.8209,-3.8209,-3.8172,-3.8172,-3.8136,-3.8154,-3.7902,-3.7667,-3.7375,-3.6977,-3.6814,-3.6596,-3.5763,-3.4679,-3.4407,-3.419,-3.3773,-3.3393,-3.3429,-3.3447,-3.3411,-3.3301,-3.3129,-3.2972,-3.2749,-3.2351,-5.0683,-5.0683,-5.0683,-5.0683,-5.0683,-5.0683,-5.0683,-5.0683,-5.0683,-5.0029,-4.9086,-4.8279,-4.7059,-4.5812,-4.541,-4.5419,-4.5419,-4.5419,-4.5945,-4.6452,-4.7103,-4.7937,-4.8532,-4.8794,-4.847,-4.8375,-4.7549,-4.6743,-4.633,-4.586,-4.5477,-4.5361,-4.5409,-4.536,-4.5348,-4.5317,-4.5059,-4.4762,-4.4274,-4.3529,-4.3223,-4.245,-4.1896,-4.1113,-4.0979,-4.0485,-3.9987,-3.9717,-3.9421,-3.9165,-3.9021,-3.8881,-3.8735,-3.8704,-3.8707,-3.8707,-3.8707,-3.8707,-3.8707,-3.8707,-3.8707,-3.8707,-3.8707,-3.8707,-3.8707,-3.8707,-3.8707,-3.8658,-3.8593,-3.8494,-3.8399,-3.8338,-3.829,-3.8274,-3.8274,-3.8289,-3.8307,-3.8274,-3.8241,-3.8274,-3.8242,-3.8209,-3.8209,-3.8209,-3.8209,-3.8209,-3.8209,-3.8209,-3.8209,-3.8209,-3.8209,-3.8209,-3.8209,-3.8209,-3.8209,-3.8209,-3.8209,-3.7901,-3.7557,-3.7375,-3.7122,-3.6272,-3.5351,-3.5062,-3.4769,-3.4407,-3.4045,-3.3665,-3.3502,-3.3429,-3.3378,-3.3316,-3.3162,-3.299,-3.2619,-5.0683,-5.0683,-5.0683,-5.0683,-5.0683,-5.0683,-5.0683,-5.0683,-5.0683,-4.9923,-4.8481,-4.8203,-4.7309,-4.611,-4.5534,-4.5457,-4.5544,-4.5774,-4.6177,-4.6761,-4.7403,-4.7999,-4.8537,-4.8902,-4.9009,-4.8837,-4.8337,-4.7578,-4.7069,-4.6215,-4.5927,-4.5763,-4.5485,-4.5388,-4.5309,-4.5277,-4.5277,-4.5105,-4.48,-4.4159,-4.393,-4.3453,-4.2766,-4.1963,-4.1619,-4.116,-4.0515,-4.013,-3.9686,-3.9439,-3.921,-3.9003,-3.8848,-3.875,-3.8707,-3.8707,-3.8707,-3.8707,-3.8707,-3.8707,-3.8707,-3.8707,-3.8707,-3.8707,-3.8707,-3.8707,-3.8707,-3.8707,-3.8609,-3.8528,-3.843,-3.8368,-3.8354,-3.8338,-3.8322,-3.8338,-3.837,-3.837,-3.8338,-3.8338,-3.829,-3.8242,-3.8225,-3.8225,-3.8209,-3.8209,-3.8209,-3.8209,-3.8209,-3.8209,-3.8209,-3.8209,-3.8209,-3.8209,-3.8209,-3.8209,-3.8209,-3.8154,-3.7846,-3.7683,-3.7268,-3.6598,-3.6236,-3.6037,-3.5675,-3.5131,-3.4643,-3.4172,-3.3773,-3.3447,-3.3396,-3.336,-3.3331,-3.3162,-3.2957,-5.0683,-5.0683,-5.0683,-5.0683,-5.0683,-5.0683,-5.0683,-5.0683,-5.0673,-5.0144,-4.9173,-4.8462,-4.7635,-4.6683,-4.5914,-4.555,-4.5696,-4.6282,-4.6705,-4.6944,-4.7884,-4.8461,-4.8903,-4.923,-4.9461,-4.8635,-4.8519,-4.85,-4.7943,-4.7137,-4.6732,-4.6365,-4.5962,-4.5473,-4.5326,-4.5277,-4.5277,-4.5277,-4.522,-4.4743,-4.4313,-4.4095,-4.3617,-4.2852,-4.2288,-4.1877,-4.1369,-4.0591,-4.0176,-3.9973,-3.9458,-3.921,-3.905,-3.8837,-3.875,-3.8707,-3.8707,-3.8707,-3.8707,-3.8707,-3.8707,-3.8707,-3.8707,-3.8707,-3.8707,-3.8707,-3.8707,-3.8707,-3.8673,-3.8578,-3.8512,-3.8465,-3.8433,-3.8401,-3.8368,-3.8368,-3.8417,-3.8451,-3.8435,-3.8385,-3.8338,-3.8307,-3.8274,-3.8257,-3.8207,-3.8209,-3.8209,-3.8209,-3.8209,-3.8209,-3.8209,-3.8209,-3.8209,-3.8209,-3.8209,-3.8209,-3.8209,-3.8191,-3.8118,-3.7937,-3.7901,-3.7631,-3.7305,-3.7031,-3.6524,-3.5928,-3.5258,-3.4606,-3.4099,-3.3592,-3.3447,-3.3393,-3.3393,-3.3316,-3.3099,-5.0683,-5.0683,-5.0683,-5.0683,-5.0683,-5.0683,-5.0683,-5.0683,-5.0625,-5.0202,-4.9336,-4.849,-4.7654,-4.6836,-4.6047,-4.5586,-4.5741,-4.6443,-4.6848,-4.7031,-4.8164,-4.8635,-4.9077,-4.9481,-4.9817,-4.976,-4.9721,-4.9356,-4.8855,-4.8029,-4.7624,-4.7256,-4.6458,-4.5853,-4.5441,-4.5277,-4.5277,-4.5277,-4.5258,-4.5135,-4.4887,-4.4851,-4.4517,-4.3645,-4.3292,-4.2872,-4.2345,-4.1415,-4.0925,-4.0648,-4.0125,-3.9558,-3.9293,-3.903,-3.8881,-3.8765,-3.8689,-3.8707,-3.8707,-3.8707,-3.8707,-3.8726,-3.8707,-3.8707,-3.8707,-3.8707,-3.8707,-3.8707,-3.8707,-3.8609,-3.8528,-3.8512,-3.8462,-3.8415,-3.8399,-3.8446,-3.8478,-3.8481,-3.8483,-3.8446,-3.8399,-3.8368,-3.8336,-3.8305,-3.829,-3.8241,-3.8241,-3.8209,-3.8209,-3.8209,-3.8209,-3.8209,-3.8209,-3.8209,-3.8209,-3.8209,-3.8209,-3.8209,-3.8209,-3.8136,-3.8172,-3.8209,-3.8064,-3.7629,-3.7176,-3.6687,-3.5874,-3.5077,-3.4262,-3.374,-3.352,-3.3393,-3.3393,-3.3331,-3.3193,-5.0314,-5.0352,-5.0661,-5.0757,-5.0767,-5.0721,-5.0683,-5.0683,-5.0673,-5.0212,-4.9336,-4.849,-4.7663,-4.6836,-4.6056,-4.5594,-4.5729,-4.6836,-4.7327,-4.749,-4.8567,-4.9106,-4.9433,-4.9683,-4.9933,-5.0212,-5.0144,-4.9817,-4.97,-4.8864,-4.8257,-4.7686,-4.6991,-4.6301,-4.5793,-4.5564,-4.5277,-4.5277,-4.5277,-4.5277,-4.5222,-4.5214,-4.5082,-4.4564,-4.4172,-4.3771,-4.3168,-4.2517,-4.1875,-4.1485,-4.087,-4.0204,-3.9827,-3.9364,-3.9119,-3.8881,-3.8735,-3.8719,-3.8707,-3.8707,-3.8817,-3.9166,-3.8891,-3.8726,-3.8707,-3.8707,-3.8707,-3.8707,-3.8762,-3.8698,-3.8635,-3.8635,-3.869,-3.8643,-3.8622,-3.8653,-3.8614,-3.8651,-3.8562,-3.8544,-3.8494,-3.8446,-3.8399,-3.8385,-3.8338,-3.8305,-3.8256,-3.8241,-3.8225,-3.8209,-3.8209,-3.8209,-3.8209,-3.8209,-3.8209,-3.8209,-3.8209,-3.8209,-3.8209,-3.8209,-3.8209,-3.8209,-3.8209,-3.8209,-3.7774,-3.7196,-3.6381,-3.5548,-3.4624,-3.39,-3.3465,-3.3393,-3.3393,-3.3331,-3.3256,-4.9552,-4.9687,-5.0461,-5.0716,-5.0731,-5.047,-5.051,-5.0664,-5.0625,-5.0125,-4.9336,-4.8413,-4.7558,-4.6817,-4.5979,-4.5614,-4.5941,-4.7278,-4.7798,-4.849,-4.9471,-4.974,-4.9952,-5.0202,-5.0231,-5.0048,-5.0087,-5.0375,-5.0449,-4.9728,-4.89,-4.808,-4.7412,-4.6798,-4.6328,-4.5851,-4.5468,-4.5354,-4.5277,-4.5277,-4.5288,-4.5348,-4.5292,-4.4976,-4.4661,-4.4355,-4.3847,-4.332,-4.2918,-4.2427,-4.1797,-4.135,-4.0729,-3.9888,-3.9447,-3.9137,-3.9031,-3.905,-3.9093,-3.9166,-3.935,-3.9772,-3.9368,-3.8982,-3.8982,-3.9221,-3.9313,-3.9276,-3.9297,-3.9046,-3.8852,-3.8957,-3.9064,-3.8993,-3.8936,-3.8896,-3.8857,-3.8802,-3.871,-3.8643,-3.8578,-3.8512,-3.8446,-3.8399,-3.8401,-3.8352,-3.8322,-3.829,-3.8241,-3.8209,-3.8209,-3.8209,-3.8209,-3.8209,-3.8209,-3.8209,-3.8209,-3.8209,-3.8209,-3.8209,-3.8209,-3.8209,-3.8209,-3.8209,-3.8209,-3.7685,-3.6725,-3.5783,-3.4842,-3.4262,-3.4081,-3.3828,-3.3954,-3.3502,-3.3367,-4.8523,-4.8581,-4.8792,-4.8908,-4.8899,-4.8884,-4.951,-5.0539,-5.0067,-4.9596,-4.9317,-4.7855,-4.7144,-4.6817,-4.5998,-4.5671,-4.622,-4.7105,-4.7855,-4.874,-4.976,-5.025,-5.0481,-5.0529,-5.05,-5.0462,-5.0548,-5.0692,-5.0605,-5.018,-4.9637,-4.8805,-4.8302,-4.7638,-4.6901,-4.629,-4.5831,-4.5468,-4.5354,-4.5277,-4.5307,-4.5367,-4.5359,-4.5195,-4.511,-4.488,-4.465,-4.4084,-4.373,-4.346,-4.2791,-4.228,-4.1927,-4.1418,-4.1016,-4.0569,-4.0464,-4.0416,-4.0416,-4.038,-4.0471,-4.0653,-4.0453,-4.0487,-4.0432,-4.0341,-4.0304,-4.0104,-4.0068,-3.9926,-3.9873,-3.9942,-3.996,-3.9923,-3.9811,-3.9646,-3.9533,-3.9129,-3.9019,-3.8673,-3.8609,-3.8593,-3.8494,-3.8478,-3.8481,-3.8433,-3.8368,-3.8338,-3.829,-3.8241,-3.8209,-3.8209,-3.8209,-3.8209,-3.8209,-3.8209,-3.8209,-3.8209,-3.8209,-3.8209,-3.8209,-3.8209,-3.8209,-3.8209,-3.8209,-3.7738,-3.6977,-3.6143,-3.553,-3.5385,-3.5188,-3.479,-3.4428,-3.4117,-3.39,-4.772,-4.7739,-4.8047,-4.8158,-4.8086,-4.8096,-4.8759,-4.9471,-4.9106,-4.874,-4.8298,-4.7375,-4.6721,-4.6297,-4.5825,-4.5633,-4.5748,-4.6874,-4.7692,-4.8471,-4.9606,-5.0173,-5.0539,-5.0683,-5.0673,-5.0683,-5.0683,-5.0683,-5.0663,-5.0565,-5.0108,-4.969,-4.9395,-4.8528,-4.7677,-4.6901,-4.6252,-4.5831,-4.5545,-4.5354,-4.5317,-4.5338,-4.5328,-4.5338,-4.5378,-4.5338,-4.529,-4.4668,-4.4551,-4.4369,-4.373,-4.324,-4.2845,-4.2359,-4.1614,-4.1125,-4.0983,-4.0948,-4.093,-4.0985,-4.1242,-4.148,-4.159,-4.1772,-4.1607,-4.1407,-4.1132,-4.0893,-4.0985,-4.104,-4.1058,-4.1095,-4.1058,-4.104,-4.0818,-4.0579,-4.012,-3.9606,-3.9203,-3.8817,-3.8673,-3.8643,-3.8609,-3.8593,-3.8578,-3.8546,-3.8465,-3.8385,-3.8338,-3.8272,-3.8224,-3.8209,-3.8209,-3.8209,-3.8209,-3.8209,-3.8209,-3.8209,-3.8209,-3.8209,-3.8209,-3.8209,-3.8209,-3.8209,-3.8209,-3.7683,-3.7158,-3.6959,-3.6542,-3.6327,-3.6073,-3.5747,-3.5403,-3.515,-3.5005,-4.6992,-4.7023,-4.7785,-4.7869,-4.7903,-4.7798,-4.7836,-4.7894,-4.7836,-4.7548,-4.7028,-4.6836,-4.6317,-4.5845,-4.5614,-4.5594,-4.596,-4.6797,-4.7692,-4.8202,-4.9394,-5.0173,-5.0577,-5.0683,-5.0683,-5.0683,-5.0683,-5.0683,-5.0673,-5.0604,-5.0504,-5.0434,-4.9726,-4.904,-4.8578,-4.7627,-4.6997,-4.6596,-4.5965,-4.5526,-4.5335,-4.5307,-4.5328,-4.5378,-4.5367,-4.5317,-4.5348,-4.53,-4.5277,-4.4991,-4.4666,-4.413,-4.3555,-4.3038,-4.2155,-4.1683,-4.1679,-4.1664,-4.1717,-4.1735,-4.1937,-4.2194,-4.2415,-4.2671,-4.2543,-4.2286,-4.1974,-4.1864,-4.1956,-4.1956,-4.1974,-4.1974,-4.1956,-4.1992,-4.1901,-4.1479,-4.091,-4.023,-3.9423,-3.9019,-3.8692,-3.8658,-3.8609,-3.8593,-3.8593,-3.8593,-3.8596,-3.8465,-3.8401,-3.8336,-3.8272,-3.8224,-3.8209,-3.8209,-3.8209,-3.8209,-3.8209,-3.8209,-3.8209,-3.8209,-3.8209,-3.8209,-3.8209,-3.8209,-3.8191,-3.7865,-3.7448,-3.7357,-3.7194,-3.6798,-3.6598,-3.6562,-3.6363,-3.62,-3.6001,-4.5951,-4.5971,-4.6183,-4.6226,-4.6191,-4.621,-4.622,-4.621,-4.621,-4.6509,-4.6721,-4.622,-4.5836,-4.5652,-4.5594,-4.5614,-4.5979,-4.6894,-4.7778,-4.8606,-4.9548,-5.0192,-5.0635,-5.0683,-5.0683,-5.0683,-5.0683,-5.0683,-5.0673,-5.0633,-5.0593,-5.0534,-5.0057,-4.9762,-4.9242,-4.8348,-4.7982,-4.7485,-4.6691,-4.5965,-4.5602,-4.5373,-4.5307,-4.5317,-4.5307,-4.5307,-4.5317,-4.5317,-4.5277,-4.5182,-4.5125,-4.4768,-4.4278,-4.392,-4.3517,-4.3058,-4.276,-4.2722,-4.2671,-4.2635,-4.2818,-4.2965,-4.3167,-4.3296,-4.3277,-4.3039,-4.2892,-4.2855,-4.2837,-4.28,-4.2782,-4.2782,-4.2782,-4.2855,-4.2873,-4.2286,-4.1662,-4.0671,-3.9698,-3.9184,-3.8781,-3.8658,-3.8624,-3.8609,-3.8609,-3.8624,-3.8658,-3.8611,-3.8494,-3.843,-3.832,-3.829,-3.8207,-3.8209,-3.8225,-3.8225,-3.8225,-3.8209,-3.8209,-3.8209,-3.8209,-3.8209,-3.8209,-3.8209,-3.8136,-3.7919,-3.7865,-3.7973,-3.7721,-3.7323,-3.7268,-3.7286,-3.7449,-3.7359,-3.7105,-4.5594,-4.5594,-4.5594,-4.5594,-4.5594,-4.5594,-4.5594,-4.5594,-4.5594,-4.5855,-4.624,-4.5836,-4.5594,-4.5594,-4.5594,-4.5883,-4.6182,-4.7067,-4.8009,-4.8894,-4.9548,-5.0192,-5.0519,-5.0683,-5.0683,-5.0683,-5.0683,-5.0683,-5.0702,-5.0682,-5.0633,-5.0593,-5.0462,-5.0219,-4.9652,-4.9368,-4.8933,-4.8367,-4.7505,-4.6863,-4.6214,-4.5851,-4.5373,-4.5277,-4.5297,-4.5297,-4.5277,-4.5277,-4.5277,-4.5277,-4.5239,-4.5038,-4.4682,-4.4492,-4.4228,-4.3846,-4.364,-4.3684,-4.3565,-4.3513,-4.3513,-4.3513,-4.3479,-4.3461,-4.3461,-4.324,-4.324,-4.3204,-4.3204,-4.3185,-4.3185,-4.3185,-4.3185,-4.3222,-4.3094,-4.269,-4.1662,-4.0524,-3.9643,-3.8946,-3.8707,-3.8692,-3.8658,-3.8658,-3.8658,-3.8643,-3.8692,-3.8643,-3.8559,-3.851,-3.8417,-3.8354,-3.8323,-3.8307,-3.8305,-3.829,-3.8259,-3.8241,-3.8224,-3.8209,-3.8209,-3.8209,-3.8209,-3.8209,-3.8209,-3.8172,-3.8191,-3.8209,-3.8209,-3.7866,-3.7938,-3.8082,-3.8209,-3.8209,-3.7848,-4.5594,-4.5594,-4.5594,-4.5594,-4.5594,-4.5594,-4.5594,-4.5594,-4.5594,-4.5594,-4.5671,-4.5633,-4.5594,-4.5594,-4.5633,-4.6163,-4.6682,-4.7212,-4.8105,-4.8836,-4.951,-5.0192,-5.0577,-5.0683,-5.0683,-5.0683,-5.0683,-5.0683,-5.0683,-5.0673,-5.0653,-5.0613,-5.0593,-5.0553,-5.0261,-4.9825,-4.9264,-4.9051,-4.8531,-4.804,-4.7302,-4.6481,-4.5908,-4.5602,-4.543,-4.5422,-4.5354,-4.5277,-4.5277,-4.5277,-4.5267,-4.5057,-4.4898,-4.4726,-4.4484,-4.4162,-4.403,-4.3905,-4.3744,-4.3664,-4.3632,-4.3582,-4.3531,-4.3496,-4.3496,-4.3496,-4.3496,-4.3479,-4.3479,-4.3479,-4.3479,-4.3479,-4.3479,-4.3461,-4.3259,-4.2983,-4.1772,-4.0616,-3.9808,-3.9001,-3.8781,-3.8781,-3.8707,-3.8707,-3.8692,-3.8673,-3.8643,-3.8593,-3.8544,-3.8559,-3.853,-3.8499,-3.8485,-3.8467,-3.8417,-3.8352,-3.8305,-3.8305,-3.8289,-3.8241,-3.8209,-3.8225,-3.8225,-3.8209,-3.8209,-3.8209,-3.8209,-3.8209,-3.8209,-3.8209,-3.8209,-3.8209,-3.8209,-3.8209,-3.8209,-4.5594,-4.5594,-4.5594,-4.5594,-4.5594,-4.5594,-4.5594,-4.5594,-4.5594,-4.5594,-4.5594,-4.5594,-4.5594,-4.5594,-4.5594,-4.5913,-4.6355,-4.7124,-4.775,-4.8355,-4.974,-5.0385,-5.0654,-5.0683,-5.0683,-5.0683,-5.0683,-5.0683,-5.0683,-5.0683,-5.0683,-5.0663,-5.0613,-5.0593,-5.0563,-5.0204,-5.0046,-4.9784,-4.9387,-4.8868,-4.8643,-4.7848,-4.7016,-4.6596,-4.6271,-4.5851,-4.5526,-4.5316,-4.5277,-4.5277,-4.5267,-4.509,-4.4969,-4.4843,-4.4656,-4.4457,-4.4336,-4.4265,-4.4099,-4.3968,-4.3923,-4.3841,-4.3763,-4.3532,-4.3532,-4.3496,-4.3496,-4.3479,-4.3479,-4.3479,-4.3479,-4.3479,-4.3479,-4.3479,-4.3369,-4.2928,-4.2121,-4.1313,-4.0561,-3.9735,-3.9093,-3.8946,-3.8707,-3.8707,-3.8707,-3.8692,-3.8692,-3.8643,-3.8624,-3.8627,-3.8611,-3.8611,-3.8611,-3.853,-3.8449,-3.8415,-3.8385,-3.8385,-3.8352,-3.8305,-3.8274,-3.8257,-3.8257,-3.8242,-3.8209,-3.8209,-3.8209,-3.8209,-3.8209,-3.8209,-3.8209,-3.8209,-3.8209,-3.8209,-3.8209]},{"header":{"parameterUnit":"m.s-1","parameterCategory":1,"la1":31.0,"la2":29.5877,"lo1":-88.7671,"lo2":-86.6584,"dy":0.0162,"dx":0.0185,"nx":115,"ny":88,"refTime":"2026-04-16T12:00:00:Z","depth":0,"parameterNumber":3,"parameterNumberName":"V-component_of_WINDS"},"data":[0.0,0.0,0.0,0.0,0.0,0.0,0.0,0.0,0.0,0.0,0.0,0.0,0.0,0.0,0.0,0.0,0.0,0.0,0.0,0.0,0.0,0.0,0.0,0.0,0.0,0.0,0.0,0.0,0.0,0.0,0.0,0.0,0.0,0.0,0.0,0.0,0.0,0.0,0.0,0.0,0.0,0.0,0.0,0.0,0.0,0.0,0.0,0.0,0.0,0.0,0.0,0.0,0.0,0.0,0.0,0.0,0.0,0.0,0.0,0.0,0.0,0.0,0.0,0.0,0.0,0.0,0.0,0.0,0.0,0.0,0.0,0.0,0.0,0.0,0.0,0.0,0.0,0.0,0.0,0.0,0.0,0.0,0.0,0.0,0.0,0.0,0.0,0.0,0.0,0.0,0.0,0.0,0.0,0.0,0.0,0.0,0.0,0.0,0.0,0.0,0.0,0.0,0.0,0.0,0.0,0.0,0.0,0.0,0.0,0.0,0.0,0.0,0.0,0.0,0.0,0.0,0.0,0.0,0.0,0.0,0.0,0.0,0.0,0.0,0.0,0.0,0.0,0.0,0.0,0.0,0.0,0.0,0.0,0.0,0.0,0.0,0.0,0.0,0.0,0.0,0.0,0.0,0.0,0.0,0.0,0.0,0.0,0.0,0.0,0.0,0.0,0.0,0.0,0.0,0.0,0.0,0.0,0.0,0.0,0.0,0.0,0.0,0.0,0.0,0.0,0.0,0.0,0.0,0.0,0.0,0.0,0.0,0.0,0.0,0.0,0.0,0.0,0.0,0.0,0.0,0.0,0.0,0.0,0.0,0.0,0.0,0.0,0.0,0.0,0.0,0.0,0.0,0.0,0.0,0.0,0.0,0.0,0.0,0.0,0.0,0.0,0.0,0.0,0.0,0.0,0.0,0.0,0.0,0.0,0.0,0.0,0.0,0.0,0.0,0.0,0.0,0.0,0.0,0.0,0.0,0.0,0.0,0.0,0.0,0.0,0.0,0.0,0.0,0.0,0.0,0.0,0.0,0.0,0.0,0.0,0.0,0.0,0.0,0.0,0.0,0.0,0.0,0.0,0.0,0.0,0.0,0.0,0.0,0.0,0.0,0.0,0.0,0.0,0.0,0.0,0.0,0.0,0.0,0.0,0.0,0.0,0.0,0.0,0.0,0.0,0.0,0.0,0.0,0.0,0.0,0.0,0.0,0.0,0.0,0.0,0.0,0.0,0.0,0.0,0.0,0.0,0.0,0.0,0.0,0.0,0.0,0.0,0.0,0.0,0.0,0.0,0.0,0.0,0.0,0.0,0.0,0.0,0.0,0.0,0.0,0.0,0.0,0.0,0.0,0.0,0.0,0.0,0.0,0.0,0.0,0.0,0.0,0.0,0.0,0.0,0.0,0.0,0.0,0.0,0.0,0.0,0.0,0.0,0.0,0.0,0.0,0.0,0.0,0.0,0.0,0.0,0.0,0.0,0.0,0.0,0.0,0.0,0.0,0.0,0.0,0.0,0.0,0.0,0.0,0.0,0.0,0.0,0.0,0.0,0.0,0.0,0.0,0.0,0.0,0.0,0.0,0.0,0.0,0.0,0.0,0.0,0.0,0.0,0.0,0.0,0.0,0.0,0.0,0.0,0.0,0.0,0.0,0.0,0.0,0.0,0.0,0.0,0.0,0.0,0.0,0.0,0.0,0.0,0.0,0.0,0.0,0.0,0.0,0.0,0.0,0.0,0.0,0.0,0.0,0.0,0.0,0.0,0.0,0.0,0.0,0.0,0.0,0.0,0.0,0.0,0.0,0.0,0.0,0.0,0.0,0.0,0.0,0.0,0.0,0.0,0.0,0.0,0.0,0.0,0.0,0.0,0.0,0.0,0.0,0.0,0.0,0.0,0.0,0.0,0.0,0.0,0.0,0.0,0.0,0.0,0.0,0.0,0.0,0.0,0.0,0.0,0.0,0.0,0.0,0.0,0.0,0.0,0.0,0.0,0.0,0.0,0.0,0.0,0.0,0.0,0.0,0.0,0.0,0.0,0.0,0.0,0.0,0.0,0.0,0.0,0.0,0.0,0.0,0.0,0.0,0.0,0.0,0.0,0.0,0.0,0.0,0.0,0.0,0.0,0.0,0.0,0.0,0.0,0.0,0.0,0.0,0.0,0.0,0.0,0.0,0.0,0.0,0.0,0.0,0.0,0.0,0.0,0.0,0.0,0.0,0.0,0.0,0.0,0.0,0.0,0.0,0.0,0.0,0.0,0.0,0.0,0.0,0.0,0.0,0.0,0.0,0.0,0.0,0.0,0.0,0.0,0.0,0.0,0.0,0.0,0.0,0.0,0.0,0.0,0.0,0.0,0.0,0.0,0.0,0.0,0.0,0.0,0.0,0.0,0.0,0.0,0.0,0.0,0.0,0.0,0.0,0.0,0.0,0.0,0.0,0.0,0.0,0.0,0.0,0.0,0.0,0.0,0.0,0.0,0.0,0.0,0.0,0.0,0.0,0.0,0.0,0.0,0.0,0.0,0.0,0.0,0.0,0.0,0.0,0.0,0.0,0.0,0.0,0.0,0.0,0.0,0.0,0.0,0.0,0.0,0.0,0.0,0.0,0.0,0.0,0.0,0.0,0.0,0.0,0.0,0.0,0.0,0.0,0.0,0.0,0.0,0.0,0.0,0.0,0.0,0.0,0.0,0.0,0.0,0.0,0.0,0.0,0.0,0.0,0.0,0.0,0.0,0.0,0.0,0.0,0.0,0.0,0.0,0.0,0.0,0.0,0.0,0.0,0.0,0.0,0.0,0.0,0.0,0.0,0.0,0.0,0.0,0.0,0.0,0.0,0.0,0.0,0.0,0.0,0.0,0.0,0.0,0.0,0.0,0.0,0.0,0.0,0.0,0.0,0.0,0.0,0.0,0.0,0.0,0.0,0.0,0.0,0.0,0.0,0.0,0.0,0.0,0.0,0.0,0.0,0.0,0.0,0.0,0.0,0.0,0.0,0.0,0.0,0.0,0.0,0.0,0.0,0.0,0.0,0.0,0.0,0.0,0.0,0.0,0.0,0.0,0.0,0.0,0.0,0.0,0.0,0.0,0.0,0.0,0.0,0.0,0.0,0.0,0.0,0.0,0.0,0.0,0.0,0.0,0.0,0.0,0.0,0.0,0.0,0.0,0.0,0.0,0.0,0.0,0.0,0.0,0.0,0.0,0.0,0.0,0.0,0.0,0.0,0.0,0.0,0.0,0.0,0.0,0.0,0.0,0.0,0.0,0.0,0.0,0.0,0.0,0.0,0.0,0.0,0.0,0.0,0.0,0.0,0.0,0.0,0.0,0.0,0.0,0.0,0.0,0.0,0.0,0.0,0.0,0.0,0.0,0.0,0.0,0.0,0.0,0.0,0.0,0.0,0.0,0.0,0.0,0.0,0.0,0.0,0.0,0.0,0.0,0.0,0.0,0.0,0.0,0.0,0.0,0.0,0.0,0.0,0.0,0.0,0.0,0.0,0.0,0.0,0.0,0.0,0.0,0.0,0.0,0.0,0.0,0.0,0.0,0.0,0.0,0.0,0.0,0.0,0.0,0.0,0.0,0.0,0.0,0.0,0.0,0.0,0.0,0.0,0.0,0.0,0.0,0.0,0.0,0.0,0.0,0.0,0.0,0.0,0.0,0.0,0.0,0.0,0.0,0.0,0.0,0.0,0.0,0.0,0.0,0.0,0.0,0.0,0.0,0.0,0.0,0.0,0.0,0.0,0.0,0.0,0.0,0.0,0.0,0.0,0.0,0.0,0.0,0.0,0.0,0.0,0.0,0.0,0.0,0.0,0.0,0.0,0.0,0.0,0.0,0.0,0.0,0.0,0.0,0.0,0.0,0.0,0.0,0.0,0.0,0.0,0.0,0.0,0.0,0.0,0.0,0.0,0.0,0.0,0.0,0.0,0.0,0.0,0.0,0.0,0.0,0.0,0.0,0.0,0.0,0.0,0.0,0.0,0.0,0.0,0.0,0.0,0.0,0.0,0.0,0.0,0.0,0.0,0.0,0.0,0.0,0.0,0.0,0.0,0.0,0.0,0.0,0.0,0.0,0.0,0.0,0.0,0.0,0.0,0.0,0.0,0.0,0.0,0.0,0.0,0.0,0.0,0.0,0.0,0.0,0.0,0.0,0.0,0.0,0.0,0.0,0.0,0.0,0.0,0.0,0.0,0.0,0.0,0.0,0.0,0.0,0.0,0.0,0.0,0.0,0.0,0.0,0.0,0.0,0.0,0.0,0.0,0.0,0.0,-0.3783,0.0,0.0,0.0,0.0,0.0,0.0,0.0,0.0,0.0,0.0,0.0,0.0,0.0,0.0,0.0,0.0,0.0,0.0,0.0,0.0,0.0,0.0,0.0,0.0,0.0,0.0,0.0,0.0,0.0,0.0,0.0,0.0,0.0,0.0,0.0,0.0,0.0,0.0,0.0,0.0,0.0,0.0,0.0,0.0,0.0,0.0,0.0,0.0,0.0,0.0,0.0,0.0,0.0,0.0,0.0,0.0,0.0,0.0,0.0,0.0,0.0,0.0,0.0,0.0,0.0,0.0,0.0,0.0,0.0,0.0,0.0,0.0,0.0,0.0,0.0,0.0,0.0,0.0,0.0,0.0,0.0,0.0,0.0,0.0,0.0,0.0,0.0,0.0,0.0,0.0,0.0,0.0,0.0,0.0,0.0,0.0,0.0,0.0,0.0,0.0,0.0,0.0,0.0,0.0,0.0,0.0,0.0,0.0,0.0,0.0,-0.4786,-0.4765,-0.4427,-0.4179,-0.4019,0.0,0.0,0.0,0.0,0.0,0.0,0.0,0.0,0.0,0.0,0.0,0.0,0.0,0.0,0.0,0.0,0.0,0.0,0.0,0.0,0.0,0.0,0.0,0.0,0.0,0.0,0.0,0.0,0.0,0.0,0.0,0.0,0.0,0.0,0.0,0.0,0.0,0.0,0.0,0.0,0.0,0.0,0.0,0.0,0.0,0.0,0.0,0.0,0.0,0.0,0.0,0.0,0.0,0.0,0.0,0.0,0.0,0.0,0.0,0.0,0.0,0.0,0.0,0.0,0.0,0.0,0.0,0.0,0.0,0.0,0.0,0.0,0.0,0.0,0.0,0.0,0.0,0.0,0.0,0.0,0.0,0.0,0.0,0.0,0.0,0.0,0.0,0.0,0.0,0.0,0.0,0.0,0.0,0.0,0.0,0.0,0.0,0.0,0.0,0.0,0.0,0.0,0.0,0.0,0.0,0.0,0.0,0.0,0.0,0.0,0.0,0.0,-0.4738,-0.4446,-0.4319,0.0,0.0,0.0,0.0,0.0,0.0,0.0,0.0,0.0,0.0,0.0,0.0,0.0,0.0,0.0,0.0,0.0,0.0,0.0,0.0,0.0,0.0,0.0,0.0,0.0,0.0,0.0,0.0,0.0,0.0,0.0,0.0,0.0,0.0,0.0,0.0,0.0,0.0,0.0,0.0,0.0,0.0,0.0,0.0,0.0,0.0,0.0,0.0,0.0,0.0,0.0,0.0,0.0,0.0,0.0,0.0,0.0,0.0,0.0,0.0,0.0,0.0,0.0,0.0,0.0,0.0,0.0,0.0,0.0,0.0,0.0,0.0,0.0,0.0,0.0,0.0,0.0,0.0,0.0,0.0,0.0,0.0,0.0,0.0,0.0,0.0,0.0,0.0,0.0,0.0,0.0,0.0,0.0,0.0,0.0,0.0,0.0,0.0,0.0,0.0,0.0,0.0,0.0,0.0,0.0,0.0,0.0,0.0,0.0,0.0,-0.4959,-0.5529,-0.5322,0.0,-0.4686,0.0,0.0,0.0,0.0,0.0,0.0,0.0,0.0,0.0,0.0,0.0,0.0,0.0,0.0,0.0,0.0,0.0,0.0,0.0,0.0,0.0,0.0,0.0,0.0,0.0,0.0,0.0,0.0,0.0,0.0,0.0,0.0,0.0,0.0,0.0,0.0,0.0,0.0,0.0,0.0,0.0,0.0,0.0,0.0,0.0,0.0,0.0,0.0,0.0,0.0,0.0,0.0,0.0,0.0,0.0,0.0,0.0,0.0,0.0,0.0,0.0,0.0,0.0,0.0,0.0,0.0,0.0,0.0,0.0,0.0,0.0,0.0,0.0,0.0,0.0,0.0,0.0,0.0,0.0,0.0,0.0,0.0,0.0,0.0,0.0,0.0,0.0,0.0,0.0,0.0,0.0,0.0,0.0,0.0,0.0,0.0,0.0,0.0,0.0,0.0,0.0,0.0,0.0,0.0,0.0,0.0,0.0,0.0,0.0,0.0,-0.5056,-0.5643,-0.5232,-0.4912,0.0,0.0,0.0,0.0,0.0,0.0,0.0,0.0,0.0,0.0,0.0,0.0,0.0,0.0,0.0,0.0,0.0,0.0,0.0,0.0,0.0,0.0,0.0,0.0,0.0,0.0,0.0,0.0,0.0,0.0,0.0,0.0,0.0,0.0,0.0,0.0,0.0,0.0,0.0,0.0,0.0,0.0,0.0,0.0,0.0,0.0,0.0,0.0,0.0,0.0,0.0,0.0,0.0,0.0,0.0,0.0,0.0,0.0,0.0,0.0,0.0,0.0,0.0,0.0,0.0,0.0,0.0,0.0,0.0,0.0,0.0,0.0,0.0,0.0,0.0,0.0,0.0,0.0,0.0,0.0,0.0,0.0,0.0,0.0,0.0,0.0,0.0,0.0,0.0,0.0,0.0,0.0,0.0,0.0,0.0,0.0,0.0,0.0,0.0,0.0,0.0,0.0,0.0,0.0,0.0,0.0,0.0,0.0,0.0,0.0,-0.4833,0.0,-0.5651,-0.5288,-0.491,-0.4617,0.0,0.0,0.0,0.0,0.0,0.0,0.0,0.0,0.0,0.0,0.0,0.0,0.0,0.0,0.0,0.0,0.0,0.0,0.0,0.0,0.0,0.0,0.0,0.0,0.0,0.0,0.0,0.0,0.0,0.0,0.0,0.0,0.0,0.0,0.0,0.0,0.0,0.0,0.0,0.0,0.0,0.0,0.0,0.0,0.0,0.0,0.0,0.0,0.0,0.0,0.0,0.0,0.0,0.0,0.0,0.0,0.0,0.0,0.0,0.0,0.0,0.0,0.0,0.0,0.0,0.0,0.0,0.0,0.0,0.0,0.0,0.0,0.0,0.0,0.0,0.0,0.0,0.0,0.0,0.0,0.0,0.0,0.0,0.0,0.0,0.0,0.0,0.0,0.0,0.0,0.0,0.0,0.0,0.0,0.0,0.0,0.0,0.0,0.0,0.0,0.0,0.0,0.0,0.0,0.0,0.0,0.0,0.0,0.0,-0.4962,-0.5086,-0.5705,-0.5668,-0.5261,0.0,0.0,0.0,0.0,0.0,0.0,0.0,0.0,0.0,0.0,0.0,0.0,0.0,0.0,0.0,0.0,0.0,0.0,0.0,0.0,0.0,0.0,0.0,0.0,0.0,0.0,0.0,0.0,0.0,0.0,0.0,0.0,0.0,0.0,0.0,0.0,0.0,0.0,0.0,0.0,0.0,0.0,0.0,0.0,0.0,0.0,0.0,0.0,0.0,0.0,0.0,0.0,0.0,0.0,0.0,0.0,0.0,0.0,0.0,0.0,0.0,0.0,0.0,0.0,0.0,0.0,0.0,0.0,0.0,0.0,0.0,0.0,0.0,0.0,0.0,0.0,0.0,0.0,0.0,0.0,0.0,0.0,0.0,0.0,0.0,0.0,0.0,0.0,0.0,0.0,0.0,0.0,0.0,0.0,0.0,0.0,0.0,0.0,0.0,0.0,0.0,0.0,0.0,0.0,0.0,0.0,0.0,0.0,0.0,-0.4442,-0.4682,-0.5266,-0.6199,-0.5355,-0.4896,0.0,0.0,0.0,0.0,0.0,0.0,0.0,0.0,0.0,0.0,0.0,0.0,0.0,0.0,0.0,0.0,0.0,0.0,0.0,0.0,0.0,0.0,0.0,0.0,0.0,0.0,0.0,0.0,0.0,0.0,0.0,0.0,0.0,0.0,0.0,0.0,0.0,0.0,0.0,0.0,0.0,0.0,0.0,0.0,0.0,0.0,0.0,0.0,0.0,0.0,0.0,0.0,0.0,0.0,0.0,0.0,0.0,0.0,0.0,0.0,0.0,0.0,0.0,0.0,0.0,0.0,0.0,0.0,0.0,0.0,0.0,0.0,0.0,0.0,0.0,0.0,0.0,0.0,0.0,0.0,0.0,0.0,0.0,0.0,0.0,0.0,0.0,0.0,0.0,0.0,0.0,0.0,0.0,0.0,0.0,0.0,0.0,0.0,0.0,0.0,0.0,0.0,0.0,0.0,0.0,0.0,0.0,0.0,0.0,-0.4415,0.0,-0.5605,0.0,-0.5257,-0.475,0.0,0.0,0.0,0.0,0.0,0.0,0.0,0.0,0.0,0.0,0.0,0.0,0.0,0.0,0.0,0.0,0.0,0.0,0.0,0.0,0.0,0.0,0.0,0.0,0.0,0.0,0.0,0.0,0.0,0.0,0.0,0.0,0.0,0.0,0.0,0.0,0.0,0.0,0.0,0.0,0.0,0.0,0.0,0.0,0.0,0.0,0.0,0.0,0.0,0.0,0.0,0.0,0.0,0.0,0.0,0.0,0.0,0.0,0.0,0.0,0.0,0.0,0.0,0.0,0.0,0.0,0.0,0.0,0.0,0.0,0.0,0.0,0.0,0.0,0.0,0.0,0.0,0.0,0.0,0.0,0.0,0.0,0.0,0.0,0.0,0.0,0.0,0.0,0.0,0.0,0.0,0.0,0.0,0.0,0.0,0.0,0.0,0.0,0.0,0.0,0.0,0.0,0.0,0.0,0.0,0.0,0.0,0.0,-0.4442,-0.5269,-0.5846,-0.6035,-0.5738,-0.5424,-0.4899,0.0,0.0,0.0,0.0,0.0,0.0,0.0,0.0,0.0,0.0,0.0,0.0,0.0,0.0,0.0,0.0,0.0,0.0,0.0,0.0,0.0,0.0,0.0,0.0,0.0,0.0,0.0,0.0,0.0,0.0,0.0,0.0,0.0,0.0,0.0,0.0,0.0,0.0,0.0,0.0,0.0,0.0,0.0,0.0,0.0,0.0,0.0,0.0,0.0,0.0,0.0,0.0,0.0,0.0,0.0,0.0,0.0,0.0,0.0,0.0,0.0,0.0,0.0,0.0,0.0,0.0,0.0,0.0,0.0,0.0,0.0,0.0,0.0,0.0,0.0,0.0,0.0,0.0,0.0,0.0,0.0,0.0,0.0,0.0,0.0,0.0,0.0,0.0,0.0,0.0,0.0,0.0,0.0,0.0,0.0,0.0,0.0,0.0,0.0,0.0,0.0,0.0,0.0,0.0,0.0,0.0,0.0,0.0,0.0,-0.5316,-0.5658,-0.6099,-0.6534,-0.5528,-0.5137,0.0,0.0,0.0,0.0,0.0,0.0,0.0,0.0,0.0,0.0,0.0,0.0,0.0,0.0,0.0,0.0,0.0,0.0,0.0,0.0,0.0,0.0,0.0,0.0,0.0,0.0,0.0,0.0,0.0,0.0,0.0,0.0,0.0,0.0,0.0,0.0,0.0,0.0,0.0,0.0,0.0,0.0,0.0,0.0,0.0,0.0,0.0,0.0,0.0,0.0,0.0,0.0,0.0,0.0,0.0,0.0,0.0,0.0,0.0,0.0,0.0,0.0,0.0,0.0,0.0,0.0,0.0,0.0,0.0,0.0,0.0,0.0,0.0,0.0,0.0,0.0,0.0,0.0,0.0,0.0,0.0,0.0,0.0,0.0,0.0,0.0,0.0,0.0,0.0,0.0,0.0,0.0,0.0,0.0,0.0,0.0,0.0,0.0,0.0,0.0,0.0,0.0,0.0,0.0,0.0,0.0,0.0,0.0,0.0,-0.6137,-0.6386,-0.6673,-0.6986,-0.5919,-0.5501,-0.582,0.0,0.0,0.0,0.0,0.0,0.0,0.0,0.0,0.0,0.0,0.0,0.0,0.0,0.0,0.0,0.0,0.0,0.0,0.0,0.0,0.0,0.0,0.0,0.0,0.0,0.0,0.0,0.0,0.0,0.0,0.0,0.0,0.0,0.0,0.0,0.0,0.0,0.0,0.0,0.0,0.0,0.0,0.0,0.0,0.0,0.0,0.0,0.0,0.0,0.0,0.0,0.0,0.0,0.0,0.0,0.0,0.0,0.0,0.0,0.0,0.0,0.0,0.0,0.0,0.0,0.0,0.0,0.0,0.0,0.0,0.0,0.0,0.0,0.0,0.0,0.0,0.0,0.0,0.0,0.0,0.0,0.0,0.0,0.0,0.0,0.0,0.0,0.0,0.0,0.0,0.0,0.0,0.0,0.0,0.0,0.0,0.0,0.0,0.0,0.0,0.0,0.0,0.0,0.0,0.0,0.0,0.0,0.0,-0.7538,-0.7856,-0.7706,-0.7106,-0.6559,-0.5988,0.0,0.0,0.0,0.0,0.0,0.0,0.0,0.0,0.0,0.0,0.0,0.0,0.0,0.0,0.0,0.0,0.0,0.0,0.0,0.0,0.0,0.0,0.0,0.0,0.0,0.0,0.0,0.0,0.0,0.0,0.0,0.0,0.0,0.0,0.0,0.0,0.0,0.0,0.0,0.0,0.0,0.0,0.0,0.0,0.0,0.0,0.0,0.0,0.0,0.0,0.0,0.0,0.0,0.0,0.0,0.0,0.0,0.0,0.0,0.0,0.0,0.0,0.0,0.0,0.0,0.0,0.0,0.0,0.0,0.0,0.0,0.0,0.0,0.0,0.0,0.0,0.0,0.0,0.0,0.0,0.0,0.0,0.0,0.0,0.0,0.0,0.0,0.0,0.0,0.0,0.0,0.0,0.0,0.0,0.0,0.0,0.0,0.0,0.0,0.0,0.0,0.0,0.0,0.0,0.0,0.0,0.0,0.0,0.0,-0.8161,-0.8878,-0.8844,-0.8049,-0.7457,-0.6888,0.0,0.0,0.0,0.0,0.0,0.0,0.0,0.0,0.0,0.0,0.0,0.0,0.0,0.0,0.0,0.0,0.0,0.0,0.0,0.0,0.0,0.0,0.0,0.0,0.0,0.0,0.0,0.0,0.0,0.0,0.0,0.0,0.0,0.0,0.0,0.0,0.0,0.0,0.0,0.0,0.0,0.0,0.0,0.0,0.0,0.0,0.0,0.0,0.0,0.0,0.0,0.0,0.0,0.0,0.0,0.0,0.0,0.0,0.0,0.0,0.0,0.0,0.0,0.0,0.0,0.0,0.0,0.0,0.0,0.0,0.0,0.0,0.0,0.0,0.0,0.0,0.0,0.0,0.0,0.0,0.0,0.0,0.0,0.0,0.0,0.0,0.0,0.0,0.0,0.0,0.0,0.0,0.0,0.0,0.0,0.0,0.0,0.0,0.0,0.0,0.0,0.0,0.0,0.0,0.0,0.0,0.0,0.0,-0.8016,-0.8724,-0.9479,-0.9566,-0.8965,-0.8255,-0.7508,0.0,0.0,0.0,0.0,0.0,0.0,0.0,0.0,0.0,0.0,0.0,0.0,0.0,0.0,0.0,0.0,0.0,0.0,0.0,0.0,0.0,0.0,0.0,0.0,0.0,0.0,0.0,0.0,0.0,0.0,0.0,0.0,0.0,0.0,0.0,0.0,0.0,0.0,0.0,0.0,0.0,0.0,0.0,0.0,0.0,0.0,0.0,0.0,0.0,0.0,0.0,0.0,0.0,0.0,0.0,0.0,0.0,0.0,0.0,0.0,0.0,0.0,0.0,0.0,0.0,0.0,0.0,0.0,0.0,0.0,0.0,0.0,0.0,0.0,0.0,0.0,0.0,0.0,0.0,0.0,0.0,0.0,0.0,0.0,0.0,0.0,0.0,0.0,0.0,0.0,0.0,0.0,0.0,0.0,0.0,0.0,0.0,0.0,0.0,0.0,0.0,0.0,0.0,0.0,0.0,0.0,0.0,0.0,-0.8459,-0.9274,-0.9899,-1.011,-0.9749,-0.8911,-0.8023,0.0,0.0,0.0,0.0,0.0,0.0,0.0,0.0,0.0,0.0,0.0,0.0,0.0,0.0,0.0,0.0,0.0,0.0,0.0,0.0,0.0,0.0,0.0,0.0,0.0,0.0,0.0,0.0,0.0,0.0,0.0,0.0,0.0,0.0,0.0,0.0,0.0,0.0,0.0,0.0,0.0,0.0,0.0,0.0,0.0,0.0,0.0,0.0,0.0,0.0,0.0,0.0,0.0,0.0,0.0,0.0,0.0,0.0,0.0,0.0,0.0,0.0,0.0,0.0,0.0,0.0,0.0,0.0,0.0,0.0,0.0,0.0,0.0,0.0,0.0,0.0,0.0,0.0,0.0,0.0,0.0,0.0,0.0,0.0,0.0,0.0,0.0,0.0,0.0,0.0,0.0,0.0,0.0,0.0,0.0,0.0,0.0,0.0,0.0,0.0,0.0,0.0,0.0,0.0,0.0,0.0,0.0,0.0,-0.9296,-0.9899,-1.0744,-1.0838,-1.0033,-0.9364,-0.853,0.0,0.0,0.0,0.0,0.0,0.0,0.0,0.0,0.0,0.0,0.0,0.0,0.0,0.0,0.0,0.0,0.0,0.0,0.0,0.0,0.0,0.0,0.0,0.0,0.0,0.0,0.0,0.0,0.0,0.0,0.0,0.0,0.0,0.0,0.0,0.0,0.0,0.0,0.0,0.0,0.0,0.0,0.0,0.0,0.0,0.0,0.0,0.0,-0.352,0.0,0.0,0.0,0.0,0.0,0.0,0.0,0.0,0.0,0.0,0.0,0.0,0.0,0.0,0.0,0.0,0.0,0.0,0.0,0.0,0.0,0.0,0.0,0.0,0.0,0.0,0.0,0.0,0.0,0.0,0.0,0.0,0.0,0.0,0.0,0.0,0.0,0.0,0.0,0.0,0.0,0.0,0.0,0.0,0.0,0.0,0.0,0.0,0.0,0.0,0.0,0.0,0.0,0.0,0.0,0.0,0.0,0.0,0.0,-0.9953,-1.055,-1.0906,-1.0819,-1.0345,-0.976,-0.8965,0.0,0.0,0.0,0.0,0.0,0.0,0.0,0.0,0.0,0.0,0.0,0.0,0.0,0.0,0.0,0.0,0.0,0.0,0.0,0.0,0.0,0.0,0.0,0.0,0.0,0.0,0.0,0.0,0.0,0.0,0.0,0.0,0.0,0.0,0.0,0.0,0.0,0.0,0.0,0.0,0.0,0.0,0.0,0.0,0.0,0.0,0.0,0.0,0.0,0.0,0.0,0.0,0.0,0.0,0.0,0.0,0.0,0.0,0.0,0.0,0.0,0.0,0.0,0.0,0.0,0.0,0.0,0.0,0.0,0.0,0.0,0.0,0.0,0.0,0.0,0.0,0.0,0.0,0.0,0.0,0.0,0.0,0.0,0.0,0.0,0.0,0.0,0.0,0.0,0.0,0.0,0.0,0.0,0.0,0.0,0.0,0.0,0.0,0.0,0.0,0.0,0.0,0.0,0.0,0.0,0.0,0.0,-0.9482,-1.0444,-1.1041,-1.0867,-1.0713,-1.0586,-1.0023,-0.9292,-0.8489,0.0,0.0,0.0,0.0,0.0,0.0,0.0,0.0,0.0,0.0,0.0,0.0,0.0,0.0,0.0,0.0,0.0,0.0,0.0,0.0,0.0,0.0,0.0,0.0,0.0,0.0,0.0,0.0,0.0,0.0,0.0,0.0,0.0,0.0,0.0,0.0,0.0,0.0,-0.3302,-0.4467,0.0,0.0,0.0,0.0,0.0,0.0,0.0,0.0,-0.4658,0.0,0.0,0.0,0.0,0.0,0.0,0.0,0.0,0.0,0.0,0.0,0.0,0.0,0.0,0.0,0.0,0.0,0.0,0.0,0.0,0.0,0.0,0.0,0.0,0.0,0.0,0.0,0.0,0.0,0.0,0.0,0.0,0.0,0.0,0.0,0.0,0.0,0.0,0.0,0.0,0.0,0.0,0.0,0.0,0.0,0.0,0.0,0.0,0.0,0.0,0.0,0.0,0.0,0.0,0.0,0.0,-0.8971,-0.989,-1.0554,-1.0907,-1.1223,-1.1083,-1.0604,-1.0017,-0.9414,-0.8738,0.0,0.0,0.0,0.0,0.0,0.0,0.0,0.0,0.0,0.0,0.0,0.0,0.0,0.0,0.0,0.0,0.0,0.0,0.0,0.0,0.0,0.0,0.0,0.0,0.0,0.0,0.0,0.0,0.0,0.0,0.0,0.0,0.0,0.0,0.0,0.0,0.0,0.0,0.0,-0.5624,-0.6425,0.0,0.0,0.0,0.0,0.0,0.0,0.0,0.0,-0.4825,0.0,0.0,0.0,0.0,0.0,0.0,0.0,0.0,0.0,0.0,0.0,0.0,0.0,0.0,0.0,0.0,0.0,0.0,0.0,0.0,0.0,0.0,0.0,0.0,0.0,0.0,0.0,0.0,0.0,0.0,0.0,0.0,0.0,0.0,0.0,0.0,0.0,0.0,0.0,0.0,0.0,0.0,0.0,0.0,0.0,0.0,0.0,0.0,0.0,0.0,0.0,0.0,0.0,0.0,0.0,-0.9502,-1.0492,-1.1392,-1.2204,-1.1766,-1.1365,-1.1069,-1.0016,-0.9252,0.0,0.0,0.0,0.0,0.0,0.0,0.0,0.0,0.0,0.0,0.0,0.0,0.0,0.0,0.0,0.0,0.0,0.0,0.0,0.0,0.0,0.0,0.0,0.0,0.0,0.0,0.0,0.0,0.0,0.0,0.0,0.0,0.0,0.0,0.0,0.0,0.0,0.0,0.0,0.0,-0.651,-0.6959,-0.6762,0.0,0.0,0.0,0.0,0.0,0.0,-0.5597,-0.5234,0.0,0.0,0.0,0.0,0.0,0.0,0.0,0.0,0.0,0.0,0.0,0.0,0.0,0.0,0.0,0.0,0.0,0.0,0.0,0.0,0.0,0.0,0.0,0.0,0.0,0.0,0.0,0.0,0.0,0.0,0.0,0.0,0.0,0.0,0.0,0.0,0.0,0.0,0.0,0.0,0.0,0.0,0.0,0.0,0.0,0.0,0.0,0.0,0.0,0.0,0.0,0.0,0.0,0.0,0.0,-0.9579,-1.0643,-1.1728,-1.2824,-1.188,-1.1334,-1.132,-1.0015,-0.9138,0.0,0.0,0.0,0.0,0.0,0.0,0.0,0.0,0.0,0.0,0.0,0.0,0.0,0.0,0.0,0.0,0.0,0.0,0.0,0.0,0.0,0.0,0.0,0.0,0.0,0.0,0.0,0.0,0.0,0.0,0.0,0.0,0.0,0.0,0.0,0.0,0.0,0.0,0.0,0.0,0.0,-0.7496,-0.7559,-0.7447,0.0,0.0,0.0,0.0,-0.6664,-0.6477,0.0,0.0,0.0,0.0,0.0,0.0,0.0,0.0,0.0,0.0,0.0,0.0,0.0,0.0,0.0,0.0,0.0,0.0,0.0,0.0,0.0,0.0,0.0,0.0,0.0,0.0,0.0,0.0,0.0,0.0,0.0,0.0,0.0,0.0,0.0,0.0,0.0,0.0,0.0,0.0,0.0,0.0,0.0,0.0,0.0,0.0,0.0,0.0,0.0,0.0,0.0,0.0,0.0,0.0,0.0,0.0,-0.8535,-0.9565,-1.0351,-1.0878,-1.0807,-1.0713,-1.0706,-1.0013,-0.9372,0.0,0.0,0.0,0.0,0.0,0.0,0.0,0.0,0.0,0.0,0.0,0.0,0.0,0.0,0.0,0.0,0.0,0.0,0.0,0.0,0.0,0.0,0.0,0.0,0.0,0.0,0.0,0.0,0.0,0.0,0.0,0.0,0.0,0.0,0.0,0.0,0.0,0.0,0.0,0.0,0.0,-0.8373,-0.7249,-0.7759,-0.8076,0.0,0.0,-0.8023,-0.7622,-0.7861,0.0,0.0,0.0,0.0,0.0,0.0,0.0,0.0,0.0,0.0,0.0,0.0,0.0,0.0,0.0,0.0,0.0,0.0,0.0,0.0,0.0,0.0,0.0,0.0,0.0,0.0,0.0,0.0,0.0,0.0,0.0,0.0,0.0,0.0,0.0,0.0,0.0,0.0,0.0,0.0,0.0,0.0,0.0,0.0,0.0,0.0,0.0,0.0,0.0,0.0,0.0,0.0,0.0,0.0,0.0,-0.7306,-0.888,-0.9843,-1.0777,-1.1626,-1.1296,-1.1115,-1.1122,-1.0032,-0.9152,0.0,0.0,0.0,0.0,0.0,0.0,0.0,0.0,0.0,0.0,0.0,0.0,0.0,0.0,0.0,0.0,0.0,0.0,0.0,0.0,0.0,0.0,0.0,0.0,0.0,0.0,0.0,0.0,0.0,0.0,0.0,0.0,0.0,0.0,0.0,0.0,0.0,0.0,0.0,0.0,0.0,0.0,-0.8386,-0.8561,0.0,0.0,0.0,-0.8672,-0.8461,0.0,0.0,0.0,0.0,0.0,0.0,0.0,0.0,0.0,0.0,0.0,0.0,0.0,0.0,0.0,0.0,0.0,0.0,0.0,0.0,0.0,0.0,0.0,0.0,0.0,0.0,0.0,0.0,0.0,0.0,0.0,0.0,0.0,0.0,0.0,0.0,0.0,0.0,0.0,0.0,0.0,0.0,0.0,0.0,0.0,0.0,0.0,0.0,0.0,0.0,0.0,0.0,0.0,0.0,0.0,0.0,0.0,-0.9301,-1.0071,-1.0975,-1.1966,-1.1538,-1.1264,-1.125,-0.9925,0.0,0.0,0.0,0.0,0.0,0.0,0.0,0.0,0.0,0.0,0.0,0.0,0.0,0.0,0.0,0.0,0.0,0.0,0.0,0.0,0.0,0.0,0.0,0.0,0.0,0.0,0.0,-0.2447,0.0,0.0,0.0,0.0,0.0,0.0,0.0,0.0,0.0,0.0,0.0,0.0,0.0,0.0,-0.8701,-0.915,-0.918,-0.9219,0.0,0.0,-0.9287,-0.9162,-0.8984,-0.8512,0.0,0.0,0.0,0.0,0.0,0.0,0.0,0.0,0.0,0.0,0.0,0.0,0.0,0.0,0.0,0.0,0.0,0.0,0.0,0.0,0.0,0.0,0.0,0.0,0.0,0.0,0.0,0.0,0.0,0.0,0.0,0.0,0.0,0.0,0.0,0.0,0.0,0.0,0.0,0.0,0.0,0.0,0.0,0.0,0.0,0.0,0.0,0.0,0.0,0.0,0.0,0.0,0.0,0.0,0.0,-0.9393,-0.9674,-1.0086,-1.0685,-1.0681,-1.0656,-1.0636,-0.9699,-0.8944,0.0,0.0,0.0,0.0,0.0,0.0,0.0,0.0,0.0,0.0,0.0,0.0,0.0,0.0,0.0,0.0,0.0,0.0,0.0,0.0,0.0,0.0,0.0,0.0,0.0,0.0,0.0,0.0,0.0,0.0,0.0,0.0,0.0,0.0,0.0,0.0,0.0,0.0,0.0,0.0,0.0,-0.888,-0.8675,-0.9172,-0.9533,0.0,0.0,-1.0059,-0.964,-0.9902,-0.959,-0.7934,0.0,0.0,0.0,0.0,0.0,0.0,0.0,0.0,0.0,0.0,0.0,0.0,0.0,0.0,0.0,0.0,0.0,0.0,0.0,0.0,0.0,0.0,0.0,0.0,0.0,0.0,0.0,0.0,0.0,0.0,0.0,0.0,0.0,0.0,0.0,0.0,0.0,0.0,0.0,0.0,0.0,0.0,0.0,0.0,0.0,0.0,0.0,0.0,0.0,0.0,0.0,0.0,0.0,-0.7154,-0.9033,-0.9491,-0.9997,-1.0559,-1.0586,-1.0586,-1.0586,-0.9909,-0.9158,0.0,0.0,0.0,0.0,0.0,0.0,0.0,0.0,0.0,0.0,0.0,0.0,0.0,0.0,0.0,0.0,0.0,0.0,0.0,0.0,0.0,0.0,0.0,0.0,0.0,0.0,0.0,0.0,-0.3267,-0.3206,-0.2962,0.0,0.0,0.0,0.0,0.0,0.0,0.0,0.0,0.0,0.0,-0.9435,-0.9609,-0.9863,0.0,0.0,-1.0156,-1.0225,-1.0059,-0.9951,-0.9464,-0.8311,-0.7895,0.0,0.0,0.0,0.0,0.0,0.0,0.0,0.0,0.0,0.0,0.0,0.0,0.0,0.0,0.0,0.0,0.0,0.0,0.0,0.0,0.0,0.0,0.0,0.0,0.0,0.0,0.0,0.0,0.0,0.0,0.0,0.0,0.0,0.0,0.0,0.0,0.0,0.0,0.0,0.0,0.0,0.0,0.0,0.0,0.0,0.0,0.0,0.0,0.0,0.0,0.0,0.0,-0.7263,-0.9171,-0.9526,-0.9997,-1.0579,-1.0586,-1.0586,-1.0573,-0.99,-0.9185,0.0,0.0,0.0,0.0,0.0,0.0,0.0,0.0,0.0,0.0,0.0,0.0,0.0,0.0,0.0,0.0,0.0,0.0,0.0,0.0,0.0,0.0,0.0,0.0,0.0,0.0,0.0,0.0,-0.366,-0.3505,-0.3237,0.0,0.0,0.0,0.0,0.0,0.0,0.0,0.0,0.0,0.0,-0.9767,-1.0234,-1.0322,-1.0342,-1.0508,-1.0391,-1.0352,-1.0469,-1.0186,-0.9708,-0.8896,0.0,0.0,0.0,0.0,0.0,0.0,0.0,0.0,0.0,0.0,0.0,0.0,0.0,0.0,0.0,0.0,0.0,0.0,0.0,0.0,0.0,0.0,0.0,0.0,0.0,0.0,0.0,-0.5718,0.0,0.0,-0.5342,0.0,0.0,0.0,0.0,0.0,0.0,0.0,0.0,0.0,0.0,0.0,0.0,0.0,0.0,0.0,0.0,0.0,0.0,0.0,0.0,0.0,0.0,-0.7744,-1.0038,-0.9841,-1.0003,-1.0566,-1.0586,-1.0586,-1.0573,-0.9719,-0.8951,-0.8409,0.0,0.0,0.0,0.0,0.0,0.0,0.0,0.0,0.0,0.0,0.0,0.0,0.0,0.0,0.0,0.0,0.0,0.0,0.0,0.0,0.0,0.0,0.0,0.0,0.0,0.0,-0.3837,-0.3447,-0.3237,0.0,0.0,0.0,0.0,0.0,0.0,0.0,0.0,0.0,0.0,-0.9338,-0.9776,-1.0244,-1.0332,-1.0508,-1.1005,-1.0654,-1.0439,-1.084,-1.0879,-1.0576,0.0,0.0,0.0,0.0,0.0,0.0,0.0,0.0,0.0,0.0,0.0,0.0,0.0,0.0,0.0,0.0,0.0,0.0,0.0,0.0,0.0,0.0,0.0,0.0,0.0,0.0,0.0,-0.7182,-0.6908,0.0,0.0,0.0,0.0,0.0,0.0,0.0,0.0,0.0,0.0,0.0,-0.8459,-0.8871,0.0,0.0,0.0,0.0,0.0,0.0,0.0,0.0,0.0,0.0,0.0,0.0,-0.792,-0.9991,-1.0006,-1.016,-1.0579,-1.0586,-1.0586,-1.0586,-1.008,-0.9244,-0.8116,0.0,0.0,0.0,0.0,0.0,0.0,0.0,0.0,0.0,0.0,0.0,0.0,0.0,0.0,0.0,0.0,0.0,0.0,0.0,0.0,0.0,0.0,0.0,0.0,0.0,-0.4394,0.0,0.0,0.0,0.0,0.0,0.0,0.0,0.0,0.0,0.0,0.0,-0.8467,-0.9299,-1.001,-1.0527,-1.0684,-1.0968,-1.1243,0.0,0.0,0.0,0.0,0.0,0.0,0.0,0.0,0.0,0.0,0.0,0.0,0.0,0.0,-1.0374,-0.8274,-0.7229,-0.6806,-0.7273,0.0,0.0,0.0,0.0,0.0,0.0,0.0,0.0,0.0,0.0,0.0,0.0,0.0,0.0,-0.8424,0.0,-0.8147,0.0,0.0,0.0,0.0,0.0,0.0,0.0,0.0,-0.9245,-0.9619,-0.9713,-1.0094,-1.0067,0.0,-0.9613,-0.8811,0.0,0.0,0.0,0.0,0.0,0.0,0.0,0.0,-0.8194,-0.9924,-1.0077,-1.0261,-1.0573,-1.0586,-1.0586,-1.0579,-1.0074,-0.9291,-0.8245,-0.7482,-0.678,0.0,0.0,0.0,0.0,0.0,0.0,0.0,0.0,0.0,0.0,0.0,0.0,0.0,0.0,0.0,0.0,0.0,0.0,0.0,0.0,0.0,0.0,0.0,-0.4953,0.0,0.0,0.0,0.0,0.0,0.0,0.0,0.0,0.0,-0.7924,-0.8584,-0.9314,-0.998,-1.0684,-1.1164,-1.1143,0.0,0.0,0.0,0.0,0.0,0.0,0.0,-1.1394,-1.1351,-1.1336,-1.1257,-1.1169,-1.1543,-1.1965,-1.2234,0.0,0.0,-1.0093,-0.9083,-0.8623,-0.9055,-0.9466,-0.983,-1.0182,-1.0657,-1.1046,0.0,0.0,0.0,0.0,0.0,0.0,0.0,0.0,-0.978,-0.9802,0.0,-0.9417,0.0,0.0,0.0,0.0,0.0,-0.8858,0.0,0.0,-1.0628,-1.0914,-1.068,-1.07,-1.0673,-1.066,-1.0921,-1.0555,-0.9639,-0.7996,0.0,0.0,0.0,0.0,0.0,0.0,-0.8591,-0.9936,-1.0089,-1.0274,-1.06,-1.0631,-1.0586,-1.0573,-0.9719,-0.9104,-0.8818,-0.8218,-0.7626,-0.702,-0.6297,0.0,0.0,0.0,0.0,0.0,0.0,0.0,0.0,0.0,0.0,0.0,0.0,0.0,0.0,0.0,0.0,0.0,0.0,0.0,0.0,-0.5557,0.0,0.0,0.0,0.0,0.0,0.0,0.0,0.0,0.0,0.0,-0.8571,-0.9549,-1.0459,-1.0869,0.0,0.0,0.0,0.0,-1.179,-1.2164,-1.1907,-1.179,-1.2164,-1.2309,-1.2255,-1.1922,0.0,0.0,-1.2126,-1.2462,-1.2757,-1.2667,-1.2656,-1.2762,-1.3094,-1.2543,-1.2243,-1.23,-1.225,-1.2375,-1.2441,-1.2638,-1.3023,-1.2164,0.0,0.0,0.0,0.0,-1.0895,-1.1209,-1.1886,-1.1643,-1.1436,-1.1263,-1.0929,0.0,0.0,0.0,0.0,0.0,0.0,-1.0593,-1.129,-1.1717,-1.2027,-1.2204,-1.2388,-1.2225,-1.181,-1.1884,-1.1476,-1.0621,-1.0114,-0.9072,-0.7569,0.0,0.0,0.0,0.0,-0.9357,-1.0846,-1.0619,-1.0575,-1.0894,-1.07,-1.0586,-1.0586,-0.9943,-0.9419,-0.9098,-0.8557,-0.7869,-0.704,-0.6619,0.0,0.0,0.0,0.0,0.0,0.0,0.0,0.0,0.0,0.0,0.0,0.0,0.0,0.0,0.0,0.0,0.0,0.0,0.0,-0.5951,-0.644,-0.6643,0.0,0.0,0.0,0.0,0.0,0.0,0.0,0.0,0.0,-1.0117,-1.0498,-1.0909,0.0,0.0,-1.2031,-1.2041,-1.2328,-1.2573,-1.2676,-1.2612,0.0,-1.2676,-1.2445,-1.2391,-1.2746,-1.3121,-1.3331,-1.3153,-1.3245,-1.3292,-1.3226,-1.3202,-1.3325,-1.3734,-1.3138,-1.265,-1.2863,-1.296,-1.296,-1.2985,-1.311,-1.3223,-1.4188,-1.2966,-1.2572,-1.2502,-1.2559,-1.2378,-1.2672,-1.33,-1.2959,-1.2799,-1.2764,-1.2311,-1.177,-1.1129,-1.0608,0.0,0.0,0.0,-1.1631,-1.2261,-1.2525,-1.2759,-1.2978,-1.3126,-1.3019,-1.2672,-1.2665,-1.2265,-1.1516,-1.1516,-1.0708,-0.9178,0.0,0.0,-0.9714,-0.9459,-0.9955,-1.1146,-1.1036,-1.0968,-1.0982,-1.074,-1.0586,-1.0573,-1.0017,-0.9599,-0.9419,-0.8858,-0.8237,-0.7589,-0.7154,-0.6613,0.0,0.0,0.0,0.0,0.0,0.0,0.0,0.0,0.0,0.0,0.0,-0.4087,0.0,0.0,0.0,0.0,-0.5546,-0.6459,-0.7355,-0.769,0.0,0.0,0.0,0.0,0.0,0.0,0.0,-0.9687,-1.0273,-1.0839,-1.1346,-1.156,-1.1728,-1.1807,-1.2207,-1.2467,-1.249,0.0,-1.3154,-1.3213,-1.3311,-1.3345,-1.3229,-1.2983,-1.2918,-1.3232,-1.342,-1.3539,-1.3586,-1.3558,-1.354,-1.3554,-1.3507,-1.3641,-1.418,-1.3837,-1.3571,-1.3827,-1.3873,-1.3867,-1.3867,-1.3867,-1.3804,-1.5959,-1.5351,-1.4015,-1.3547,-1.3733,-1.372,-1.3908,-1.4128,-1.3868,-1.386,-1.4115,-1.3567,-1.3126,-1.2804,-1.1944,0.0,-1.206,-1.2291,-1.261,-1.2904,-1.3153,-1.328,-1.328,-1.3287,-1.3273,-1.3247,-1.3247,-1.2946,-1.2392,-1.2371,-1.1951,-1.1129,-1.0338,-1.0157,-1.0586,-1.0321,-1.0474,-1.1056,-1.1296,-1.1249,-1.0995,-1.076,-1.0606,-1.0546,-1.001,-0.9702,-0.9633,-0.9078,-0.8644,-0.8362,-0.7826,-0.7256,-0.6646,0.0,0.0,0.0,0.0,0.0,0.0,0.0,0.0,0.0,0.0,0.0,0.0,0.0,0.0,0.0,-0.7029,0.0,-0.8919,-0.9016,0.0,0.0,0.0,-0.9131,-0.9199,-0.9931,-1.0567,-1.0967,0.0,0.0,-1.2301,-1.2676,-1.2793,-1.2408,-1.2695,-1.2944,-1.2915,-1.3262,-1.3588,-1.3805,-1.3984,-1.4047,-1.3803,-1.3725,-1.3591,-1.3419,-1.3409,-1.3457,-1.3573,-1.361,-1.361,-1.3613,-1.361,-1.3779,-1.4292,-1.4642,-1.5043,-1.4915,-1.494,-1.4953,-1.4909,-1.4846,-1.4657,-1.6241,-1.6087,-1.5691,-1.5331,-1.4963,-1.4743,-1.4733,-1.4794,-1.4676,-1.4689,-1.4774,-1.4369,-1.3921,-1.3407,-1.2979,-1.2907,-1.3187,-1.3253,-1.348,-1.3802,-1.3841,-1.3874,-1.3881,-1.3881,-1.3761,-1.3507,-1.3507,-1.3313,-1.3006,-1.2999,-1.2766,-1.2368,-1.1891,-1.1416,-1.0909,-1.0822,-1.1076,-1.1685,-1.1503,-1.1289,-1.1002,-1.0922,-1.0681,-1.0227,-0.9873,-0.9573,-0.9317,-0.8784,-0.8343,-0.8056,-0.7872,-0.7526,-0.692,-0.6191,0.0,0.0,0.0,0.0,0.0,0.0,0.0,0.0,0.0,-0.61,-0.509,0.0,-0.6809,0.0,-0.8567,-0.9096,-0.9006,-0.927,0.0,0.0,-0.9922,-1.0254,-1.092,-1.1154,-1.1426,-1.1843,-1.2086,-1.2457,-1.31,-1.3291,-1.3437,-1.3617,-1.3486,-1.3242,-1.2959,-1.3525,-1.4109,-1.4505,-1.4456,-1.4351,-1.4363,-1.4164,-1.3851,-1.3467,-1.3491,-1.3563,-1.3586,-1.361,-1.361,-1.361,-1.361,-1.38,-1.4303,-1.4489,-1.4846,-1.5408,-1.5554,-1.5512,-1.5492,-1.5198,-1.4859,-1.671,-1.669,-1.638,-1.6159,-1.5965,-1.5805,-1.5712,-1.5584,-1.5404,-1.5323,-1.5182,-1.485,-1.4536,-1.4222,-1.4062,-1.4075,-1.4215,-1.4088,-1.4079,-1.4269,-1.4148,-1.4088,-1.4088,-1.4088,-1.4001,-1.38,-1.38,-1.3646,-1.3373,-1.3407,-1.3253,-1.2991,-1.269,-1.2295,-1.1812,-1.1551,-1.161,-1.2051,-1.177,-1.1483,-1.1196,-1.1056,-1.0715,-1.014,-0.9833,-0.9613,-0.9411,-0.8878,-0.849,-0.8323,-0.8052,-0.7759,-0.7413,-0.674,-0.6453,0.0,0.0,0.0,0.0,0.0,0.0,0.0,0.0,0.0,0.0,0.0,-0.8094,-0.9108,-0.963,-0.998,-1.0127,-1.0507,-1.078,-1.087,-1.1232,-1.1575,-1.1836,-1.2054,-1.2338,-1.272,-1.2779,-1.3022,-1.3665,-1.3789,-1.3831,-1.4075,-1.4075,-1.4001,-1.388,-1.4218,-1.4715,-1.5257,-1.5207,-1.5007,-1.4952,-1.447,-1.4036,-1.3767,-1.36,-1.3539,-1.3586,-1.361,-1.361,-1.361,-1.361,-1.3692,-1.3988,-1.4443,-1.4903,-1.5343,-1.5788,-1.6007,-1.6057,-1.5819,-1.5555,-1.6987,-1.6947,-1.6544,-1.6506,-1.6714,-1.6787,-1.6613,-1.6259,-1.6046,-1.5778,-1.5491,-1.5209,-1.5062,-1.5062,-1.5022,-1.5015,-1.4995,-1.4696,-1.4512,-1.4459,-1.4255,-1.4128,-1.4088,-1.4088,-1.4088,-1.4088,-1.4088,-1.3955,-1.366,-1.366,-1.3554,-1.326,-1.2953,-1.2824,-1.2764,-1.2234,-1.2051,-1.2291,-1.2087,-1.1764,-1.1395,-1.1182,-1.0735,-1.0094,-0.9853,-0.9715,-0.9595,-0.9078,-0.8784,-0.8738,-0.8278,-0.7999,-0.7952,-0.7248,-0.7127,0.0,-0.6593,0.0,0.0,0.0,0.0,0.0,0.0,0.0,0.0,-0.8636,-0.93,-1.0312,-1.0537,-1.089,-1.1547,-1.1963,-1.21,-1.1832,-1.2367,-1.2686,-1.2476,-1.2783,-1.3145,-1.3545,-1.3584,-1.3714,-1.4124,-1.4192,-1.4202,-1.4392,-1.4666,-1.4915,-1.5022,-1.5064,-1.5311,-1.5968,-1.6,-1.5737,-1.5378,-1.4787,-1.4348,-1.42,-1.3852,-1.357,-1.371,-1.3662,-1.361,-1.361,-1.361,-1.3621,-1.361,-1.4316,-1.4869,-1.4983,-1.5589,-1.6114,-1.6265,-1.6296,-1.6239,-1.5722,-1.5826,-1.6663,-1.6931,-1.6747,-1.7208,-1.6981,-1.6286,-1.646,-1.638,-1.6072,-1.5551,-1.5311,-1.5297,-1.5115,-1.5015,-1.5001,-1.4948,-1.475,-1.4516,-1.4462,-1.4315,-1.4088,-1.4088,-1.4088,-1.4088,-1.4088,-1.4062,-1.4001,-1.4001,-1.3854,-1.352,-1.3267,-1.3038,-1.2777,0.0,0.0,0.0,-1.2245,-1.1964,-1.1415,-1.1342,-1.0835,-0.9826,-0.9947,0.0,-0.9018,-0.8864,-0.8697,-0.8496,-0.8577,0.0,0.0,0.0,0.0,0.0,0.0,0.0,0.0,0.0,0.0,0.0,-0.9704,-0.9758,-0.9601,-1.0717,-1.1301,-1.0879,-1.178,-1.2181,-1.1655,-1.1963,-1.2334,-1.2598,-1.2363,-1.2578,-1.3568,-1.3627,-1.3665,-1.3948,-1.3987,-1.4153,-1.458,-1.4668,-1.4851,-1.5268,-1.5494,-1.562,-1.5827,-1.5666,-1.5756,-1.622,-1.6288,-1.6123,-1.567,-1.546,-1.5198,-1.4909,-1.4429,-1.4186,-1.4124,-1.3834,-1.3607,-1.3631,-1.361,-1.361,-1.361,-1.3763,-1.4106,-1.4466,-1.472,-1.5017,-1.5778,-1.592,-1.5896,-1.4748,0.0,-1.5251,-1.5384,0.0,-1.5989,-1.6069,-1.57,-1.6592,-1.673,-1.6301,-1.5959,-1.5752,-1.5605,-1.5451,-1.5391,-1.5378,-1.529,-1.5097,-1.4943,-1.4612,-1.4442,-1.4295,-1.4155,-1.4088,-1.4088,-1.4088,-1.4088,-1.4088,-1.4088,-1.4008,-1.3861,-1.3527,-1.3273,-1.3005,-1.2525,-1.2305,-1.2305,-1.2305,-1.2084,-1.1663,-1.1503,-1.1009,-1.0191,-0.9973,0.0,0.0,0.0,0.0,0.0,0.0,0.0,0.0,0.0,0.0,-0.8842,-0.8536,-0.8649,-0.9319,-0.9777,-1.0245,-1.0842,-1.1554,-1.1685,-1.1075,-1.1562,-1.1895,-1.1904,-1.25,-1.2807,-1.2568,-1.2886,-1.3227,-1.3447,-1.3115,-1.3198,-1.3938,-1.4141,-1.4219,-1.4414,-1.4453,-1.4619,-1.5039,-1.5098,-1.5262,-1.5633,-1.5682,-1.5817,-1.6028,-1.597,-1.6038,-1.6345,-1.6402,-1.633,-1.6091,-1.5815,-1.5639,-1.5339,-1.4956,-1.4687,-1.4645,-1.4335,-1.402,-1.3948,-1.3762,-1.3621,-1.3634,-1.38,-1.4093,-1.435,-1.4581,-1.4766,-1.5108,-1.5288,-1.5522,-1.3809,-1.3793,-1.3768,-1.372,-1.3771,-1.4505,-1.4924,-1.5149,0.0,0.0,0.0,-1.6293,-1.6112,-1.5832,-1.5825,-1.5825,-1.5764,-1.5578,-1.5444,-1.5371,-1.4897,-1.4623,-1.4466,-1.4275,-1.4135,-1.4088,-1.4088,-1.4088,-1.4088,-1.4088,-1.4088,-1.4062,-1.3788,-1.3433,-1.3113,-1.2579,-1.2305,-1.2305,-1.2305,-1.2158,-1.1906,-1.1577,-1.1149,-1.0606,-1.0124,-0.9822,-0.9715,-0.9265,-0.9125,-0.9271,-0.8911,-0.8771,-0.8945,-0.8811,-0.9141,-1.0055,-0.9851,-1.0177,-1.1323,-1.1499,-1.1678,-1.2013,-1.2887,-1.3101,-1.2365,-1.2148,-1.2338,-1.3071,-1.3105,-1.3242,-1.3568,-1.389,-1.4143,-1.4202,-1.4007,-1.3968,-1.4299,-1.4551,-1.4793,-1.4873,-1.4893,-1.501,-1.5342,-1.5391,-1.5507,-1.5672,-1.574,-1.5817,-1.6095,-1.6153,-1.621,-1.6374,-1.6402,-1.6392,-1.635,-1.6122,-1.5835,-1.5804,-1.5432,-1.5132,-1.507,-1.4816,-1.4568,-1.4449,-1.3993,-1.3679,-1.3738,-1.3968,-1.4233,-1.4257,-1.4558,-1.472,-1.4396,-1.4547,-1.4949,-1.263,-1.2738,-1.367,-1.3917,-1.3745,-1.4071,-1.4662,-1.5396,-1.6341,-1.672,-1.6633,-1.638,-1.6112,-1.5825,-1.5825,-1.5825,-1.5825,-1.5785,-1.5631,-1.5398,-1.5311,-1.5003,-1.4529,-1.4432,-1.4322,-1.4102,-1.4088,-1.4088,-1.4088,-1.4088,-1.4088,-1.4048,-1.3746,-1.3373,-1.2871,-1.2472,-1.2305,-1.2305,-1.2305,-1.2158,-1.1906,-1.1577,-1.1149,-1.0626,-1.0512,-1.0224,-0.9699,-0.9833,-0.9833,-0.9639,-0.978,-0.978,-0.9579,-0.974,-0.9717,-0.9439,-0.9665,-1.0232,-1.0997,-1.145,-1.2175,-1.3302,-1.3647,-1.3526,-1.29,-1.3373,-1.3802,-1.3929,-1.3899,-1.3948,-1.4016,-1.4094,-1.4309,-1.4629,-1.4578,-1.4648,-1.5117,-1.5225,-1.5273,-1.5293,-1.5322,-1.5312,-1.5391,-1.542,-1.5507,-1.5769,-1.5856,-1.6011,-1.623,-1.6345,-1.6345,-1.6374,-1.6402,-1.6402,-1.6363,-1.6343,-1.6267,-1.6309,-1.5915,-1.5587,-1.5587,-1.5277,-1.4997,-1.4904,-1.4283,-1.391,-1.4128,-1.3893,-1.3857,-1.3828,-1.3936,-1.3858,-1.3776,-1.3847,-1.4059,-1.15,-1.1555,-1.2041,-1.2203,-1.2105,-1.2616,-1.3388,-1.4356,-1.5225,-1.5972,-1.6453,-1.6375,-1.6106,-1.5838,-1.5825,-1.5825,-1.5825,-1.5825,-1.5758,-1.5625,-1.5464,-1.5257,-1.4977,-1.4676,-1.4449,-1.4315,-1.4162,-1.4088,-1.4088,-1.4088,-1.4088,-1.4062,-1.3753,-1.3387,-1.3045,-1.2737,-1.2458,-1.2311,-1.2305,-1.2238,-1.2134,-1.1817,-1.1463,-1.1042,-1.0767,-1.0392,-0.9933,-0.99,-0.982,-0.9722,-0.9813,-0.982,-0.9699,-0.9813,-0.9899,-0.9911,-1.0101,-1.05,-1.1111,-1.1359,-1.1946,-1.3077,-1.3461,-1.3745,-1.3929,-1.4043,-1.4104,-1.4124,-1.4309,-1.4492,-1.4502,-1.4687,-1.4912,-1.5107,-1.5059,-1.5127,-1.5352,-1.542,-1.542,-1.542,-1.542,-1.542,-1.542,-1.542,-1.5507,-1.5759,-1.5904,-1.6077,-1.621,-1.6249,-1.6249,-1.6239,-1.6239,-1.622,-1.6249,-1.6345,-1.6374,-1.6402,-1.6208,-1.6073,-1.6091,-1.5873,-1.5649,-1.5401,-1.4914,-1.4656,-1.4718,-1.4314,-1.4055,-1.3948,-1.3731,-1.3652,-1.361,-1.361,-1.381,-1.0692,-1.0692,-1.0692,-1.0692,-1.0773,-1.1199,-1.2011,-1.3069,-1.3702,-1.4544,-1.5486,-1.6044,-1.6106,-1.5838,-1.5825,-1.5825,-1.5825,-1.5825,-1.5825,-1.5758,-1.5598,-1.5464,-1.5364,-1.4923,-1.4649,-1.4516,-1.4289,-1.4155,-1.4095,-1.4088,-1.4088,-1.4055,-1.3746,-1.3453,-1.3174,-1.2945,-1.2643,-1.2325,-1.2305,-1.2305,-1.2291,-1.2017,-1.175,-1.151,-1.0995,-1.0586,-1.0321,-1.004,-0.9909,-0.9909,-0.9909,-0.988,-0.988,-0.9909,-1.008,-1.0448,-1.0536,-1.0763,-1.1293,-1.1495,-1.1918,-1.2657,-1.3096,-1.3705,-1.4516,-1.437,-1.426,-1.4408,-1.4746,-1.4922,-1.4951,-1.5186,-1.542,-1.542,-1.542,-1.5391,-1.541,-1.542,-1.542,-1.542,-1.542,-1.542,-1.542,-1.542,-1.5478,-1.5701,-1.5894,-1.6028,-1.6056,-1.6028,-1.6009,-1.6038,-1.6038,-1.6077,-1.6066,-1.6181,-1.6306,-1.6345,-1.6374,-1.6332,-1.6361,-1.6381,-1.6278,-1.5905,-1.5577,-1.5302,-1.5132,-1.478,-1.4459,-1.4304,-1.4014,-1.3776,-1.3641,-1.3621,-1.3716,-1.0692,-1.0692,-1.0692,-1.0692,-1.0668,-1.0592,-1.1045,-1.1798,-1.1784,-1.2217,-1.3256,-1.5314,-1.6051,-1.5852,-1.5778,-1.5832,-1.5791,-1.5832,-1.5832,-1.5791,-1.5751,-1.5651,-1.5418,-1.5331,-1.5037,-1.4583,-1.4482,-1.4322,-1.4095,-1.4088,-1.4088,-1.4055,-1.3753,-1.346,-1.3206,-1.2951,-1.2643,-1.2311,-1.2305,-1.2305,-1.2285,-1.2017,-1.1893,-1.1859,-1.1263,-1.0975,-1.0875,-1.0667,-1.0506,-1.0512,-1.0492,-1.053,-1.0499,-1.0499,-1.053,-1.0593,-1.0586,-1.085,-1.1443,-1.2028,-1.2415,-1.2767,-1.291,-1.3356,-1.4162,-1.4359,-1.4702,-1.5061,-1.5245,-1.5312,-1.5352,-1.5391,-1.542,-1.542,-1.542,-1.542,-1.542,-1.542,-1.542,-1.542,-1.542,-1.542,-1.542,-1.542,-1.5488,-1.5742,-1.5907,-1.6014,-1.6045,-1.5926,-1.5819,-1.5789,-1.5827,-1.5914,-1.5943,-1.6038,-1.6124,-1.6153,-1.6288,-1.6316,-1.6316,-1.6345,-1.6332,-1.6102,-1.5856,-1.5539,-1.5487,-1.5245,-1.4811,-1.4573,-1.4345,-1.4138,-1.3765,-1.3662,-1.373,-1.0692,-1.0692,-1.0692,-1.0692,-1.0668,-1.0455,-1.0605,-1.0923,-1.1281,-1.1635,-1.2197,-1.4181,-1.5028,-1.4968,-1.554,-1.5925,-1.6072,-1.5858,-1.5878,-1.6066,-1.5919,-1.5711,-1.5651,-1.5464,-1.5177,-1.4783,-1.4609,-1.4369,-1.4135,-1.4088,-1.4088,-1.4082,-1.3961,-1.3674,-1.324,-1.3086,-1.2824,-1.2325,-1.2305,-1.2305,-1.2291,-1.2184,-1.2044,-1.1899,-1.1665,-1.137,-1.1022,-1.0908,-1.0774,-1.0606,-1.0586,-1.0586,-1.0586,-1.0586,-1.0586,-1.0586,-1.0586,-1.0719,-1.0933,-1.1233,-1.1632,-1.2174,-1.2328,-1.2757,-1.3524,-1.3803,-1.4013,-1.4282,-1.4942,-1.542,-1.5391,-1.542,-1.542,-1.542,-1.542,-1.542,-1.542,-1.543,-1.542,-1.542,-1.542,-1.543,-1.542,-1.542,-1.5596,-1.593,-1.6118,-1.6218,-1.6447,-1.6287,-1.6029,-1.592,-1.5753,-1.5653,-1.5759,-1.5885,-1.5961,-1.599,-1.6048,-1.6087,-1.6116,-1.6144,-1.6134,-1.6126,-1.6012,-1.5914,-1.5923,-1.5667,-1.5318,-1.5049,-1.4821,-1.4645,-1.4459,-1.421,-1.4066,-1.0692,-1.0692,-1.0692,-1.0692,-1.068,-1.0562,-1.0481,-1.0457,-1.0919,-1.1092,-1.1176,-1.3057,-1.3924,-1.4052,-1.5201,-1.5992,-1.6254,-1.5959,-1.5992,-1.6213,-1.5965,-1.5825,-1.5805,-1.5578,-1.5364,-1.509,-1.487,-1.4576,-1.4242,-1.4108,-1.4088,-1.4088,-1.4088,-1.3834,-1.3373,-1.326,-1.2953,-1.2465,-1.2351,-1.2305,-1.2305,-1.2305,-1.2198,-1.204,-1.194,-1.1698,-1.129,-1.1076,-1.0928,-1.0727,-1.064,-1.0586,-1.0586,-1.0586,-1.0586,-1.0586,-1.0586,-1.0586,-1.0586,-1.0586,-1.0839,-1.1406,-1.1617,-1.2127,-1.2855,-1.3219,-1.3493,-1.3867,-1.4617,-1.5162,-1.5291,-1.5386,-1.5523,-1.5712,-1.5713,-1.5674,-1.5742,-1.582,-1.5868,-1.5761,-1.5859,-1.5742,-1.5771,-1.582,-1.5977,-1.6323,-1.6413,-1.6513,-1.6789,-1.6591,-1.6373,-1.6251,-1.5909,-1.5635,-1.5644,-1.573,-1.5827,-1.5856,-1.5885,-1.5914,-1.5914,-1.5961,-1.599,-1.6058,-1.6202,-1.6228,-1.6089,-1.5889,-1.5773,-1.5628,-1.5349,-1.5038,-1.4873,-1.4666,-1.4542,-1.0692,-1.0692,-1.0692,-1.0692,-1.0688,-1.0676,-1.0582,-1.0448,-1.0457,-1.0314,-1.0323,-1.2124,-1.2947,-1.2974,-1.4867,-1.5944,-1.6219,-1.5985,-1.6019,-1.6253,-1.5992,-1.5784,-1.5825,-1.5812,-1.5651,-1.5357,-1.5297,-1.501,-1.4489,-1.4215,-1.4088,-1.4088,-1.4088,-1.3935,-1.3567,-1.3293,-1.3053,-1.2744,-1.2438,-1.2305,-1.2305,-1.2305,-1.2291,-1.2245,-1.2053,-1.1893,-1.1785,-1.1289,-1.0995,-1.1008,-1.0767,-1.062,-1.0606,-1.0613,-1.0626,-1.0613,-1.0613,-1.0606,-1.0613,-1.0613,-1.0676,-1.0726,-1.1062,-1.1565,-1.2438,-1.2821,-1.3332,-1.4269,-1.4424,-1.474,-1.5041,-1.5281,-1.5737,-1.6261,-1.6284,-1.6234,-1.6498,-1.6529,-1.6831,-1.6585,-1.649,-1.6482,-1.657,-1.6648,-1.659,-1.668,-1.6699,-1.6758,-1.6816,-1.6768,-1.6709,-1.6621,-1.6328,-1.5928,-1.5566,-1.5575,-1.5672,-1.5701,-1.5759,-1.5856,-1.5904,-1.5933,-1.5904,-1.5933,-1.6019,-1.6077,-1.6114,-1.6107,-1.6056,-1.5856,-1.5504,-1.5245,-1.5376,-1.509,-1.4966,-1.0798,-1.0692,-1.0692,-1.0692,-1.0692,-1.0692,-1.0655,-1.059,-1.0427,-1.0294,-1.0325,-1.1452,-1.2212,-1.2775,-1.419,-1.5457,-1.645,-1.6246,-1.6266,-1.6493,-1.6246,-1.6012,-1.5838,-1.5825,-1.5671,-1.5431,-1.5391,-1.509,-1.4543,-1.4229,-1.4088,-1.4088,-1.4088,-1.3941,-1.3606,-1.336,-1.3053,-1.279,-1.2452,-1.2305,-1.2305,-1.2305,-1.2305,-1.2298,-1.2204,-1.2094,-1.1906,-1.1698,-1.1463,-1.1276,-1.1169,-1.1116,-1.1109,-1.1116,-1.1022,-1.0882,-1.1015,-1.1035,-1.0868,-1.0835,-1.0835,-1.0868,-1.1055,-1.1439,-1.2056,-1.2362,-1.2713,-1.3225,-1.3934,-1.4304,-1.4463,-1.4742,-1.5,-1.5219,-1.5221,-1.5244,-1.5371,-1.5762,-1.6094,-1.6083,-1.637,-1.6697,-1.665,-1.6697,-1.6814,-1.709,-1.7139,-1.7223,-1.7399,-1.7344,-1.7148,-1.709,-1.6787,-1.6436,-1.6318,-1.5752,-1.5517,-1.5507,-1.5536,-1.5575,-1.5604,-1.5633,-1.5633,-1.5691,-1.5778,-1.5951,-1.6038,-1.62,-1.6162,-1.6184,-1.5784,-1.5711,-1.5925,-1.5597,-1.5463,-1.081,-1.07,-1.0692,-1.0692,-1.0692,-1.0692,-1.0692,-1.0676,-1.057,-1.0416,-1.0443,-1.1126,-1.1974,-1.2807,-1.3497,-1.4619,-1.5961,-1.6206,-1.6482,-1.666,-1.6406,-1.6166,-1.5985,-1.5872,-1.5725,-1.5538,-1.5431,-1.5137,-1.4683,-1.4369,-1.4188,-1.4095,-1.4088,-1.3995,-1.3726,-1.3453,-1.32,-1.2931,-1.2636,-1.2405,-1.2325,-1.2305,-1.2305,-1.2305,-1.2305,-1.2218,-1.2011,-1.1953,-1.1819,-1.159,-1.1483,-1.143,-1.143,-1.143,-1.1343,-1.1182,-1.1316,-1.1315,-1.1176,-1.1129,-1.1129,-1.1122,-1.1248,-1.155,-1.2067,-1.2301,-1.2515,-1.2902,-1.3414,-1.3909,-1.3941,-1.4095,-1.4368,-1.4698,-1.4698,-1.4664,-1.4866,-1.5368,-1.561,-1.5728,-1.6044,-1.6323,-1.6403,-1.6389,-1.6628,-1.7149,-1.7235,-1.7446,-1.7823,-1.7793,-1.7478,-1.7273,-1.7077,-1.678,-1.6542,-1.6069,-1.5799,-1.5751,-1.5576,-1.5498,-1.5498,-1.5459,-1.5459,-1.5478,-1.5623,-1.5836,-1.6009,-1.6192,-1.6278,-1.6363,-1.6288,-1.6143,-1.6174,-1.6122,-1.5967,-1.07,-1.0692,-1.0692,-1.0692,-1.0692,-1.0692,-1.0692,-1.0688,-1.068,-1.0566,-1.0494,-1.1272,-1.1987,-1.2723,-1.2763,-1.3427,-1.4636,-1.5569,-1.6075,-1.631,-1.618,-1.6091,-1.6073,-1.5794,-1.5743,-1.5765,-1.5524,-1.5251,-1.4963,-1.4636,-1.4355,-1.4148,-1.4095,-1.4075,-1.4075,-1.3706,-1.344,-1.32,-1.2886,-1.263,-1.2345,-1.2311,-1.2305,-1.2305,-1.2305,-1.2291,-1.2278,-1.2067,-1.194,-1.185,-1.1623,-1.1443,-1.1476,-1.149,-1.145,-1.1415,-1.1415,-1.1409,-1.1402,-1.1389,-1.143,-1.1416,-1.1472,-1.1778,-1.234,-1.2656,-1.2911,-1.3273,-1.3447,-1.3528,-1.3557,-1.3592,-1.4065,-1.5269,-1.4801,-1.4738,-1.5265,-1.5597,-1.5685,-1.5703,-1.5791,-1.5703,-1.5711,-1.5791,-1.6104,-1.6624,-1.6789,-1.7014,-1.7569,-1.7599,-1.7516,-1.7157,-1.6837,-1.6646,-1.651,-1.6402,-1.6249,-1.61,-1.5829,-1.5664,-1.5674,-1.5645,-1.5605,-1.5615,-1.5594,-1.5797,-1.5951,-1.6105,-1.6192,-1.6278,-1.6306,-1.6374,-1.633,-1.6267,-1.6309,-1.0692,-1.0692,-1.0692,-1.0692,-1.0692,-1.0692,-1.0692,-1.0692,-1.0692,-1.0595,-1.0498,-1.069,-1.1214,-1.1796,-1.186,-1.2379,-1.335,-1.3895,-1.4269,-1.4354,-1.4369,-1.4648,-1.5047,-1.504,-1.529,-1.5663,-1.5531,-1.5357,-1.5184,-1.4763,-1.4462,-1.4369,-1.4182,-1.4095,-1.4068,-1.3794,-1.3547,-1.3467,-1.3038,-1.273,-1.263,-1.2442,-1.2311,-1.2305,-1.2305,-1.2305,-1.2298,-1.2211,-1.2171,-1.2158,-1.2078,-1.1937,-1.1804,-1.1917,-1.1931,-1.1784,-1.1931,-1.1924,-1.1757,-1.173,-1.173,-1.1759,-1.1775,-1.2029,-1.2502,-1.2754,-1.3006,-1.3266,-1.3419,-1.3492,-1.3492,-1.3492,-1.3739,-1.4129,-1.3985,-1.3949,-1.431,-1.4645,-1.5136,-1.5596,-1.5702,-1.5702,-1.5666,-1.5631,-1.571,-1.5956,-1.6062,-1.6341,-1.6802,-1.6768,-1.6594,-1.6558,-1.6432,-1.6257,-1.6011,-1.5885,-1.5848,-1.5932,-1.5879,-1.5763,-1.5778,-1.593,-1.5831,-1.5713,-1.5693,-1.5739,-1.5894,-1.6009,-1.6134,-1.622,-1.6316,-1.6345,-1.6374,-1.6402,-1.6402,-1.0757,-1.0696,-1.0692,-1.0692,-1.0692,-1.0692,-1.0692,-1.0692,-1.0692,-1.0631,-1.0534,-1.0461,-1.0796,-1.129,-1.1075,-1.1319,-1.2078,-1.2013,-1.1938,-1.2287,-1.3166,-1.3712,-1.4196,-1.441,-1.471,-1.522,-1.5457,-1.5498,-1.5371,-1.493,-1.4629,-1.4489,-1.4229,-1.4088,-1.4075,-1.3901,-1.3726,-1.356,-1.3273,-1.3012,-1.2797,-1.2603,-1.2418,-1.2325,-1.2305,-1.2305,-1.2305,-1.2305,-1.2305,-1.2305,-1.2305,-1.2204,-1.2058,-1.2191,-1.2218,-1.2118,-1.2171,-1.2211,-1.2087,-1.2031,-1.2031,-1.2067,-1.2067,-1.2206,-1.2522,-1.2753,-1.2907,-1.3156,-1.3309,-1.3419,-1.3455,-1.3492,-1.3492,-1.3492,-1.3528,-1.3492,-1.3564,-1.3912,-1.4302,-1.4689,-1.4796,-1.4867,-1.4867,-1.4867,-1.501,-1.518,-1.5278,-1.5675,-1.6097,-1.6097,-1.6026,-1.5956,-1.5922,-1.5685,-1.535,-1.5338,-1.5394,-1.5594,-1.5829,-1.5793,-1.5791,-1.6175,-1.6292,-1.588,-1.5753,-1.5721,-1.5846,-1.5933,-1.6019,-1.6134,-1.6329,-1.6345,-1.6402,-1.6402,-1.6402,-1.0858,-1.07,-1.0692,-1.0692,-1.0692,-1.0692,-1.0692,-1.0692,-1.0692,-1.0684,-1.0647,-1.0534,-1.0837,-1.12,-1.0514,-1.0528,-1.0883,-1.0319,-1.0096,-1.0725,-1.195,-1.3017,-1.326,-1.3819,-1.4238,-1.4544,-1.5235,-1.553,-1.5464,-1.5144,-1.4843,-1.4569,-1.4309,-1.4102,-1.4088,-1.4124,-1.3935,-1.3693,-1.3593,-1.332,-1.2904,-1.2815,-1.2656,-1.2365,-1.2325,-1.2305,-1.2305,-1.2305,-1.2305,-1.2305,-1.2305,-1.2291,-1.2291,-1.2298,-1.2291,-1.2265,-1.2291,-1.2298,-1.2291,-1.2258,-1.2265,-1.2258,-1.2251,-1.2372,-1.2556,-1.2643,-1.2826,-1.3119,-1.32,-1.3273,-1.3455,-1.3492,-1.3492,-1.3492,-1.3492,-1.3492,-1.3492,-1.3564,-1.3702,-1.3666,-1.3528,-1.3564,-1.371,-1.3702,-1.3985,-1.433,-1.453,-1.5029,-1.549,-1.5428,-1.5294,-1.5188,-1.5081,-1.4939,-1.4573,-1.4621,-1.4706,-1.4819,-1.5274,-1.5659,-1.5891,-1.6376,-1.6676,-1.6263,-1.587,-1.5792,-1.5859,-1.6016,-1.6191,-1.6386,-1.6471,-1.6425,-1.6402,-1.6413,-1.6444,-1.0858,-1.0696,-1.0692,-1.0692,-1.0692,-1.0692,-1.0692,-1.0692,-1.0692,-1.0692,-1.0676,-1.0647,-1.0675,-1.0718,-1.0316,-1.019,-1.0155,-0.9826,-0.9717,-0.9998,-1.0587,-1.1488,-1.2177,-1.2996,-1.3688,-1.4274,-1.4675,-1.5019,-1.5604,-1.5312,-1.5026,-1.4888,-1.4405,-1.4246,-1.4122,-1.4095,-1.4055,-1.3948,-1.37,-1.3553,-1.3367,-1.2998,-1.2757,-1.2677,-1.2469,-1.2325,-1.2305,-1.2305,-1.2305,-1.2305,-1.2305,-1.2305,-1.2305,-1.2305,-1.2305,-1.2305,-1.2305,-1.2305,-1.2305,-1.2305,-1.2305,-1.2305,-1.2305,-1.2335,-1.2372,-1.2526,-1.2709,-1.2936,-1.3127,-1.328,-1.3455,-1.3521,-1.3514,-1.3492,-1.355,-1.3528,-1.3492,-1.3492,-1.3492,-1.3492,-1.3492,-1.3492,-1.3492,-1.3528,-1.3593,-1.3804,-1.3912,-1.3941,-1.451,-1.4545,-1.431,-1.4093,-1.3949,-1.392,-1.3884,-1.3912,-1.3962,-1.4019,-1.4548,-1.5368,-1.5906,-1.6552,-1.6777,-1.6741,-1.6243,-1.6058,-1.6218,-1.6387,-1.6536,-1.6702,-1.6646,-1.6622,-1.6496,-1.6444,-1.6516,-1.0928,-1.0692,-1.0692,-1.0692,-1.0692,-1.0692,-1.0692,-1.0692,-1.0692,-1.0692,-1.0692,-1.0692,-1.0554,-1.0318,-1.0257,-1.0014,-0.9782,-0.9627,-0.9685,-0.9748,-0.9987,-1.0612,-1.155,-1.24,-1.3215,-1.3979,-1.4394,-1.4682,-1.4762,-1.4684,-1.4278,-1.3747,-1.3818,-1.3766,-1.3668,-1.4001,-1.4088,-1.4055,-1.3901,-1.374,-1.3573,-1.3313,-1.308,-1.2965,-1.269,-1.2452,-1.2331,-1.2305,-1.2305,-1.2305,-1.2305,-1.2305,-1.2305,-1.2305,-1.2305,-1.2305,-1.2305,-1.2305,-1.2305,-1.2305,-1.2305,-1.2305,-1.2305,-1.2305,-1.2305,-1.2415,-1.2562,-1.2746,-1.29,-1.3154,-1.3548,-1.3776,-1.3894,-1.3976,-1.3901,-1.3784,-1.355,-1.3492,-1.3492,-1.3492,-1.3492,-1.3492,-1.3492,-1.3499,-1.3492,-1.3528,-1.3557,-1.3557,-1.363,-1.3492,-1.3514,-1.3536,-1.3506,-1.3593,-1.363,-1.3702,-1.3739,-1.3695,-1.4063,-1.4907,-1.5549,-1.6331,-1.6594,-1.6629,-1.6437,-1.6429,-1.6663,-1.6858,-1.6961,-1.7011,-1.6926,-1.6913,-1.6891,-1.6757,-1.6777,-1.1001,-1.0692,-1.0692,-1.0692,-1.0692,-1.0692,-1.0637,-1.0692,-1.0692,-1.0692,-1.0692,-1.0692,-1.0521,-1.0245,-1.0237,-1.0033,-0.9673,-0.9652,-0.9635,-0.9664,-0.9761,-1.0272,-1.1175,-1.161,-1.2268,-1.2969,-1.4154,-1.3956,-1.3561,-1.3383,-1.2892,-1.2497,-1.2733,-1.2818,-1.2869,-1.3396,-1.3714,-1.361,-1.3669,-1.3593,-1.3465,-1.3437,-1.34,-1.3227,-1.2904,-1.2643,-1.2425,-1.2338,-1.2305,-1.2305,-1.2305,-1.2305,-1.2305,-1.2305,-1.2305,-1.2305,-1.2305,-1.2305,-1.2305,-1.2305,-1.2305,-1.2305,-1.2305,-1.2305,-1.2305,-1.2342,-1.2435,-1.2702,-1.2647,-1.3049,-1.3686,-1.4205,-1.4362,-1.4394,-1.4445,-1.4203,-1.377,-1.3594,-1.3594,-1.3587,-1.3594,-1.355,-1.3587,-1.3572,-1.3579,-1.385,-1.3814,-1.3828,-1.3777,-1.3718,-1.3689,-1.3638,-1.3579,-1.3492,-1.3528,-1.3528,-1.3528,-1.3557,-1.3905,-1.449,-1.4947,-1.5601,-1.6057,-1.6269,-1.6337,-1.6744,-1.7292,-1.7433,-1.7346,-1.743,-1.74,-1.7523,-1.7606,-1.7389,-1.7316,-1.0891,-1.0692,-1.0472,-1.0527,-1.0637,-1.0476,-1.0527,-1.0692,-1.0692,-1.0692,-1.0692,-1.0692,-1.0566,-1.0355,-1.0209,-1.0034,-0.9803,-0.9705,-0.9616,-0.9693,-0.9688,-1.0136,-1.0546,-1.0421,-1.0471,-1.1171,-1.1321,-1.1707,-1.2065,-1.2373,-1.2315,-1.1932,-1.1929,-1.2114,-1.1976,-1.2044,-1.1929,-1.2015,-1.2619,-1.2978,-1.3096,-1.3341,-1.3505,-1.3447,-1.3053,-1.2797,-1.2656,-1.2462,-1.2311,-1.2305,-1.2318,-1.2338,-1.2311,-1.2305,-1.2305,-1.2305,-1.2305,-1.2305,-1.2305,-1.2305,-1.2305,-1.2305,-1.2305,-1.2305,-1.2305,-1.2318,-1.2499,-1.2798,-1.2917,-1.3244,-1.3917,-1.4297,-1.4523,-1.4592,-1.4538,-1.4472,-1.4342,-1.4284,-1.4201,-1.421,-1.4056,-1.3975,-1.4187,-1.3975,-1.4011,-1.4187,-1.4269,-1.4284,-1.4166,-1.3967,-1.3857,-1.377,-1.3594,-1.3499,-1.3492,-1.3492,-1.3492,-1.3492,-1.3768,-1.3941,-1.4442,-1.4917,-1.5427,-1.5961,-1.641,-1.6916,-1.7379,-1.7397,-1.7169,-1.7495,-1.784,-1.783,-1.7831,-1.7801,-1.7801,-1.0914,-1.0692,-1.0531,-1.0476,-1.0476,-1.0366,-1.0363,-1.0527,-1.0527,-1.0586,-1.0692,-1.0692,-1.055,-1.031,-1.0197,-1.0026,-0.9795,-0.9635,-0.9567,-0.9517,-0.9489,-0.9678,-0.9762,-0.9497,-0.9484,-1.0594,-1.0869,-1.093,-1.0925,-1.1121,-1.1021,-1.0614,-1.1075,-1.1241,-1.1201,-1.1287,-1.1435,-1.1429,-1.1757,-1.2229,-1.2711,-1.2999,-1.3376,-1.3531,-1.3327,-1.312,-1.2959,-1.2832,-1.2746,-1.2699,-1.2623,-1.2476,-1.2325,-1.2305,-1.2305,-1.2305,-1.2305,-1.2305,-1.2305,-1.2305,-1.2305,-1.2311,-1.2305,-1.2305,-1.2358,-1.2412,-1.264,-1.2878,-1.3149,-1.3542,-1.4237,-1.4706,-1.4856,-1.4918,-1.4911,-1.4918,-1.4867,-1.4662,-1.4504,-1.4482,-1.4304,-1.4342,-1.4364,-1.4296,-1.4289,-1.4399,-1.4438,-1.4438,-1.4328,-1.4136,-1.3996,-1.3857,-1.3631,-1.3506,-1.3492,-1.3492,-1.3492,-1.3492,-1.3557,-1.3666,-1.3833,-1.4322,-1.4807,-1.5355,-1.586,-1.6627,-1.7022,-1.6997,-1.7298,-1.7845,-1.8134,-1.8068,-1.806,-1.8108,-1.8159,-1.0723,-1.0582,-1.0531,-1.0417,-1.0257,-1.0198,-1.0147,-1.0202,-1.0257,-1.0421,-1.0637,-1.0637,-1.0505,-1.0277,-1.022,-0.9957,-0.9713,-0.9607,-0.952,-0.9347,-0.9433,-0.9398,-0.9319,-0.9157,-0.9357,-1.0914,-1.0496,-1.006,-0.976,-0.9813,-0.9797,-0.9178,-0.9851,-1.0256,-1.0408,-1.075,-1.0833,-1.0666,-1.0939,-1.137,-1.21,-1.2462,-1.3077,-1.3616,-1.3573,-1.3433,-1.3293,-1.3193,-1.3166,-1.3193,-1.2998,-1.2744,-1.2498,-1.2318,-1.2305,-1.2305,-1.2305,-1.2305,-1.2305,-1.2311,-1.2318,-1.2345,-1.2378,-1.2398,-1.2465,-1.2665,-1.2871,-1.3103,-1.3364,-1.3929,-1.4586,-1.4969,-1.526,-1.5338,-1.5367,-1.5389,-1.5335,-1.4926,-1.4735,-1.467,-1.464,-1.4611,-1.464,-1.464,-1.4611,-1.4589,-1.4636,-1.4621,-1.4526,-1.4384,-1.4289,-1.4114,-1.3923,-1.3587,-1.3521,-1.3528,-1.3521,-1.3499,-1.3499,-1.3499,-1.3499,-1.3811,-1.4302,-1.4716,-1.5307,-1.5965,-1.6602,-1.685,-1.7316,-1.8114,-1.8358,-1.8248,-1.8328,-1.8462,-1.8445,-1.0008,-0.9926,-0.971,-0.9706,-0.9816,-0.9651,-0.9706,-0.9926,-1.0202,-1.0308,-1.0417,-1.0574,-1.0481,-1.0229,-1.0212,-0.9957,-0.9685,-0.9595,-0.9509,-0.9372,-0.9489,-0.9515,-0.936,-0.9186,-0.9306,-0.9098,-0.9036,-0.8779,-0.8726,-0.8676,-0.8924,-0.889,-0.9211,-0.9326,-0.9291,-0.9225,-0.9468,-0.9534,-0.9873,-1.0332,-1.0809,-1.188,-1.2984,-1.3648,-1.3581,-1.3538,-1.3507,-1.3347,-1.3206,-1.32,-1.316,-1.3106,-1.2953,-1.2605,-1.2398,-1.2385,-1.2398,-1.2425,-1.2412,-1.2358,-1.2452,-1.263,-1.271,-1.2712,-1.2819,-1.3006,-1.3226,-1.3481,-1.3886,-1.4372,-1.465,-1.5012,-1.5242,-1.5347,-1.5389,-1.5389,-1.536,-1.5292,-1.5174,-1.5123,-1.5013,-1.4871,-1.4948,-1.497,-1.4955,-1.4977,-1.5028,-1.505,-1.5021,-1.4882,-1.4696,-1.4523,-1.4275,-1.3894,-1.3558,-1.3565,-1.3565,-1.3528,-1.3521,-1.3528,-1.3521,-1.3499,-1.3804,-1.4258,-1.4609,-1.51,-1.5737,-1.6332,-1.6828,-1.7207,-1.774,-1.8293,-1.8236,-1.8168,-1.8414,-0.9816,-0.9816,-0.9651,-0.9596,-0.9541,-0.9489,-0.9544,-0.9816,-0.9981,-1.0202,-1.0449,-1.054,-1.0416,-1.0193,-1.005,-0.9864,-0.9685,-0.9628,-0.9531,-0.948,-0.9607,-0.9705,-0.966,-0.9436,-0.9302,-0.9024,-0.8549,-0.8283,-0.8432,-0.8577,-0.868,-0.9015,-0.9188,-0.9212,-0.9084,-0.9056,-0.8877,-0.8861,-0.9054,-0.9476,-0.9903,-1.1327,-1.24,-1.3044,-1.3283,-1.3374,-1.3806,-1.3774,-1.3674,-1.3647,-1.352,-1.3407,-1.3267,-1.308,-1.2779,-1.2772,-1.2752,-1.2759,-1.2766,-1.2772,-1.2866,-1.2953,-1.2986,-1.2946,-1.3026,-1.3213,-1.3561,-1.3919,-1.4248,-1.465,-1.4894,-1.509,-1.5257,-1.5389,-1.5389,-1.5389,-1.5389,-1.5389,-1.5389,-1.5389,-1.5258,-1.517,-1.5243,-1.5258,-1.5258,-1.5316,-1.5382,-1.5389,-1.5389,-1.5199,-1.4966,-1.4747,-1.4509,-1.4194,-1.3872,-1.385,-1.38,-1.3719,-1.3645,-1.3616,-1.355,-1.3528,-1.3579,-1.3848,-1.4158,-1.4438,-1.4816,-1.5411,-1.5877,-1.6376,-1.6966,-1.7457,-1.7672,-1.7852,-1.81,-0.9596,-0.9596,-0.9596,-0.9485,-0.9323,-0.9327,-0.9375,-0.9599,-0.9706,-0.9981,-1.0449,-1.0351,-1.0286,-1.014,-0.9937,-0.975,-0.9628,-0.9624,-0.9558,-0.9611,-0.974,-0.9897,-0.9903,-0.9693,-0.9481,-0.9227,-0.8791,-0.8435,-0.8432,-0.8482,-0.8733,-0.8928,-0.9274,-0.9388,-0.9152,-0.9111,-0.8997,-0.8881,-0.8706,-0.9094,-0.9912,-1.0636,-1.1456,-1.2357,-1.2577,-1.3075,-1.3571,-1.3937,-1.4015,-1.3968,-1.3861,-1.3693,-1.366,-1.3514,-1.3387,-1.3367,-1.3287,-1.322,-1.3186,-1.3166,-1.316,-1.3273,-1.33,-1.324,-1.3307,-1.3567,-1.3862,-1.4266,-1.4524,-1.4692,-1.4908,-1.5173,-1.5347,-1.5389,-1.5389,-1.5389,-1.5389,-1.5389,-1.5389,-1.5389,-1.5389,-1.5389,-1.5374,-1.5374,-1.533,-1.533,-1.5389,-1.5389,-1.5374,-1.5258,-1.5053,-1.4885,-1.4699,-1.4457,-1.4267,-1.4245,-1.4159,-1.4005,-1.3902,-1.3851,-1.3689,-1.3565,-1.3638,-1.363,-1.363,-1.3912,-1.4214,-1.4565,-1.5092,-1.5666,-1.6237,-1.6724,-1.7182,-1.7467,-1.7716,-0.8992,-0.9047,-0.8992,-0.8995,-0.8995,-0.8995,-0.8992,-0.9047,-0.9379,-0.9596,-0.9966,-1.0008,-1.0095,-1.0039,-0.9803,-0.9661,-0.9632,-0.9595,-0.9636,-0.9669,-0.9984,-1.0114,-1.0225,-1.0196,-0.9714,-0.9376,-0.8938,-0.8652,-0.8432,-0.8237,-0.8336,-0.863,-0.8916,-0.8901,-0.8974,-0.9176,-0.9286,-0.9064,-0.8877,-0.9108,-0.9726,-0.9999,-1.0593,-1.1408,-1.21,-1.2662,-1.3045,-1.3574,-1.3962,-1.4082,-1.4055,-1.4028,-1.4035,-1.4021,-1.3988,-1.3834,-1.3561,-1.3213,-1.3267,-1.3313,-1.34,-1.3513,-1.3553,-1.3714,-1.3794,-1.3868,-1.405,-1.4104,-1.4363,-1.4566,-1.4783,-1.4999,-1.5215,-1.5347,-1.5389,-1.5389,-1.5389,-1.5389,-1.5389,-1.5389,-1.5389,-1.5389,-1.5389,-1.5389,-1.5389,-1.5389,-1.5389,-1.5389,-1.5374,-1.5272,-1.5199,-1.5046,-1.4944,-1.4757,-1.4618,-1.4604,-1.4457,-1.4313,-1.4174,-1.4049,-1.3821,-1.366,-1.3521,-1.3528,-1.3492,-1.3492,-1.3811,-1.415,-1.4494,-1.4922,-1.5419,-1.6123,-1.6828,-1.7079,-1.7192,-0.8937,-0.8937,-0.8937,-0.8937,-0.8937,-0.8937,-0.8992,-0.9213,-0.9323,-0.9544,-0.976,-0.9804,-0.9864,-0.9825,-0.9673,-0.9632,-0.9628,-0.9579,-0.9704,-0.9796,-1.0072,-1.0245,-1.0263,-1.0087,-0.9754,-0.935,-0.887,-0.8496,-0.8336,-0.8333,-0.8432,-0.8783,-0.8928,-0.916,-0.9047,-0.9304,-0.9324,-0.9181,-0.8982,-0.8972,-0.9184,-0.9275,-0.9602,-1.0463,-1.0939,-1.1671,-1.2534,-1.3009,-1.361,-1.3913,-1.4088,-1.4088,-1.4088,-1.4082,-1.4075,-1.4062,-1.3874,-1.3734,-1.3721,-1.3694,-1.3754,-1.3828,-1.3888,-1.3941,-1.4068,-1.4088,-1.4088,-1.4088,-1.4405,-1.4566,-1.4741,-1.5041,-1.5257,-1.5389,-1.5389,-1.5389,-1.5389,-1.5389,-1.5389,-1.5389,-1.5389,-1.5389,-1.5389,-1.5389,-1.5389,-1.5389,-1.5389,-1.5389,-1.5389,-1.536,-1.5301,-1.5243,-1.5163,-1.5061,-1.4951,-1.4885,-1.475,-1.4567,-1.4384,-1.4223,-1.3953,-1.377,-1.3645,-1.3528,-1.3499,-1.3535,-1.3535,-1.3702,-1.4013,-1.4294,-1.4573,-1.5242,-1.5913,-1.6228,-1.6446,-0.8937,-0.8937,-0.8937,-0.8937,-0.8937,-0.8937,-0.9047,-0.9268,-0.9268,-0.9434,-0.9621,-0.9637,-0.956,-0.944,-0.9385,-0.9377,-0.948,-0.948,-0.9684,-0.9896,-1.0075,-1.0209,-1.0146,-0.9969,-0.9636,-0.9272,-0.8805,-0.8446,-0.8293,-0.8333,-0.8482,-0.9084,-0.9084,-0.9278,-0.9444,-0.9462,-0.9465,-0.9359,-0.9108,-0.8984,-0.8902,-0.8739,-0.9054,-0.9489,-0.9903,-1.0549,-1.18,-1.2619,-1.3179,-1.3525,-1.3997,-1.4088,-1.4088,-1.4088,-1.4088,-1.4082,-1.4001,-1.4008,-1.4001,-1.4008,-1.4082,-1.4088,-1.4088,-1.4055,-1.4075,-1.4088,-1.4088,-1.4088,-1.4363,-1.4566,-1.4776,-1.5082,-1.5215,-1.5298,-1.534,-1.534,-1.534,-1.5389,-1.5389,-1.5389,-1.5389,-1.5389,-1.5389,-1.5389,-1.5389,-1.5389,-1.5389,-1.5389,-1.5389,-1.5389,-1.5367,-1.5316,-1.5294,-1.5243,-1.5206,-1.5104,-1.4999,-1.486,-1.467,-1.4523,-1.4311,-1.4011,-1.3792,-1.3682,-1.3587,-1.3499,-1.3528,-1.3492,-1.3528,-1.3804,-1.4122,-1.4366,-1.4824,-1.5207,-1.5877,-0.8937,-0.8937,-0.8937,-0.8937,-0.8937,-0.8937,-0.8937,-0.8992,-0.8937,-0.9144,-0.9399,-0.9363,-0.9142,-0.8996,-0.8973,-0.9031,-0.9236,-0.9232,-0.9488,-0.9794,-1.0071,-1.0031,-0.9963,-0.9823,-0.955,-0.9066,-0.8655,-0.8409,-0.8172,-0.8244,-0.8485,-0.8775,-0.908,-0.9183,-0.9324,-0.9485,-0.9502,-0.9461,-0.9322,-0.9108,-0.8946,-0.8816,-0.8824,-0.8914,-0.9441,-0.999,-1.0202,-1.158,-1.2656,-1.2918,-1.3525,-1.4039,-1.4046,-1.4088,-1.4088,-1.4088,-1.4088,-1.4088,-1.4088,-1.4088,-1.4088,-1.4088,-1.4088,-1.4088,-1.4088,-1.4088,-1.4088,-1.413,-1.4321,-1.4524,-1.4741,-1.4957,-1.5131,-1.5215,-1.5257,-1.5215,-1.5257,-1.5389,-1.5389,-1.5389,-1.5389,-1.5389,-1.5389,-1.5389,-1.5389,-1.5389,-1.5389,-1.5389,-1.5389,-1.5389,-1.5389,-1.5374,-1.5374,-1.536,-1.5367,-1.5313,-1.5218,-1.5053,-1.4893,-1.4827,-1.4739,-1.4404,-1.4011,-1.3901,-1.3814,-1.3645,-1.3492,-1.3506,-1.3514,-1.3499,-1.3666,-1.3977,-1.4294,-1.4752,-1.5604,-0.8937,-0.8937,-0.8937,-0.8937,-0.8937,-0.8937,-0.8937,-0.8937,-0.8937,-0.8934,-0.9098,-0.9057,-0.8988,-0.8853,-0.8775,-0.8829,-0.8931,-0.8931,-0.9191,-0.9345,-0.9476,-0.959,-0.9599,-0.9485,-0.9202,-0.8966,-0.8706,-0.8663,-0.8744,-0.85,-0.884,-0.9126,-0.9084,-0.9229,-0.9381,-0.9529,-0.9526,-0.9514,-0.9461,-0.9302,-0.9237,-0.9023,-0.8905,-0.8833,-0.8897,-0.9486,-0.997,-1.0549,-1.1537,-1.2443,-1.3009,-1.3483,-1.3955,-1.4039,-1.4088,-1.4088,-1.4088,-1.4088,-1.4088,-1.4088,-1.4088,-1.4088,-1.4088,-1.4088,-1.4088,-1.4088,-1.4088,-1.4166,-1.4286,-1.444,-1.4692,-1.4957,-1.5131,-1.5173,-1.5173,-1.5082,-1.509,-1.5173,-1.5257,-1.5173,-1.5305,-1.5389,-1.5389,-1.5389,-1.5389,-1.5389,-1.5389,-1.5389,-1.5389,-1.5389,-1.5389,-1.5389,-1.5389,-1.5389,-1.5389,-1.5389,-1.5389,-1.5265,-1.5126,-1.5053,-1.4951,-1.4655,-1.4328,-1.421,-1.4048,-1.3901,-1.3755,-1.3601,-1.3536,-1.3506,-1.3528,-1.363,-1.3949,-1.4302,-1.5037,-0.8937,-0.8937,-0.8937,-0.8937,-0.8937,-0.8937,-0.8937,-0.8937,-0.8937,-0.8859,-0.8821,-0.8825,-0.8715,-0.865,-0.8542,-0.863,-0.8698,-0.8742,-0.8924,-0.9089,-0.9268,-0.9276,-0.927,-0.9229,-0.9083,-0.8941,-0.8741,-0.8657,-0.8936,-0.8826,-0.9083,-0.9207,-0.9202,-0.9286,-0.9476,-0.9624,-0.9624,-0.9587,-0.9522,-0.9437,-0.9388,-0.9187,-0.9041,-0.8872,-0.8799,-0.8984,-0.9447,-0.9959,-1.0587,-1.1542,-1.2363,-1.3003,-1.3519,-1.3913,-1.4088,-1.4088,-1.4088,-1.4088,-1.4088,-1.4088,-1.4088,-1.4088,-1.4088,-1.4088,-1.4088,-1.4088,-1.4088,-1.4088,-1.4243,-1.4405,-1.4608,-1.4824,-1.4915,-1.4957,-1.4999,-1.4957,-1.4873,-1.4873,-1.4957,-1.4957,-1.5131,-1.5305,-1.5347,-1.5347,-1.5389,-1.5389,-1.5389,-1.5389,-1.5389,-1.5389,-1.5389,-1.5389,-1.5389,-1.5389,-1.5389,-1.5389,-1.5389,-1.5367,-1.5243,-1.5177,-1.5057,-1.4787,-1.464,-1.456,-1.4414,-1.4194,-1.3996,-1.3806,-1.3645,-1.3514,-1.3535,-1.3521,-1.3593,-1.3949,-1.433,-0.8937,-0.8937,-0.8937,-0.8937,-0.8937,-0.8937,-0.8937,-0.8937,-0.8878,-0.8842,-0.8726,-0.86,-0.8453,-0.8337,-0.8199,-0.8237,-0.8418,-0.8578,-0.8762,-0.8966,-0.9145,-0.9146,-0.9119,-0.9069,-0.9,-0.863,-0.861,-0.8716,-0.894,-0.8896,-0.9137,-0.938,-0.9403,-0.9355,-0.9583,-0.9624,-0.9624,-0.9624,-0.9612,-0.951,-0.9369,-0.9172,-0.9072,-0.9011,-0.8748,-0.8806,-0.9124,-0.9464,-1.0017,-1.0571,-1.1688,-1.2363,-1.2924,-1.361,-1.3913,-1.4088,-1.4088,-1.4088,-1.4088,-1.4088,-1.4088,-1.4088,-1.4088,-1.4088,-1.4088,-1.4088,-1.4088,-1.4088,-1.4124,-1.4328,-1.4447,-1.4573,-1.4657,-1.4741,-1.4824,-1.4824,-1.4699,-1.4664,-1.4706,-1.4783,-1.4957,-1.509,-1.5173,-1.5215,-1.534,-1.5389,-1.5389,-1.5389,-1.5389,-1.5389,-1.5389,-1.5389,-1.5389,-1.5389,-1.5389,-1.5389,-1.5389,-1.5382,-1.5352,-1.5279,-1.5265,-1.5204,-1.5072,-1.4915,-1.471,-1.4516,-1.4245,-1.3982,-1.3777,-1.3572,-1.3514,-1.3492,-1.3492,-1.363,-1.4049,-0.8937,-0.8937,-0.8937,-0.8937,-0.8937,-0.8937,-0.8937,-0.8937,-0.8927,-0.8852,-0.8699,-0.855,-0.8456,-0.8258,-0.8119,-0.8038,-0.8168,-0.8346,-0.8524,-0.8611,-0.8818,-0.8849,-0.8819,-0.8892,-0.8896,-0.8774,-0.8767,-0.8814,-0.9055,-0.901,-0.9257,-0.9507,-0.961,-0.9642,-0.9607,-0.9624,-0.9624,-0.9624,-0.962,-0.9542,-0.949,-0.9278,-0.9158,-0.9227,-0.8906,-0.882,-0.8952,-0.9276,-0.9495,-0.9899,-1.0986,-1.1483,-1.2295,-1.3107,-1.3483,-1.387,-1.4082,-1.4088,-1.4088,-1.4088,-1.4088,-1.4095,-1.4088,-1.4088,-1.4088,-1.4088,-1.4088,-1.4088,-1.4088,-1.4243,-1.4405,-1.4447,-1.4524,-1.465,-1.4692,-1.4566,-1.4482,-1.4531,-1.458,-1.4566,-1.4692,-1.4824,-1.4908,-1.5041,-1.5131,-1.5257,-1.5257,-1.5389,-1.5389,-1.5389,-1.5389,-1.5389,-1.5389,-1.5389,-1.5389,-1.5389,-1.5389,-1.5389,-1.5389,-1.536,-1.5374,-1.5389,-1.533,-1.5155,-1.4973,-1.4776,-1.4494,-1.4172,-1.3843,-1.3675,-1.3543,-1.3492,-1.3492,-1.3593,-1.3876,-0.8194,-0.82,-0.8251,-0.8266,-0.8325,-0.8716,-0.8937,-0.8937,-0.8878,-0.8797,-0.8699,-0.855,-0.8404,-0.8258,-0.8069,-0.7988,-0.8012,-0.8258,-0.8398,-0.8374,-0.8564,-0.8659,-0.8716,-0.876,-0.8804,-0.8797,-0.8842,-0.8896,-0.9211,-0.9222,-0.938,-0.9648,-0.9828,-0.9789,-0.9734,-0.9685,-0.9624,-0.9624,-0.9624,-0.9624,-0.9509,-0.9353,-0.9223,-0.9219,-0.9087,-0.9005,-0.9028,-0.9086,-0.9188,-0.9673,-1.0143,-1.0538,-1.1609,-1.2459,-1.29,-1.3483,-1.3955,-1.3997,-1.4088,-1.4088,-1.4128,-1.4255,-1.4155,-1.4095,-1.4088,-1.4088,-1.4088,-1.4088,-1.4108,-1.4228,-1.4397,-1.4397,-1.4418,-1.4544,-1.4488,-1.4404,-1.4341,-1.4355,-1.437,-1.4363,-1.444,-1.4566,-1.4692,-1.4783,-1.4957,-1.5041,-1.5166,-1.5257,-1.5347,-1.5389,-1.5389,-1.5389,-1.5389,-1.5389,-1.5389,-1.5389,-1.5389,-1.5389,-1.5389,-1.5389,-1.5389,-1.5389,-1.5389,-1.5389,-1.5214,-1.5028,-1.4699,-1.4362,-1.3989,-1.3697,-1.3521,-1.3492,-1.3492,-1.3593,-1.3775,-0.6964,-0.6983,-0.7092,-0.7241,-0.7412,-0.8446,-0.8906,-0.8933,-0.8927,-0.8838,-0.8699,-0.8537,-0.8439,-0.8255,-0.8056,-0.7992,-0.8049,-0.8336,-0.8428,-0.855,-0.8723,-0.8771,-0.8808,-0.8852,-0.8801,-0.8825,-0.8832,-0.8996,-0.935,-0.9385,-0.945,-0.9673,-0.9916,-0.9894,-0.9847,-0.9746,-0.9665,-0.964,-0.9624,-0.9624,-0.9575,-0.9381,-0.9266,-0.9253,-0.9137,-0.9074,-0.912,-0.9159,-0.9171,-0.9406,-0.9794,-1.007,-1.0771,-1.1815,-1.239,-1.3095,-1.3822,-1.4117,-1.4229,-1.4255,-1.4322,-1.4476,-1.4329,-1.4188,-1.4188,-1.4275,-1.4309,-1.4295,-1.4352,-1.4356,-1.443,-1.4372,-1.4363,-1.4385,-1.4316,-1.4253,-1.4191,-1.4171,-1.4137,-1.4208,-1.4328,-1.4447,-1.4566,-1.4692,-1.4741,-1.4866,-1.4999,-1.5131,-1.5257,-1.5389,-1.5389,-1.5389,-1.5389,-1.5389,-1.5389,-1.5389,-1.5389,-1.5389,-1.5389,-1.5389,-1.5389,-1.5389,-1.5389,-1.5389,-1.5389,-1.5226,-1.4838,-1.4457,-1.4077,-1.3843,-1.377,-1.3667,-1.3718,-1.3536,-1.3608,-0.8011,-0.8021,-0.8056,-0.8075,-0.8128,-0.8455,-0.873,-0.8854,-0.8828,-0.8689,-0.8696,-0.8438,-0.8313,-0.8255,-0.8059,-0.8002,-0.815,-0.8306,-0.8438,-0.8594,-0.8774,-0.8804,-0.8844,-0.891,-0.8848,-0.8841,-0.8913,-0.8995,-0.9151,-0.93,-0.9649,-0.9929,-1.0047,-1.0072,-0.9969,-0.9839,-0.9742,-0.9665,-0.964,-0.9624,-0.9579,-0.9385,-0.9331,-0.9349,-0.928,-0.9233,-0.9287,-0.932,-0.9295,-0.9436,-0.9389,-0.9615,-1.0502,-1.1584,-1.254,-1.4217,-1.4628,-1.476,-1.476,-1.4747,-1.478,-1.4796,-1.4774,-1.4736,-1.4716,-1.4683,-1.4669,-1.4646,-1.4633,-1.468,-1.471,-1.4636,-1.4643,-1.463,-1.4539,-1.4479,-1.4389,-1.4242,-1.4202,-1.4124,-1.4243,-1.4286,-1.444,-1.4482,-1.4531,-1.4657,-1.4824,-1.4957,-1.5131,-1.5257,-1.5389,-1.5389,-1.5389,-1.5389,-1.5389,-1.5389,-1.5389,-1.5389,-1.5389,-1.5389,-1.5389,-1.5389,-1.5389,-1.5389,-1.5389,-1.5199,-1.4893,-1.4557,-1.4355,-1.4296,-1.4262,-1.41,-1.3954,-1.3784,-1.3697,-0.7718,-0.7721,-0.7771,-0.8059,-0.8479,-0.8535,-0.8598,-0.8723,-0.8659,-0.8594,-0.8516,-0.8353,-0.8238,-0.8163,-0.8029,-0.7995,-0.8015,-0.8265,-0.8463,-0.8547,-0.8747,-0.879,-0.8854,-0.8937,-0.8878,-0.8937,-0.8937,-0.8937,-0.9047,-0.9372,-0.9683,-0.9884,-1.0162,-1.0204,-1.008,-0.9969,-0.9831,-0.9742,-0.9681,-0.964,-0.9529,-0.943,-0.948,-0.943,-0.9335,-0.943,-0.9472,-0.9393,-0.947,-0.9482,-0.9295,-0.9438,-1.0286,-1.1251,-1.2922,-1.4462,-1.4917,-1.4955,-1.4948,-1.4968,-1.5062,-1.5149,-1.5189,-1.5204,-1.5144,-1.5122,-1.5022,-1.4934,-1.4968,-1.4988,-1.4995,-1.5008,-1.4995,-1.4988,-1.4856,-1.477,-1.4603,-1.4416,-1.4269,-1.4128,-1.4124,-1.4208,-1.4243,-1.4286,-1.4328,-1.4412,-1.4573,-1.4783,-1.4957,-1.5124,-1.5298,-1.5389,-1.5389,-1.5389,-1.5389,-1.5389,-1.5389,-1.5389,-1.5389,-1.5389,-1.5389,-1.5389,-1.5389,-1.5389,-1.5389,-1.5177,-1.4966,-1.4885,-1.4718,-1.4677,-1.4575,-1.4443,-1.4304,-1.4201,-1.4143,-0.6657,-0.6713,-0.6769,-0.7528,-0.8393,-0.8428,-0.8435,-0.8445,-0.8435,-0.8384,-0.8292,-0.8258,-0.8167,-0.8032,-0.7992,-0.7988,-0.8052,-0.8252,-0.8463,-0.8499,-0.871,-0.879,-0.8861,-0.8937,-0.8937,-0.8937,-0.8937,-0.8937,-0.8992,-0.9265,-0.9588,-0.9746,-1.0004,-1.0144,-1.0159,-1.0123,-0.9989,-0.9904,-0.977,-0.9677,-0.9636,-0.9579,-0.948,-0.9335,-0.9385,-0.9529,-0.9381,-0.9422,-0.9624,-0.9563,-0.9494,-0.9481,-1.0507,-1.1281,-1.309,-1.4404,-1.5118,-1.5216,-1.5184,-1.519,-1.5264,-1.5357,-1.5438,-1.5531,-1.5484,-1.5391,-1.5277,-1.5237,-1.5271,-1.5271,-1.5277,-1.5277,-1.5271,-1.5284,-1.5251,-1.5097,-1.489,-1.4643,-1.4349,-1.4202,-1.413,-1.4166,-1.4243,-1.4286,-1.4286,-1.4286,-1.4334,-1.4573,-1.4741,-1.4908,-1.5124,-1.5298,-1.5389,-1.5389,-1.5389,-1.5389,-1.5389,-1.5389,-1.5389,-1.5389,-1.5389,-1.5389,-1.5389,-1.5389,-1.5382,-1.525,-1.5082,-1.5046,-1.498,-1.4867,-1.4787,-1.4772,-1.4692,-1.4626,-1.4545,-0.7638,-0.7641,-0.7677,-0.7891,-0.8093,-0.8096,-0.815,-0.8096,-0.8096,-0.8201,-0.8238,-0.815,-0.8082,-0.7998,-0.7988,-0.7992,-0.8056,-0.8269,-0.8425,-0.857,-0.8737,-0.8794,-0.8871,-0.8937,-0.8937,-0.8937,-0.8937,-0.8937,-0.8992,-0.9213,-0.9434,-0.9537,-0.9843,-1.0124,-1.013,-1.0112,-1.0144,-1.0039,-0.9925,-0.977,-0.9693,-0.9644,-0.9579,-0.9529,-0.9579,-0.9579,-0.9529,-0.9529,-0.9624,-0.9604,-0.9592,-1.0387,-1.1864,-1.2283,-1.3512,-1.5089,-1.5458,-1.5391,-1.5531,-1.5518,-1.5585,-1.5638,-1.5712,-1.5758,-1.5752,-1.5665,-1.5611,-1.5598,-1.5591,-1.5578,-1.5571,-1.5571,-1.5571,-1.5598,-1.5605,-1.5391,-1.5164,-1.4803,-1.4449,-1.4262,-1.4115,-1.4166,-1.4201,-1.4243,-1.4243,-1.4201,-1.4166,-1.4292,-1.444,-1.4608,-1.495,-1.5131,-1.534,-1.5389,-1.5347,-1.5347,-1.5347,-1.5389,-1.5389,-1.5389,-1.5389,-1.5389,-1.5389,-1.5389,-1.536,-1.5272,-1.525,-1.5294,-1.524,-1.5079,-1.5057,-1.5065,-1.5131,-1.5094,-1.4992,-0.7988,-0.7988,-0.7988,-0.7988,-0.7988,-0.7988,-0.7988,-0.7988,-0.7988,-0.8085,-0.8153,-0.8082,-0.7988,-0.7988,-0.7988,-0.8039,-0.8143,-0.8299,-0.8465,-0.8621,-0.8737,-0.8794,-0.8851,-0.8937,-0.8937,-0.8937,-0.8937,-0.8937,-0.894,-0.9051,-0.9213,-0.9434,-0.9809,-0.9932,-0.9876,-1.01,-1.0178,-1.0116,-1.0043,-0.9961,-0.9823,-0.9746,-0.9644,-0.9624,-0.9628,-0.9628,-0.9624,-0.9624,-0.9624,-0.9624,-0.9616,-1.0346,-1.14,-1.1818,-1.3049,-1.4405,-1.508,-1.5309,-1.5588,-1.573,-1.573,-1.573,-1.5825,-1.5818,-1.5818,-1.5738,-1.5738,-1.5725,-1.5725,-1.5718,-1.5718,-1.5718,-1.5718,-1.5732,-1.5685,-1.5538,-1.5164,-1.475,-1.4429,-1.4175,-1.4088,-1.413,-1.4166,-1.4166,-1.4166,-1.4208,-1.413,-1.4208,-1.4321,-1.4398,-1.4699,-1.4915,-1.5048,-1.509,-1.5041,-1.5131,-1.5264,-1.5257,-1.5298,-1.5389,-1.5389,-1.5389,-1.5389,-1.5389,-1.5389,-1.5374,-1.5382,-1.5389,-1.5389,-1.5299,-1.5328,-1.5338,-1.5389,-1.5389,-1.5292,-0.7988,-0.7988,-0.7988,-0.7988,-0.7988,-0.7988,-0.7988,-0.7988,-0.7988,-0.7988,-0.8002,-0.7995,-0.7988,-0.7988,-0.7995,-0.814,-0.8231,-0.8378,-0.8482,-0.8611,-0.873,-0.8794,-0.8861,-0.8937,-0.8937,-0.8937,-0.8937,-0.8937,-0.8937,-0.8992,-0.9103,-0.9323,-0.9434,-0.9541,-0.9713,-0.9911,-1.0023,-1.0091,-1.0095,-1.0156,-1.0054,-0.988,-0.9758,-0.9693,-0.9657,-0.9603,-0.964,-0.9624,-0.9624,-0.9624,-0.9673,-1.035,-1.0935,-1.1463,-1.2441,-1.3607,-1.4094,-1.4478,-1.4956,-1.5248,-1.5397,-1.554,-1.5683,-1.5778,-1.5778,-1.5778,-1.5778,-1.5825,-1.5825,-1.5825,-1.5825,-1.5825,-1.5825,-1.5818,-1.5745,-1.5645,-1.5204,-1.4783,-1.4489,-1.4195,-1.4115,-1.4115,-1.4088,-1.4088,-1.413,-1.4124,-1.4208,-1.4286,-1.4363,-1.4321,-1.4454,-1.4538,-1.4629,-1.4622,-1.4699,-1.4866,-1.5041,-1.5041,-1.5082,-1.5257,-1.5389,-1.5347,-1.5347,-1.5389,-1.5389,-1.5389,-1.5389,-1.5389,-1.5389,-1.5389,-1.5389,-1.5389,-1.5389,-1.5389,-1.5389,-0.7988,-0.7988,-0.7988,-0.7988,-0.7988,-0.7988,-0.7988,-0.7988,-0.7988,-0.7988,-0.7988,-0.7988,-0.7988,-0.7988,-0.7988,-0.8096,-0.8174,-0.8309,-0.8473,-0.8526,-0.8771,-0.8828,-0.8875,-0.8937,-0.8937,-0.8937,-0.8937,-0.8937,-0.8937,-0.8937,-0.8937,-0.9047,-0.9323,-0.9434,-0.9485,-0.9702,-0.9898,-1.0016,-1.0104,-1.0109,-1.0229,-1.0116,-0.9994,-0.9904,-0.9835,-0.9746,-0.9677,-0.9632,-0.9624,-0.9624,-0.9673,-1.0203,-1.0641,-1.1077,-1.1809,-1.2538,-1.3028,-1.327,-1.3746,-1.4286,-1.4484,-1.4669,-1.4962,-1.5737,-1.5737,-1.5778,-1.5778,-1.5825,-1.5825,-1.5825,-1.5825,-1.5825,-1.5825,-1.5825,-1.5785,-1.5625,-1.5331,-1.5037,-1.4763,-1.4462,-1.4229,-1.4175,-1.4088,-1.4088,-1.4088,-1.413,-1.413,-1.4208,-1.4201,-1.425,-1.4292,-1.4292,-1.4292,-1.4454,-1.4615,-1.465,-1.4783,-1.4783,-1.4866,-1.5041,-1.5173,-1.5215,-1.5215,-1.5305,-1.5389,-1.5389,-1.5389,-1.5389,-1.5389,-1.5389,-1.5389,-1.5389,-1.5389,-1.5389,-1.5389]}]]